GFSMW_925_thetae_000.txt.gz
Theta_e
312 311 312 313 312 312 312 312 311 311 310 309 309 309 309 308 308 308 309 313 310 310 307 306 306 307 306 305 305 305 304 304 304 304 304 304 303 303 303 304 303 304 304
310 310 311 312 313 312 312 312 311 311 310 309 309 309 309 308 308 307 307 308 310 310 308 307 305 306 306 305 304 304 305 304 303 304 302 301 302 302 304 303 304 304 304
310 310 312 313 313 313 313 313 313 312 312 311 310 309 308 307 307 307 307 306 307 309 308 307 306 305 304 304 304 303 303 303 302 302 303 301 301 302 303 303 304 304 304
311 311 311 312 313 313 313 313 313 313 312 311 310 309 309 307 308 308 307 307 307 308 307 306 305 305 304 303 303 301 301 300 299 298 300 299 300 300 301 301 302 301 302
310 311 312 312 312 313 313 313 313 313 312 312 311 311 310 309 309 308 307 307 306 306 306 306 305 305 303 302 301 300 297 295 295 295 294 294 295 298 299 298 298 298 300
311 311 313 312 313 314 314 314 313 313 312 312 312 312 311 311 309 309 307 306 305 305 306 305 305 302 300 300 300 298 296 296 296 297 297 294 296 296 297 296 296 296 297
311 309 311 311 313 313 313 311 311 311 310 310 310 310 310 310 310 310 307 306 304 303 301 300 299 297 295 295 295 296 298 298 297 294 293 293 294 295 296 297 296 297 297
310 311 310 311 312 311 311 310 311 310 309 309 309 309 308 308 308 308 307 304 300 298 296 295 295 296 296 296 296 297 297 297 294 294 293 294 294 294 294 295 296 296 295
309 309 312 311 310 310 310 310 310 309 308 307 305 306 305 305 305 304 302 299 296 295 296 296 297 297 297 298 297 294 293 293 292 292 293 293 293 294 295 295 296 295 295
309 309 309 310 310 310 310 309 308 308 306 302 303 303 303 303 302 299 297 295 295 296 299 299 298 296 294 293 293 293 292 292 292 293 292 292 292 293 293 293 293 294 294
308 308 309 310 310 310 309 308 308 306 302 303 302 301 301 299 297 295 295 296 296 298 297 295 293 293 293 292 292 292 293 292 292 291 290 290 290 291 292 292 292 293 293
308 308 309 309 309 308 307 307 307 304 303 304 301 300 299 296 295 295 295 295 294 294 294 293 293 292 292 292 292 291 290 290 289 289 289 289 290 290 290 291 291 292 292
310 308 308 308 309 308 307 307 306 302 304 304 301 298 296 294 294 294 294 294 294 293 293 292 292 292 292 291 290 290 289 289 289 289 289 289 289 289 290 290 289 289 289
309 308 307 307 308 307 307 307 302 303 302 302 298 295 294 293 295 294 294 294 293 293 292 292 292 292 290 289 289 289 289 288 288 287 287 287 287 287 287 287 287 287 287
309 308 307 306 307 307 306 304 303 302 301 300 295 294 295 295 295 294 294 295 294 293 293 292 290 289 288 288 288 288 287 286 285 285 285 285 285 286 286 286 286 286 285
309 308 307 307 306 306 304 302 301 301 301 300 298 298 296 296 295 296 293 294 294 292 290 289 288 287 287 287 287 285 284 283 283 283 283 283 283 283 283 283 284 284 285
307 306 307 306 305 304 302 301 300 300 300 299 297 298 297 295 294 294 294 294 291 289 288 287 287 287 287 286 285 284 282 283 283 283 283 282 282 283 283 283 283 284 284
307 306 306 304 303 302 300 300 300 300 300 299 297 297 297 295 294 292 290 289 288 287 287 286 286 286 285 285 283 282 282 283 283 283 283 283 283 283 283 283 283 283 283
306 305 303 302 301 300 300 300 298 298 295 291 291 291 292 291 289 289 288 287 286 286 285 285 285 284 283 283 282 282 282 282 282 282 282 282 283 283 283 284 284 284 284
303 301 301 300 299 298 297 294 291 291 290 290 290 290 289 288 288 287 287 285 285 285 285 284 283 282 281 281 281 282 282 282 281 282 282 282 282 282 283 283 283 284 284
300 299 299 299 299 298 295 290 289 289 291 290 289 288 288 287 287 286 285 285 284 284 283 282 282 281 281 280 281 281 282 281 281 281 282 282 282 283 283 283 283 284 284
298 298 298 298 297 295 291 290 290 293 289 288 288 287 287 287 285 285 284 284 283 282 281 281 281 281 280 280 280 281 281 281 282 283 282 283 283 283 284 284 283 283 283
296 297 298 297 296 292 291 291 289 289 288 287 286 286 286 285 284 284 284 283 282 281 281 281 281 280 280 280 280 280 281 282 283 282 282 282 282 281 282 283 283 284 284
295 296 297 296 295 292 290 289 289 288 288 287 286 286 285 283 284 284 283 282 281 282 281 281 280 280 279 279 279 281 282 283 283 281 280 280 280 280 280 281 282 282 283
296 296 295 294 294 290 290 289 289 288 288 286 285 284 284 283 283 282 282 281 281 281 281 280 280 279 278 279 281 281 282 283 282 282 280 279 279 279 279 279 280 281 283
297 295 294 292 291 290 289 289 289 288 288 287 286 285 284 284 282 282 282 282 281 280 280 280 279 278 279 280 280 280 281 281 281 280 280 278 278 278 279 278 279 280 281

GFSMW_925_thetae_003.txt.gz
Theta_e
309 310 311 311 313 313 312 312 311 311 310 310 309 309 309 309 308 308 308 308 307 309 312 308 306 307 308 306 305 305 305 304 304 304 303 302 303 302 301 301 300 303 303
308 308 310 311 312 312 311 311 312 311 311 311 311 310 310 309 309 308 308 307 307 307 311 309 307 306 306 307 305 305 305 304 304 302 301 299 300 300 299 301 302 301 304
309 309 309 310 311 311 311 312 312 312 311 311 310 310 309 308 309 309 308 308 307 307 309 309 308 307 305 307 306 305 304 303 302 301 300 299 299 299 300 297 299 301 298
309 309 310 311 311 312 312 312 311 311 311 310 310 309 309 307 309 309 310 310 309 307 306 306 309 307 305 306 305 303 303 302 300 298 297 295 297 295 295 296 295 295 296
310 311 311 310 310 311 311 312 312 312 312 311 311 310 310 310 310 310 309 309 308 306 306 306 308 306 304 304 303 302 300 297 295 295 296 297 295 295 296 293 293 294 295
311 310 310 311 312 312 312 311 311 310 310 309 309 308 308 308 308 308 308 308 308 307 305 304 306 305 303 301 297 295 295 296 295 295 295 294 294 294 294 293 293 294 295
308 308 308 310 311 310 310 310 310 309 308 308 308 307 306 306 307 306 306 307 306 303 302 303 302 299 297 295 296 298 298 298 299 299 297 296 294 293 294 295 294 293 294
308 308 309 309 309 309 310 309 308 307 307 307 304 304 304 304 304 304 304 304 302 298 297 297 297 297 296 297 297 297 298 297 298 297 294 294 292 293 293 294 293 293 294
308 309 309 309 309 309 309 309 308 307 307 303 304 305 304 303 303 303 301 301 298 296 297 298 298 298 298 298 297 294 294 294 293 293 292 293 293 293 293 293 294 294 293
308 307 308 309 309 309 308 308 307 307 306 305 305 305 303 302 301 301 300 298 296 297 298 299 299 299 297 294 293 293 292 293 292 292 292 291 290 290 290 291 292 293 293
307 307 308 309 309 308 308 307 307 307 304 304 304 304 302 300 297 297 297 295 297 296 294 295 294 293 294 293 293 292 292 291 290 289 289 289 288 289 289 289 290 291 292
307 307 308 309 308 308 308 306 306 306 303 303 302 301 300 298 295 295 295 295 294 294 292 292 292 292 292 292 292 291 290 289 289 289 289 289 289 289 289 289 290 290 291
308 307 307 307 307 307 307 306 306 302 302 301 300 300 298 295 294 294 294 294 293 292 292 292 292 292 292 291 289 288 288 288 288 288 288 288 288 288 288 288 288 288 288
308 307 307 306 307 307 306 305 304 302 300 300 300 298 293 292 293 293 293 294 295 293 292 292 292 291 289 288 288 288 288 288 287 286 286 286 285 285 285 285 286 286 286
308 307 307 305 306 306 305 303 302 300 299 300 298 294 293 293 293 295 294 294 293 293 292 292 291 289 288 288 287 287 286 285 284 284 284 283 283 284 284 285 285 285 285
308 307 305 305 305 305 303 302 300 299 299 299 297 297 295 294 294 294 293 293 293 293 292 289 288 287 287 287 287 285 284 283 283 282 282 282 282 282 282 283 283 283 284
306 304 304 304 304 302 300 299 298 299 298 298 297 296 296 296 295 294 294 294 291 289 288 287 287 287 287 286 285 284 283 282 282 282 282 282 282 282 282 282 283 283 283
305 303 304 302 301 300 299 298 298 297 296 293 292 292 292 292 292 291 289 288 287 286 286 286 286 286 285 284 283 282 282 282 282 281 281 282 282 282 282 282 282 282 282
302 303 302 299 299 298 295 294 292 291 291 290 291 291 290 289 288 288 287 286 285 285 285 285 284 283 282 281 281 281 281 281 281 281 281 281 281 282 282 282 283 283 283
302 301 299 298 298 298 294 294 293 292 291 292 290 288 288 287 287 286 285 285 284 284 284 283 282 281 281 280 280 281 281 281 280 281 281 281 281 282 282 282 283 283 283
301 299 297 297 297 295 294 291 290 292 290 289 288 287 287 287 286 285 284 284 284 283 282 281 281 280 280 280 280 280 281 281 280 281 281 282 282 282 283 283 283 284 283
298 297 295 296 296 294 292 291 289 289 288 287 286 286 286 286 285 284 284 283 282 281 281 281 280 280 280 279 279 280 281 281 281 281 282 281 281 281 281 281 282 283 283
297 295 295 295 295 294 290 290 290 288 288 287 286 285 285 284 283 283 283 282 281 281 281 281 279 279 279 278 279 280 280 281 281 282 280 280 280 279 279 280 280 281 282
295 295 295 295 295 294 292 290 288 288 288 287 286 285 284 283 283 282 282 282 281 281 281 280 279 279 278 278 278 281 280 281 282 281 281 278 278 278 278 279 279 280 280
295 296 295 294 293 293 291 289 289 288 288 287 286 285 284 283 283 282 281 281 281 280 280 279 279 278 278 278 280 280 280 281 281 280 279 279 277 277 277 277 278 278 279
295 296 294 294 292 290 289 289 288 288 287 287 286 286 285 284 283 281 281 281 280 279 278 278 278 278 278 279 278 278 279 279 279 279 278 277 276 276 276 276 276 277 278

GFSMW_925_thetae_006.txt.gz
Theta_e
307 308 310 311 312 313 315 313 312 311 310 310 310 310 310 310 309 310 309 308 308 308 309 311 311 309 308 307 307 306 305 305 304 303 303 302 302 302 300 299 301 299 298
308 308 310 312 313 313 312 312 311 310 310 309 309 308 308 308 309 310 310 309 308 308 308 307 308 310 308 307 308 306 305 305 304 303 300 298 299 300 300 299 299 298 301
308 308 308 310 310 311 310 310 309 309 308 308 308 309 309 309 310 310 310 310 310 309 307 307 307 308 310 307 306 307 305 305 304 303 300 298 298 296 297 299 297 298 295
308 308 309 309 309 309 309 309 310 310 310 309 309 308 308 307 308 307 307 307 308 307 307 306 305 307 310 307 306 306 305 304 302 301 301 298 297 294 294 295 296 294 294
307 309 308 308 309 309 310 310 310 310 309 309 308 307 305 304 304 305 305 304 304 304 305 306 305 304 305 306 305 305 303 302 300 295 297 295 296 296 293 293 293 293 293
308 308 309 310 309 310 310 310 310 309 308 308 306 304 303 303 303 303 303 303 303 303 304 304 304 302 303 302 301 298 296 296 297 297 297 295 293 292 293 292 292 293 293
305 305 307 308 309 309 309 309 308 308 307 306 304 305 305 304 302 302 303 302 302 302 302 301 300 298 297 297 297 297 297 297 297 296 296 295 295 294 293 293 293 292 293
307 306 307 307 308 308 308 308 307 307 306 306 305 305 305 304 301 301 301 301 301 299 297 298 297 297 297 297 297 297 297 297 296 295 292 292 291 292 292 293 293 293 292
305 306 308 308 308 308 308 308 307 307 306 306 304 305 304 302 301 300 300 299 299 297 297 297 298 298 298 298 298 297 294 292 292 291 292 292 291 291 291 291 292 293 292
306 307 308 309 309 308 308 308 307 306 306 305 304 304 302 300 300 299 298 297 297 297 298 297 295 295 295 295 294 292 292 293 293 292 292 291 290 289 288 289 289 290 292
306 305 307 308 308 308 308 307 306 305 306 303 303 301 300 299 297 296 296 295 297 295 294 293 294 293 292 292 293 293 293 291 291 290 289 288 288 288 288 288 289 289 290
306 305 307 308 308 308 308 307 305 305 302 302 300 299 299 297 294 293 294 295 293 292 293 293 292 292 291 291 291 291 290 289 288 288 288 288 288 288 288 288 288 288 289
306 306 307 307 308 307 307 307 305 303 301 299 299 298 296 292 292 292 293 293 294 293 293 292 293 292 291 291 290 288 288 288 287 287 287 287 286 286 286 286 286 286 286
306 306 305 306 307 305 305 305 303 301 299 299 298 296 293 291 292 294 294 294 294 294 293 293 292 291 290 288 288 287 287 287 287 286 285 284 284 283 283 283 284 284 284
307 305 305 306 304 304 304 302 300 298 298 298 297 296 295 294 294 294 294 294 294 293 293 293 292 289 287 287 287 287 287 286 285 285 284 283 282 283 283 284 284 284 284
305 305 303 303 303 303 301 299 298 298 298 297 297 296 296 295 295 292 292 292 292 292 292 291 287 287 287 287 287 285 285 284 283 283 282 282 282 282 282 282 283 283 283
303 300 300 301 302 300 299 298 298 297 297 294 291 291 291 291 291 291 290 289 288 287 286 286 286 286 286 285 284 284 283 282 282 281 281 281 281 281 281 282 282 282 282
302 301 301 301 300 298 297 295 295 294 291 291 292 292 291 288 288 287 287 286 286 285 285 285 285 284 283 282 282 282 282 281 281 281 281 281 281 281 281 282 282 282 282
301 301 301 299 298 297 295 292 292 291 291 293 292 290 288 287 287 286 285 285 284 284 284 284 282 281 281 280 280 281 281 281 280 281 280 280 281 281 282 282 282 282 282
301 300 300 298 296 297 296 293 293 292 291 291 289 287 287 286 286 285 284 284 283 283 282 282 281 281 280 279 280 280 280 280 281 280 280 280 281 282 282 282 282 282 283
301 300 297 295 296 297 294 293 291 289 290 288 287 286 286 285 285 284 284 283 282 282 281 281 281 280 279 279 279 280 280 280 280 281 281 281 282 281 281 281 281 281 282
300 298 296 295 296 296 292 290 290 291 289 287 286 285 285 285 284 283 282 282 282 281 281 280 280 279 279 278 278 279 280 280 281 281 281 281 280 280 280 279 280 280 281
299 296 295 295 296 295 294 294 292 290 288 287 286 285 285 284 283 282 282 282 281 281 280 280 279 278 278 278 277 279 279 280 280 281 281 280 279 278 278 278 279 279 279
297 295 294 295 295 293 293 293 290 288 288 287 286 286 285 284 283 283 281 281 281 280 280 279 278 278 277 277 277 279 279 279 281 280 279 278 277 277 277 277 277 278 278
296 295 294 295 294 293 292 290 289 288 287 287 286 286 285 284 284 283 281 281 280 280 279 278 278 278 277 277 279 279 279 280 279 279 278 277 276 276 276 276 276 277 277
295 295 295 294 293 292 289 289 288 287 287 287 286 285 284 284 283 282 281 281 280 279 278 278 277 277 277 278 278 277 277 278 277 277 276 276 275 274 275 275 275 275 275

GFSMW_925_thetae_009.txt.gz
Theta_e
309 309 310 310 311 313 314 316 315 313 313 311 309 308 309 308 309 309 309 309 309 308 307 307 308 309 311 311 309 308 307 306 305 306 306 305 304 304 304 302 302 300 300
311 309 309 310 311 313 313 311 309 307 307 307 307 307 308 309 309 309 309 308 308 308 307 307 307 307 309 310 310 309 308 307 306 306 306 307 306 303 303 302 302 301 300
313 311 310 309 308 308 307 307 307 308 309 309 309 308 308 308 307 307 306 305 305 304 304 304 305 306 307 308 308 309 308 308 307 305 306 308 307 305 302 302 299 300 299
312 311 310 309 308 307 309 309 309 308 308 307 306 305 305 305 305 304 303 301 302 303 304 304 303 304 306 307 307 307 307 307 308 304 303 303 302 305 306 300 299 298 297
310 310 310 309 308 309 309 308 308 308 307 307 305 305 305 304 304 303 303 302 301 301 302 302 302 303 303 305 305 305 305 305 305 304 303 300 299 298 299 301 300 296 296
309 309 309 309 308 308 309 308 308 308 307 306 305 305 304 304 304 303 302 301 301 301 301 301 301 301 301 300 300 298 299 299 299 298 298 298 298 297 296 297 297 298 297
311 311 310 309 309 308 308 308 307 307 306 306 305 304 304 304 303 302 300 300 300 300 299 299 299 299 298 298 298 298 298 297 297 296 295 296 295 295 294 294 296 298 296
310 311 309 309 308 308 307 307 307 307 306 305 305 304 304 303 301 300 299 299 298 298 298 298 298 297 297 297 298 297 297 296 294 293 292 292 292 292 292 293 294 296 296
310 310 310 309 309 308 308 308 307 305 305 305 305 303 303 300 299 299 297 297 296 297 297 298 298 297 297 297 297 296 297 293 291 291 291 291 292 291 292 293 293 293 294
311 311 310 309 308 308 307 308 307 305 304 304 302 301 299 298 297 296 295 295 295 298 298 296 294 294 294 294 292 293 294 294 294 293 293 293 293 292 292 291 291 291 291
312 311 310 309 308 308 307 306 306 305 304 302 300 299 298 296 294 293 294 294 296 295 293 293 293 293 292 292 291 292 293 293 292 292 291 290 290 289 290 289 289 289 289
311 310 309 308 308 307 306 306 305 303 301 300 299 297 295 294 292 293 293 293 293 292 293 293 293 293 293 293 292 291 290 289 289 289 288 288 288 289 289 289 289 289 289
311 310 309 308 307 305 305 305 303 301 299 298 298 296 296 294 294 294 294 294 294 294 294 294 293 292 291 290 289 288 288 287 288 288 288 287 287 287 287 286 286 286 287
310 309 308 305 303 303 303 302 300 299 298 298 297 296 295 294 294 294 294 294 293 293 293 292 292 292 291 289 288 287 288 287 287 286 286 285 285 285 285 284 284 285 285
310 307 304 302 302 302 302 300 299 298 298 298 297 297 296 296 293 292 292 292 293 293 293 292 291 287 286 287 287 287 287 287 286 286 285 284 284 283 283 283 284 284 285
305 303 302 301 301 302 300 298 297 297 297 297 294 292 292 293 292 292 291 291 290 288 286 286 285 285 286 285 286 286 286 285 284 284 283 283 282 282 282 282 283 283 283
302 301 300 301 301 300 298 297 296 296 295 293 292 292 292 290 289 288 287 287 286 286 285 285 285 285 284 283 282 283 283 283 283 282 282 282 282 282 282 282 282 282 282
300 300 299 301 301 298 296 296 295 294 293 292 293 292 290 288 288 287 286 285 285 285 284 285 284 283 282 281 281 281 281 282 281 281 281 282 282 282 282 282 282 283 283
300 299 300 300 298 296 296 294 292 292 292 292 291 289 287 287 286 286 285 284 284 284 284 282 282 282 281 280 280 280 281 281 281 281 281 282 282 282 282 282 283 283 283
299 299 300 299 296 296 296 294 294 292 292 290 289 287 286 286 285 284 284 284 283 283 282 281 281 281 280 279 279 280 280 280 281 281 281 282 282 281 282 282 282 283 282
298 299 299 296 295 296 295 294 291 291 291 288 288 287 285 285 285 284 283 283 283 282 281 281 280 280 279 279 279 279 279 280 281 281 282 282 282 281 281 280 281 281 281
298 298 298 296 295 296 294 292 292 293 292 290 287 286 285 285 284 283 283 282 282 282 281 280 280 280 279 279 278 278 279 280 281 281 282 282 280 279 279 279 279 279 279
297 297 296 295 295 295 293 293 293 293 290 288 287 286 286 285 284 283 283 283 282 282 281 281 280 279 278 278 278 278 279 279 280 281 280 279 278 278 278 278 278 278 280
296 295 295 295 295 295 293 292 291 290 288 287 287 286 286 285 285 283 283 282 282 281 280 280 279 278 278 278 278 279 279 279 280 280 279 278 277 277 277 278 278 278 279
294 294 294 294 295 293 292 291 289 289 287 287 286 286 285 284 284 283 282 282 281 279 279 279 278 277 277 277 278 278 278 278 278 278 278 277 277 277 277 277 277 278 278
293 293 292 292 290 289 288 287 287 287 286 286 286 285 284 283 282 282 281 281 280 279 277 277 277 277 276 277 277 276 276 276 276 277 276 276 276 276 276 277 277 277 277

GFSMW_925_thetae_015.txt.gz
Theta_e
325 322 320 320 321 325 326 327 325 320 318 317 316 316 316 315 315 316 315 315 314 312 312 312 311 312 311 312 312 313 314 315 315 316 316 316 314 313 312 311 311 310 309
321 320 320 320 320 320 319 318 317 316 315 315 315 315 315 315 315 315 313 312 311 310 309 309 309 308 309 309 310 311 312 313 314 316 316 319 316 315 313 312 312 311 310
319 319 319 319 319 318 317 316 316 315 315 314 314 314 314 314 314 313 312 311 310 309 308 307 307 307 307 308 308 309 309 311 311 312 314 316 317 316 314 314 313 311 310
319 319 319 319 318 318 316 316 315 315 314 314 313 314 313 313 313 312 311 310 308 307 306 305 305 306 306 307 307 307 309 309 310 310 309 311 313 315 316 313 313 311 310
320 319 318 318 317 317 317 316 315 315 314 314 312 312 312 311 311 310 309 307 306 305 304 304 304 305 305 306 306 307 307 307 307 308 308 307 308 308 308 312 313 311 309
319 318 317 317 317 317 317 316 315 314 314 313 312 311 310 309 308 308 306 305 304 303 303 303 303 304 305 305 305 305 303 302 301 300 300 298 299 300 300 302 307 307 308
320 319 318 317 317 316 316 315 315 314 313 312 311 310 309 308 307 306 305 303 302 301 301 302 303 303 303 302 302 301 300 298 296 295 295 294 293 293 293 294 296 299 299
318 318 317 317 316 316 315 315 314 314 313 312 311 310 309 307 305 304 302 301 300 300 301 302 303 302 301 300 297 297 297 295 295 295 294 293 294 294 294 294 295 297 298
317 317 316 316 315 315 314 314 313 312 311 311 310 308 306 305 303 301 300 300 300 300 301 302 301 299 298 298 298 297 297 296 296 295 295 294 294 294 293 293 293 294 296
317 317 316 315 314 314 313 312 311 311 310 308 307 306 304 303 300 299 299 299 299 299 298 299 298 297 297 296 296 296 296 296 296 296 296 295 295 295 294 294 293 294 293
317 316 315 314 313 313 312 310 309 308 307 305 304 303 302 301 299 299 299 298 298 297 298 297 297 297 296 295 295 295 295 295 294 293 293 293 292 292 291 291 292 293 292
316 315 314 313 313 311 310 308 307 305 304 303 302 301 300 300 299 299 297 297 296 297 297 297 296 295 295 295 294 294 294 293 293 293 293 292 292 291 291 291 291 291 291
314 314 313 312 311 309 307 305 304 304 303 301 300 300 299 299 298 297 296 295 295 295 295 295 295 294 293 292 291 291 291 291 291 291 290 290 290 290 290 290 290 290 290
313 313 311 310 309 306 304 304 303 303 301 300 299 299 299 297 297 296 295 294 293 292 291 290 290 290 290 290 290 290 289 289 289 289 289 289 289 289 289 289 288 288 288
313 311 309 307 304 303 303 303 302 300 299 299 299 298 297 296 295 294 293 292 291 290 290 289 289 289 289 289 288 287 286 286 287 287 288 288 288 287 286 286 286 286 286
310 308 304 303 302 302 302 302 301 300 299 298 298 297 296 295 295 293 292 290 290 289 289 289 289 289 288 286 285 284 284 284 285 286 286 287 287 287 286 285 284 284 284
306 307 304 303 302 302 302 302 300 299 298 297 297 296 296 295 293 292 290 290 289 289 289 289 288 288 287 285 284 283 283 283 284 285 286 286 286 286 285 286 285 285 284
306 305 303 302 301 300 301 301 300 299 298 298 297 296 295 294 292 291 290 289 289 289 288 288 288 287 287 285 283 282 282 283 283 284 285 285 285 285 284 284 284 284 284
304 303 301 300 300 300 300 300 300 299 298 297 296 295 295 294 292 291 290 289 289 289 288 287 287 286 285 284 283 281 281 282 282 282 283 283 283 283 283 283 284 284 284
302 301 300 300 299 298 298 298 298 297 297 297 295 294 294 293 292 290 290 289 289 288 288 287 286 285 284 284 282 281 281 280 281 281 282 282 283 283 283 284 284 284 284
300 300 299 299 298 297 297 296 296 296 296 296 295 295 295 293 291 290 289 289 289 288 287 286 285 284 285 283 282 281 280 280 281 281 282 283 282 281 281 281 281 282 282
300 299 298 297 297 296 295 295 295 296 296 296 295 294 293 292 290 290 289 289 288 287 286 285 284 284 283 283 282 280 280 280 280 281 281 283 281 280 280 280 280 280 279
298 297 296 296 295 294 294 294 294 294 294 294 293 293 292 291 290 290 289 288 287 286 285 284 284 283 282 282 281 279 279 279 279 280 280 280 280 280 280 281 280 280 281
296 295 295 295 294 294 293 293 293 292 292 291 291 291 291 290 289 289 288 287 286 285 283 283 282 281 280 280 279 278 278 278 279 278 279 280 280 280 281 282 282 282 282
295 295 295 294 294 294 293 292 292 290 290 290 289 289 290 289 289 288 287 286 285 283 281 280 279 279 278 278 277 277 277 277 277 277 280 280 279 279 281 281 281 282 281
295 295 294 294 294 293 292 291 290 290 288 288 289 289 289 288 287 287 286 284 284 282 280 278 277 277 276 276 276 276 276 276 276 279 279 279 278 279 279 280 280 280 280

GFSMW_925_thetae_018.txt.gz
Theta_e
323 322 321 322 325 326 326 327 323 320 319 318 316 316 316 316 316 316 316 315 313 312 311 310 310 309 309 310 309 310 311 312 313 314 315 315 316 317 315 314 313 312 311
322 322 321 321 320 319 319 318 318 317 316 316 316 316 315 316 315 315 314 313 312 311 310 309 308 308 308 308 308 309 311 311 311 313 314 313 313 314 314 315 314 312 312
321 321 321 321 319 318 318 317 316 316 315 314 315 315 315 314 314 314 313 312 311 309 308 306 305 306 306 307 307 306 308 310 310 310 311 312 311 311 311 311 312 313 313
320 320 321 320 319 318 317 316 316 315 315 315 314 313 314 313 312 312 311 309 308 307 305 304 304 304 305 305 306 307 307 308 307 307 306 305 304 308 309 310 311 311 312
320 320 319 319 318 318 318 317 316 316 315 314 314 313 312 311 310 309 309 307 306 304 303 302 302 303 303 304 306 306 305 303 302 301 300 299 299 302 302 303 304 304 307
320 319 318 318 318 318 317 317 316 315 315 313 312 312 311 310 309 308 306 304 302 302 302 302 302 302 304 303 302 302 302 301 300 298 297 297 297 297 296 298 298 298 301
321 320 319 318 317 317 316 316 316 315 314 313 313 312 310 308 307 305 303 301 301 301 301 302 303 302 302 300 300 299 299 298 297 296 296 295 294 293 293 294 295 295 296
319 319 317 316 316 316 315 315 315 314 312 312 311 310 308 306 305 302 301 300 300 300 300 299 300 300 298 298 298 298 297 297 296 296 296 295 294 294 294 294 294 294 296
318 318 317 316 316 315 314 314 313 312 311 309 308 307 305 304 303 301 300 299 300 299 298 298 299 298 298 297 296 295 295 296 296 296 296 295 295 295 294 293 293 293 293
318 318 316 316 315 314 314 312 310 309 308 307 305 304 303 302 301 300 300 299 297 297 297 298 298 298 297 296 296 296 295 295 295 295 295 294 294 294 294 294 294 293 293
317 317 315 314 313 312 311 310 309 307 305 305 304 303 301 300 300 300 299 297 296 296 296 297 297 296 296 295 293 293 294 293 293 294 293 293 293 293 293 292 292 293 293
316 315 314 314 312 311 310 309 306 305 305 303 302 300 300 300 300 298 298 296 296 296 295 294 294 294 294 294 294 292 292 293 292 292 292 292 292 291 291 290 291 291 291
314 314 313 312 310 310 308 306 304 304 303 301 300 300 300 299 298 297 297 296 295 294 293 291 291 290 290 290 290 290 290 288 288 288 289 289 290 290 290 290 290 289 289
314 313 311 310 308 305 305 303 303 303 302 301 299 299 299 298 297 296 296 295 293 292 291 290 290 290 290 290 289 289 288 287 286 286 286 287 287 288 289 289 288 288 287
313 311 310 307 305 304 303 303 303 303 301 300 299 299 298 297 296 296 295 294 292 290 290 290 290 289 289 288 287 286 285 285 285 285 285 286 286 287 287 287 287 286 286
310 308 307 306 304 304 303 302 302 302 301 300 300 299 298 297 296 295 294 293 291 290 290 290 289 289 288 287 285 285 284 284 284 283 284 285 286 286 287 286 286 285 285
308 307 306 305 303 302 301 301 301 301 301 301 300 299 298 297 296 295 293 292 290 290 290 289 289 288 288 286 285 284 283 282 282 283 283 284 284 284 285 285 285 285 285
307 306 305 302 301 300 300 299 299 298 298 299 299 298 297 296 295 294 293 291 290 290 289 289 288 287 287 286 285 284 283 282 281 281 281 282 283 283 283 283 284 284 284
305 303 301 301 300 300 299 298 297 297 297 297 297 297 296 295 295 294 292 290 290 289 289 288 288 287 286 285 285 284 282 282 281 281 281 282 282 282 283 283 284 284 284
302 301 301 300 299 298 297 296 296 295 295 297 297 296 296 295 294 292 291 290 290 289 288 288 287 286 285 285 284 283 281 281 281 281 281 281 282 282 281 281 282 282 282
300 300 299 298 297 297 296 295 295 294 294 295 295 294 294 294 292 291 290 290 289 289 287 286 285 284 284 284 283 282 281 280 280 280 280 281 282 282 281 281 280 280 281
299 298 297 296 296 296 295 295 294 294 293 293 293 293 293 293 292 291 290 290 288 288 286 285 284 284 283 282 281 280 279 279 279 279 279 280 280 281 280 280 281 281 280
297 296 296 295 295 295 295 294 294 293 292 291 291 292 292 291 291 291 289 288 287 286 285 284 283 282 281 280 280 278 278 278 278 278 278 279 280 280 280 281 281 281 281
296 296 295 295 296 295 294 294 292 292 291 291 290 290 290 290 290 289 288 287 286 286 284 283 281 280 279 278 277 277 277 277 277 277 278 280 279 279 279 280 281 281 282
296 295 295 295 295 294 294 293 291 291 290 289 289 289 289 289 288 288 286 286 285 284 282 281 280 279 278 277 277 277 277 277 277 277 279 278 278 278 279 279 279 280 280
295 295 294 294 294 294 293 292 291 290 288 287 287 286 287 287 287 287 286 285 285 284 283 281 279 278 277 277 277 276 277 277 277 278 278 277 277 277 278 278 278 278 279

GFSMW_925_thetae_024.txt.gz
Theta_e
317 317 317 317 321 322 318 317 316 318 317 315 315 314 314 312 312 311 310 309 308 306 305 304 303 302 302 302 302 302 302 302 304 307 306 306 306 308 308 308 306 306 308
317 316 316 316 316 315 315 315 314 315 315 314 313 313 313 312 310 309 308 307 306 306 304 302 300 300 300 299 300 301 304 306 306 304 305 304 305 304 302 302 302 303 302
317 315 315 315 315 315 315 315 315 315 314 314 314 313 313 311 310 308 307 305 305 304 301 299 300 300 301 303 304 305 304 304 303 302 301 302 302 299 300 299 301 299 299
316 315 315 316 316 316 316 315 315 315 314 314 313 312 311 310 307 306 305 305 304 302 299 299 300 300 300 300 301 301 300 300 299 299 298 298 298 297 297 298 296 297 295
316 315 316 317 317 316 316 315 315 314 314 313 312 311 310 308 306 306 305 304 301 299 298 299 298 298 299 299 299 298 298 297 297 296 296 296 296 295 295 295 295 294 294
313 314 316 317 317 316 316 315 313 312 313 312 311 311 309 306 305 304 303 300 299 299 299 298 296 297 298 298 297 297 297 295 295 295 295 295 295 294 294 294 293 293 293
312 313 315 316 316 316 315 314 313 311 310 310 309 308 306 305 304 303 301 300 299 299 298 296 296 297 296 296 295 296 295 294 294 295 295 295 295 295 294 293 293 293 292
312 312 313 314 314 313 313 313 311 309 308 307 306 304 303 302 301 301 300 299 299 298 296 294 295 296 296 295 295 295 294 293 294 293 293 294 293 293 292 292 292 293 292
310 310 311 311 312 312 311 310 309 308 306 305 304 303 302 301 300 300 300 300 299 296 295 294 294 295 295 294 294 293 292 292 291 292 292 292 292 292 292 291 291 291 292
311 309 310 310 310 310 309 308 308 305 304 304 303 303 302 300 300 300 300 300 298 296 295 295 294 293 291 290 290 291 291 291 290 292 289 287 286 286 288 290 291 291 291
310 310 309 308 307 307 306 305 305 304 304 303 303 302 301 300 299 299 299 299 297 295 295 294 292 290 290 289 289 289 289 289 288 288 287 287 286 285 285 285 286 288 290
309 307 307 307 306 305 303 304 302 302 302 303 303 302 300 299 299 299 299 298 296 296 294 293 291 290 289 289 289 289 288 287 286 286 285 285 285 284 284 284 285 286 287
307 305 305 306 305 304 303 302 302 301 301 301 301 300 300 299 299 299 298 297 296 294 293 292 290 289 289 289 289 288 287 286 286 285 284 283 282 282 283 284 285 285 286
306 305 304 305 304 302 301 300 299 299 298 298 296 297 298 299 299 298 297 296 295 295 293 290 289 289 289 289 288 287 286 286 285 284 283 281 281 282 283 284 285 285 285
306 305 304 303 303 302 301 298 297 296 296 295 296 296 296 295 296 297 297 296 295 293 292 290 289 289 289 288 287 286 285 284 284 283 282 281 281 281 282 283 283 284 284
306 304 303 303 304 302 297 296 296 295 295 294 296 296 295 295 295 295 295 295 294 292 290 289 289 289 287 286 286 285 284 284 284 283 282 281 281 280 281 281 282 282 283
305 304 304 304 301 297 296 295 295 295 294 296 295 294 293 293 293 293 294 294 292 290 289 289 288 287 286 285 284 284 285 284 283 282 281 281 280 280 280 280 281 282 282
304 302 300 297 297 296 295 295 295 294 294 294 293 293 293 292 293 292 291 291 291 289 288 288 287 285 284 284 284 283 282 281 281 280 279 279 279 279 280 281 282 281 281
302 298 296 296 295 295 294 294 293 294 293 293 292 292 291 291 292 292 291 290 290 289 288 286 284 284 283 283 282 282 280 279 278 278 278 279 279 279 280 280 281 281 281
297 295 295 295 294 294 294 293 293 293 292 292 291 291 291 291 291 292 291 291 289 288 286 284 283 282 281 280 281 280 279 278 278 278 277 278 278 279 280 281 281 280 280
295 295 295 294 294 294 294 293 293 292 292 291 290 290 289 289 289 291 291 290 288 286 284 283 282 281 280 279 278 278 278 277 277 277 277 278 278 280 280 280 280 280 281
295 294 294 294 294 294 294 293 292 292 291 291 290 289 289 288 288 288 288 287 286 285 284 283 281 280 279 278 278 277 277 277 277 277 277 278 279 279 279 279 280 280 281
294 294 293 293 294 293 293 292 292 291 291 290 289 288 288 288 287 286 286 285 284 284 283 282 281 280 279 278 278 277 277 277 277 277 278 277 277 277 278 278 279 279 279
293 293 293 293 293 293 292 292 292 291 290 289 288 287 286 285 286 285 285 284 284 283 283 282 282 281 279 278 278 278 277 278 277 276 276 276 276 276 276 277 277 278 278
293 293 293 293 293 292 292 291 291 291 289 288 287 286 285 285 286 285 284 283 283 283 283 283 282 281 279 278 279 278 277 277 276 275 275 275 275 275 276 276 276 276 277
292 292 292 292 292 291 291 290 290 289 289 288 287 286 284 285 286 284 284 283 283 283 283 283 282 281 279 278 279 278 277 276 275 274 275 274 274 274 275 275 275 275 276

GFSMW_925_thetae_027.txt.gz
Theta_e
315 316 316 326 330 329 326 327 327 323 316 315 314 313 312 311 310 309 308 308 307 307 305 304 302 301 299 301 302 304 304 304 305 304 301 302 304 300 302 298 299 298 300
314 314 315 319 320 318 316 316 316 315 315 314 313 313 311 310 309 308 308 307 306 304 303 301 300 297 296 298 300 302 302 302 302 300 300 299 299 300 297 298 297 298 298
314 314 314 315 316 315 314 314 314 314 314 314 313 312 311 310 307 306 305 304 304 303 301 298 297 297 296 296 298 299 298 299 299 298 298 297 297 297 298 297 298 297 296
315 315 314 313 314 314 315 315 314 314 314 314 314 313 312 310 306 305 304 304 302 301 298 298 298 297 296 298 298 297 298 297 297 296 296 296 296 297 295 296 295 295 294
315 313 314 314 314 314 314 314 314 313 313 312 312 312 311 309 306 305 305 303 301 299 298 298 298 295 296 297 296 296 296 295 294 295 295 295 294 295 295 294 293 293 293
314 314 314 315 314 313 313 313 313 313 312 312 311 310 309 307 306 304 304 303 301 299 299 298 297 295 296 295 296 295 295 294 293 294 294 294 294 294 294 294 293 293 293
313 312 314 314 314 313 312 312 312 311 311 310 309 308 307 305 304 303 302 301 300 299 299 298 295 294 295 296 295 294 294 293 292 292 292 293 293 293 292 292 292 293 292
311 311 312 311 312 313 312 311 310 309 309 308 306 304 304 303 302 301 301 300 299 299 299 296 294 294 294 294 294 294 293 293 292 291 292 292 292 291 292 292 291 291 291
309 308 309 310 310 310 309 308 308 307 306 304 303 303 303 302 301 300 300 299 299 299 297 295 294 294 294 293 293 293 293 292 292 291 292 290 287 287 286 286 289 290 290
308 307 308 309 309 308 307 307 308 306 305 304 303 303 302 301 300 300 299 299 299 299 297 295 295 294 292 290 290 290 289 289 289 290 288 287 286 286 286 285 285 285 289
309 307 307 306 306 304 304 304 304 304 303 302 302 302 301 300 299 299 299 299 299 297 295 295 293 292 291 289 289 289 289 289 288 287 286 286 286 285 285 284 284 284 285
306 306 306 305 304 303 303 303 302 301 301 302 301 300 299 298 298 298 298 298 297 297 295 294 293 292 290 289 289 289 288 288 286 286 285 285 284 283 282 282 283 283 284
305 304 304 304 303 302 302 301 299 299 299 299 296 296 296 296 295 295 294 296 296 296 296 294 294 292 289 289 289 288 287 286 285 285 284 283 282 281 281 281 282 283 284
305 303 303 303 303 301 300 299 297 296 296 295 295 295 295 295 295 295 295 295 295 295 295 294 291 289 289 289 287 286 286 285 284 284 283 283 281 281 281 281 281 283 282
306 304 303 302 302 302 298 296 296 295 295 294 295 295 294 293 292 292 291 293 294 294 293 291 289 289 288 287 287 286 285 284 284 284 283 282 282 282 281 281 281 281 282
305 304 303 303 302 297 296 296 295 295 294 294 295 294 293 292 291 292 292 293 294 293 291 290 289 287 287 286 285 285 285 284 284 283 282 281 280 280 280 280 280 281 281
304 303 302 300 297 296 295 295 295 294 294 295 294 293 293 291 291 292 291 290 291 290 290 288 286 287 285 284 284 283 283 282 281 280 279 279 279 279 279 279 280 280 281
302 300 297 296 295 295 294 294 294 294 294 293 292 292 291 290 290 292 290 290 290 289 287 287 286 284 283 283 282 282 280 279 278 277 278 278 278 278 279 280 281 280 280
301 296 295 295 294 294 294 294 293 293 293 292 292 291 290 290 290 291 292 290 290 288 287 285 284 283 281 280 281 280 278 278 277 277 277 278 278 278 280 280 281 280 281
295 294 294 294 294 294 294 293 292 292 292 292 291 290 289 289 289 289 291 291 289 287 286 284 283 281 280 279 279 279 278 277 277 277 277 278 278 280 280 280 280 280 280
294 294 294 293 293 294 293 293 293 292 292 292 291 290 289 288 288 289 290 289 288 286 284 283 282 280 279 278 278 278 278 277 277 277 277 278 279 279 279 279 279 280 280
293 293 293 293 293 293 293 292 292 292 292 291 290 289 288 287 287 287 287 286 285 285 284 282 281 280 279 278 278 278 278 278 277 277 277 277 278 278 278 278 278 278 279
293 293 293 293 293 293 292 292 292 291 291 290 289 288 287 287 286 286 285 285 284 283 283 282 282 281 280 278 278 278 278 277 277 276 277 276 276 276 276 277 277 277 278
292 292 292 292 292 292 292 292 291 290 290 289 288 287 286 285 285 285 284 284 283 283 283 282 282 281 280 279 279 279 277 276 276 275 275 275 275 275 275 275 276 276 277
292 291 292 291 291 291 291 289 289 290 289 289 288 287 285 284 285 284 284 283 283 283 283 283 282 282 280 279 279 279 277 276 275 274 274 274 274 273 274 274 274 274 275
291 291 290 290 291 290 288 288 289 289 288 288 288 287 285 284 285 285 284 283 282 283 283 282 282 282 280 279 279 278 277 275 274 273 273 273 273 273 273 273 273 273 273

GFSMW_925_thetae_030.txt.gz
Theta_e
313 316 320 325 327 328 328 327 326 319 316 313 313 313 311 311 310 310 309 309 308 306 306 304 301 298 296 295 295 296 298 298 298 298 297 297 302 298 298 296 297 296 297
313 315 316 321 322 323 325 326 322 316 314 313 313 313 311 310 309 308 307 306 306 305 304 301 298 297 297 295 294 296 296 297 298 297 297 296 297 298 295 296 295 296 295
314 314 316 315 316 315 314 314 313 313 313 314 313 312 311 308 307 306 306 306 306 304 301 298 297 297 296 295 296 296 296 296 296 295 297 295 295 295 295 294 295 294 294
314 315 314 312 312 312 313 313 313 313 313 313 313 313 311 310 307 306 305 305 303 301 299 298 298 297 294 293 294 295 294 295 294 294 295 294 295 294 294 294 294 293 293
314 312 312 312 313 313 313 314 314 313 313 313 312 312 311 309 306 306 306 304 301 300 299 298 298 297 294 294 295 295 295 295 294 293 294 293 292 293 294 294 293 293 292
313 312 312 313 313 313 314 314 313 313 313 312 311 311 310 308 306 305 304 302 301 300 299 298 298 296 294 295 295 294 293 293 293 292 293 292 292 292 293 292 291 291 291
311 311 312 312 312 311 312 312 312 312 311 310 309 308 307 305 304 303 302 301 300 299 299 298 298 297 294 295 295 294 294 293 293 292 292 291 292 292 292 291 290 291 289
311 312 313 312 312 311 311 311 311 310 309 308 307 305 304 303 303 302 301 300 300 299 299 299 298 295 294 295 295 295 293 292 291 291 291 291 291 289 287 289 289 288 288
310 309 310 310 310 309 308 309 309 308 307 306 304 303 303 302 302 301 300 300 299 299 299 298 296 294 294 294 293 293 293 291 291 290 290 290 289 286 286 286 285 287 286
307 306 307 308 308 307 306 306 307 306 305 304 303 302 301 300 299 298 298 298 298 298 298 297 296 295 294 293 292 291 290 289 289 289 288 288 286 286 286 285 284 283 285
306 305 305 306 305 304 303 304 304 303 302 302 302 301 300 298 296 296 295 293 294 295 296 297 295 295 293 293 290 290 289 288 288 287 286 286 285 285 284 283 281 281 282
304 304 305 304 303 302 303 303 302 301 299 300 300 296 296 295 294 294 294 295 294 294 294 295 294 293 294 292 289 289 288 288 287 286 285 285 284 283 282 281 281 281 281
303 303 303 303 302 301 302 301 299 298 297 296 295 295 295 294 294 293 292 292 292 293 294 293 293 292 289 289 289 289 287 286 285 285 284 283 283 282 282 281 281 281 281
303 302 302 302 301 300 299 298 297 296 295 295 295 295 294 293 292 292 291 291 291 293 294 293 292 291 289 289 288 286 286 285 285 284 284 283 283 282 282 282 281 281 281
304 303 302 302 301 301 298 296 296 295 295 294 294 295 293 293 292 291 291 291 292 292 292 292 290 289 288 287 286 285 285 284 283 283 283 282 281 282 281 281 280 280 280
304 302 302 302 301 297 296 295 295 294 294 293 294 294 292 292 291 290 291 291 290 290 290 290 288 287 286 285 284 284 283 282 281 280 279 278 278 279 279 279 279 280 280
303 302 302 299 297 296 295 294 294 294 293 293 294 292 292 291 290 290 291 289 290 290 289 288 286 285 284 284 283 282 281 280 279 278 277 277 278 278 278 278 279 279 280
302 301 297 296 296 295 294 294 293 293 293 293 292 292 291 290 290 290 290 291 289 289 288 286 285 284 283 281 281 281 280 278 277 277 277 277 278 278 279 280 281 280 280
301 299 296 296 295 294 293 293 293 292 293 292 292 291 290 289 289 288 289 290 291 290 287 285 284 283 281 280 279 279 278 277 277 277 277 278 278 278 280 280 280 280 280
298 294 294 294 293 293 293 293 293 293 292 292 291 291 290 289 288 288 288 289 290 288 286 284 283 282 281 279 279 279 278 277 277 277 277 277 278 279 279 279 278 279 280
293 293 293 293 293 293 293 293 292 292 292 291 291 290 289 288 287 287 288 288 288 286 284 283 282 281 280 279 278 279 278 278 278 277 276 277 277 278 278 278 278 279 278
293 293 293 292 292 292 292 292 291 292 291 291 290 289 289 288 287 286 286 286 286 284 284 283 282 281 280 279 278 279 278 278 277 276 275 276 277 277 277 277 277 277 277
292 292 292 292 292 292 292 291 291 291 290 289 289 288 288 287 285 285 285 284 284 284 283 282 282 282 280 279 278 278 278 277 276 275 275 275 275 275 275 275 276 276 276
292 292 291 291 291 291 291 291 290 288 289 289 289 288 288 287 284 285 284 284 283 283 282 282 282 282 281 279 279 279 278 276 276 274 274 274 274 273 273 273 274 274 274
291 291 291 290 290 290 290 289 288 288 289 288 288 288 288 286 284 285 284 284 283 283 282 283 282 282 282 280 279 279 278 276 275 273 273 273 273 272 272 272 272 272 272
290 290 289 289 289 289 288 288 288 288 288 288 287 287 287 286 284 284 284 284 283 282 282 282 282 282 281 280 279 278 277 276 274 273 272 272 272 271 271 271 271 270 270

GFSMW_925_thetae_033.txt.gz
Theta_e
317 319 321 322 324 324 324 325 325 325 324 322 312 309 310 309 308 307 307 306 306 306 304 300 297 297 296 294 294 297 298 297 297 298 297 298 302 299 298 297 296 296 296
321 319 320 323 325 325 326 325 326 324 319 313 311 312 310 308 307 306 305 306 305 302 300 298 297 297 296 293 293 295 296 297 297 296 297 298 297 298 295 296 295 296 294
322 320 321 323 323 323 324 322 322 318 314 312 311 310 308 306 305 304 305 306 302 301 299 298 298 297 296 296 294 295 296 295 296 295 295 296 296 295 295 294 295 294 294
319 318 317 316 316 319 320 319 315 313 312 311 311 311 310 310 307 306 307 303 302 301 299 298 298 298 297 295 296 296 296 296 295 294 295 294 294 294 294 293 293 294 293
318 316 313 312 311 311 312 312 312 311 311 311 311 311 310 309 307 307 305 302 302 301 299 299 298 298 297 295 295 297 296 296 295 294 293 293 293 292 293 293 291 291 291
316 314 313 312 312 311 312 312 312 312 312 311 311 310 309 308 306 303 302 302 301 300 299 299 298 298 297 296 297 297 296 295 294 294 293 293 292 291 291 292 290 290 290
316 315 314 313 312 312 312 313 313 312 311 310 310 308 306 304 303 302 302 301 301 300 299 299 298 298 297 295 296 296 295 295 294 293 292 292 292 292 292 290 290 290 289
316 315 314 314 313 311 311 312 311 311 309 309 307 304 303 303 303 302 301 301 300 299 299 298 298 298 296 294 295 295 295 295 295 293 293 292 292 291 290 289 289 290 289
316 315 314 313 312 310 310 310 309 309 308 306 304 303 303 302 301 300 298 297 297 295 294 294 295 297 296 295 295 295 294 293 293 292 291 291 290 289 288 287 287 287 289
315 314 312 310 309 308 307 307 307 307 305 304 303 302 301 299 297 295 295 293 293 293 293 293 294 296 295 294 294 293 292 291 291 290 290 289 288 287 287 287 286 285 285
313 311 309 308 306 304 303 305 305 303 302 301 301 299 296 295 294 294 293 293 293 292 292 294 295 295 294 293 293 293 291 289 289 288 288 287 287 286 286 285 284 284 284
310 308 306 305 303 302 302 303 301 300 299 299 297 296 295 294 294 293 292 292 292 292 292 293 294 293 293 293 291 289 290 289 288 287 286 286 286 285 285 284 284 283 283
308 307 305 304 303 301 301 300 300 298 297 296 295 294 294 294 293 292 292 291 292 292 293 293 293 292 290 290 290 289 289 286 286 286 286 285 284 284 284 283 283 282 282
307 307 305 303 301 300 300 299 298 296 296 295 294 294 294 293 292 292 291 290 291 292 292 292 291 290 290 289 288 287 286 286 285 285 284 283 283 282 282 282 282 282 282
306 306 305 303 302 301 299 297 296 295 294 294 294 294 294 292 292 291 290 290 290 291 291 290 290 288 287 286 287 286 285 284 283 282 281 280 280 280 280 280 280 280 280
307 305 303 302 302 299 297 296 295 294 294 293 293 294 292 292 291 290 290 290 290 290 290 289 288 286 286 285 284 284 284 282 281 280 280 279 279 279 279 279 279 279 280
306 304 303 302 300 296 295 294 294 294 293 292 294 293 292 291 290 290 290 290 291 289 289 288 286 285 285 283 282 281 282 280 280 279 279 279 279 279 279 279 280 281 281
305 304 301 298 296 295 294 294 293 293 293 293 292 292 291 291 290 289 289 289 290 290 289 286 285 284 283 282 281 280 280 280 279 279 279 279 279 279 279 280 280 280 280
304 302 298 296 294 294 294 293 293 293 292 292 292 292 291 290 289 289 288 288 289 290 289 286 284 283 282 281 280 280 280 279 279 279 279 278 278 278 279 279 280 279 279
301 296 294 294 293 293 293 293 292 292 292 292 291 291 290 289 289 288 287 288 289 289 287 285 284 283 282 281 279 279 280 280 279 279 278 278 277 278 278 278 279 279 279
294 293 293 293 293 293 293 292 292 291 291 291 290 290 289 289 288 287 286 286 287 286 285 284 283 282 281 280 279 279 280 279 279 278 277 277 277 277 277 277 278 278 277
293 293 293 292 292 292 292 291 291 291 291 290 289 289 289 288 288 287 286 285 285 285 284 284 283 282 281 281 279 278 279 279 278 278 276 276 276 276 275 276 276 276 276
293 292 292 292 291 291 291 291 291 291 289 288 289 288 288 288 287 286 285 285 284 284 284 283 283 283 282 281 280 279 278 278 277 277 275 274 274 274 275 274 275 275 275
292 291 291 291 291 290 290 290 290 288 288 288 289 288 288 287 287 286 285 284 284 284 283 283 283 283 282 281 280 279 280 278 277 276 274 273 273 273 274 274 274 274 273
291 291 291 290 289 289 289 289 288 288 287 288 288 288 288 287 287 285 285 284 284 284 283 283 283 283 282 282 280 279 280 278 277 275 274 274 273 273 274 274 273 272 272
290 290 290 289 289 288 288 287 287 287 287 288 288 288 288 287 286 285 285 284 284 283 282 282 282 282 282 282 281 280 279 277 276 275 275 274 273 273 273 273 273 272 271

GFSMW_925_thetae_036.txt.gz
Theta_e
324 326 328 328 329 329 328 327 325 324 325 317 321 314 311 309 310 309 309 309 309 306 304 303 303 302 301 301 300 299 299 299 300 299 298 298 300 301 300 299 298 298 298
327 328 329 329 328 327 328 326 325 325 323 321 317 315 314 312 311 309 309 309 306 304 303 302 302 301 300 301 301 300 300 299 299 299 298 300 299 299 299 297 298 297 297
329 330 330 331 329 329 328 327 327 326 322 317 316 314 312 311 310 309 309 307 305 304 303 302 301 302 301 300 301 300 300 299 298 298 298 300 299 297 296 296 296 296 296
330 331 329 329 329 328 327 326 323 321 318 316 314 313 315 314 312 311 309 306 305 304 302 302 302 302 301 301 300 299 300 299 298 297 296 296 296 297 297 295 294 294 293
328 326 323 323 323 324 323 321 319 317 315 314 315 315 314 313 311 310 307 306 305 304 303 302 302 302 301 301 301 300 299 298 297 297 295 295 294 294 294 295 294 293 292
324 321 318 317 317 317 317 316 315 315 315 315 314 314 313 311 309 307 305 304 303 303 302 302 302 302 302 301 301 300 298 298 297 296 295 294 294 293 293 293 293 293 292
322 319 318 317 316 317 317 317 316 315 315 314 313 312 309 307 306 306 304 304 303 303 302 302 301 300 300 300 299 299 298 297 297 296 295 294 293 293 292 292 292 292 291
321 319 318 318 317 317 317 316 316 314 313 311 310 308 307 306 305 305 304 303 302 301 299 298 297 297 297 297 298 298 297 296 295 295 295 293 292 291 291 290 290 292 291
321 320 318 318 317 317 316 316 314 312 309 308 307 306 305 305 304 303 301 299 298 297 296 296 295 295 295 296 297 297 297 295 294 294 294 292 291 291 290 290 290 289 291
321 320 319 318 317 316 314 313 311 309 306 305 305 304 303 302 300 299 298 297 296 295 295 294 294 295 295 296 296 296 296 295 293 293 292 291 290 290 289 289 289 288 288
321 320 318 317 315 312 311 310 308 306 305 304 303 303 300 299 298 297 296 296 295 295 294 294 294 294 295 295 295 294 294 293 292 292 291 290 290 289 288 288 288 287 287
320 319 316 314 311 310 308 306 305 303 301 302 301 300 298 298 297 296 295 295 295 294 294 294 294 294 294 294 293 292 292 291 291 291 290 289 289 288 288 287 287 286 286
318 317 314 312 310 307 305 303 301 301 301 300 299 298 298 297 296 296 295 295 294 293 294 293 293 293 293 293 292 291 291 290 289 289 288 288 287 286 286 285 285 285 284
316 315 313 311 308 305 303 302 302 300 299 298 298 298 297 297 296 295 295 293 293 293 293 293 292 292 292 291 290 289 289 289 288 287 286 285 284 284 283 283 283 283 283
315 314 313 310 307 304 304 303 301 300 298 297 297 297 297 296 295 295 294 293 293 293 293 292 292 291 290 289 289 289 288 288 286 285 284 283 282 280 280 281 281 281 282
314 313 312 309 307 305 304 301 299 298 297 297 296 296 296 295 295 294 293 293 293 293 292 292 291 290 289 286 285 285 286 286 285 284 283 283 282 282 280 281 280 280 281
314 312 311 307 306 304 301 299 297 297 296 295 295 296 295 294 293 292 292 292 292 292 292 291 291 290 289 285 283 283 284 284 283 283 282 282 282 281 281 280 280 282 281
313 312 309 306 304 300 299 297 296 296 295 295 295 294 294 293 293 292 292 292 291 292 291 291 290 289 288 284 282 282 283 284 283 282 282 282 281 281 279 280 280 281 281
312 310 307 303 300 298 297 296 296 295 294 294 294 293 293 293 292 292 292 291 291 291 291 290 290 289 287 284 282 281 283 284 283 282 282 281 280 279 278 279 280 280 280
311 307 301 299 297 297 296 296 295 294 293 293 293 293 292 292 292 292 291 290 290 290 290 290 289 287 286 284 281 281 282 283 282 282 281 280 278 277 278 278 279 280 280
306 299 297 296 296 295 295 295 294 293 293 293 292 292 291 291 291 291 290 290 289 289 289 288 287 287 285 285 282 280 281 282 282 281 281 280 278 277 277 276 278 278 277
298 297 296 296 295 294 294 293 293 293 293 292 291 291 291 291 290 290 290 289 289 288 288 286 286 286 285 284 282 281 279 280 280 280 280 279 276 276 275 276 275 276 276
296 297 298 295 294 293 292 292 293 292 292 291 291 291 291 290 290 290 289 289 288 288 287 286 286 285 285 284 283 281 279 279 279 279 278 276 275 275 276 276 275 276 277
297 295 295 294 293 292 291 292 292 291 290 290 290 291 291 290 289 289 288 288 288 287 286 286 285 285 284 284 284 283 282 281 280 280 278 277 275 276 276 277 277 276 275
294 295 294 293 292 291 291 291 290 290 290 290 290 290 290 290 289 289 288 288 287 286 286 285 285 284 284 284 283 282 282 281 280 278 278 279 278 278 277 277 277 276 275
295 293 292 291 291 291 290 290 289 289 289 289 290 290 290 289 289 288 288 287 286 285 284 283 283 283 283 282 282 281 281 280 278 278 280 280 279 278 277 277 277 276 276

GFSMW_925_thetae_039.txt.gz
Theta_e
326 327 328 327 327 332 331 329 328 325 322 319 319 318 317 312 312 311 312 312 312 309 308 307 306 305 304 303 303 303 302 302 301 300 301 300 300 301 301 301 300 300 299
329 329 330 330 330 332 330 330 328 325 327 320 322 321 317 315 315 313 313 312 310 308 306 306 305 304 303 303 302 303 302 302 300 300 300 301 299 300 300 299 298 298 298
330 331 331 331 331 330 329 330 328 327 325 324 320 318 317 315 314 313 313 311 308 307 306 305 304 303 303 303 303 302 302 301 300 299 299 301 300 298 298 297 297 297 297
330 331 332 332 331 331 331 328 326 325 323 319 318 317 316 315 315 314 313 311 308 307 305 304 304 304 303 303 302 302 301 300 300 299 298 298 298 298 297 296 296 295 295
331 333 333 332 331 329 328 326 325 322 319 318 317 317 317 317 315 314 313 310 308 306 305 304 304 304 303 302 302 302 301 301 300 299 298 298 297 296 296 297 295 294 294
331 329 329 327 325 326 325 323 321 319 318 317 318 317 316 314 313 312 309 307 305 304 304 304 304 303 302 301 300 300 299 300 300 299 298 297 296 296 295 296 294 294 293
329 326 325 323 323 323 322 320 319 318 317 318 317 315 314 311 309 308 306 305 304 303 303 303 301 299 298 298 298 298 299 300 299 298 297 296 296 295 294 294 294 294 292
327 324 321 320 320 320 320 319 318 318 318 316 314 312 309 307 307 306 305 303 303 301 300 298 298 297 297 296 297 297 298 298 298 297 296 295 295 294 293 293 292 293 292
325 322 320 320 320 320 320 319 318 317 315 313 310 308 306 306 305 304 303 301 300 299 297 297 296 296 296 296 296 296 297 298 297 297 295 295 295 293 293 292 291 291 293
324 322 321 320 320 320 320 319 317 315 312 310 308 306 306 305 303 301 301 300 298 297 296 296 295 296 296 296 296 297 297 296 296 295 294 293 293 292 292 291 290 290 290
324 323 322 321 320 320 318 317 315 311 310 307 306 305 304 302 301 300 299 298 297 296 295 295 295 295 295 296 296 295 295 294 294 293 293 292 292 291 290 290 289 289 289
324 323 322 321 320 318 317 314 311 309 307 304 303 304 302 301 300 299 298 297 296 295 295 295 295 295 294 294 294 294 292 292 292 292 291 290 290 289 289 288 288 288 287
324 323 322 321 319 316 314 311 309 306 304 303 303 302 301 300 300 298 297 297 296 295 295 295 295 294 293 293 293 292 292 291 291 290 289 289 288 288 287 286 286 285 285
323 323 322 320 317 315 312 309 306 304 304 303 302 301 300 300 298 297 297 296 295 295 295 294 294 293 293 292 292 291 291 290 289 289 288 287 286 286 285 283 284 284 284
322 321 320 319 316 313 310 307 306 304 303 302 300 300 299 298 297 297 296 295 295 295 294 294 293 293 292 291 290 289 289 288 288 287 287 286 285 283 282 282 282 282 282
321 319 318 317 314 311 308 308 306 303 301 300 300 298 297 297 296 296 295 294 294 294 294 294 293 292 291 289 288 286 287 287 287 286 286 285 284 284 283 282 281 281 281
319 319 318 316 313 310 308 306 303 301 300 299 298 297 297 296 295 295 294 294 294 294 293 293 292 292 291 289 287 285 285 286 286 286 285 285 284 284 283 282 281 281 281
318 318 316 314 312 309 306 302 302 300 299 298 296 296 296 295 294 294 294 294 294 293 293 293 292 291 290 289 287 285 284 286 286 285 285 284 284 282 280 280 280 281 281
317 316 315 313 310 305 302 301 299 298 297 296 295 295 294 294 294 294 294 294 293 292 292 292 291 291 290 288 286 284 284 285 285 285 284 283 282 281 279 278 280 280 280
315 315 313 310 306 302 300 299 299 298 296 295 294 294 294 293 293 293 293 293 292 292 291 291 291 291 289 287 286 285 283 284 284 284 284 283 281 279 278 278 278 279 280
314 313 309 304 302 300 299 300 298 296 294 294 294 293 293 292 292 292 292 292 292 291 290 290 289 289 288 287 285 284 282 283 283 283 283 283 281 279 277 277 277 278 277
310 305 303 300 298 299 298 297 296 294 294 293 293 293 292 292 292 292 292 292 291 291 290 289 288 288 287 287 285 284 282 281 281 282 282 282 279 277 277 277 277 276 277
303 301 299 299 297 295 295 293 293 294 293 293 292 292 292 292 292 291 291 291 290 290 290 289 288 288 287 287 285 284 283 281 281 282 281 279 279 278 278 278 277 277 279
301 300 298 296 296 294 293 293 293 292 292 291 292 292 292 292 292 291 291 290 289 289 289 288 287 287 286 286 286 285 283 282 282 282 282 280 280 280 279 279 280 279 279
297 296 296 295 294 293 292 292 292 291 291 291 291 291 291 292 292 291 291 290 289 288 288 288 287 287 286 285 285 285 284 284 283 281 280 281 282 281 281 280 280 279 279
295 294 294 293 293 292 292 291 291 291 291 291 291 291 291 291 291 290 289 289 288 288 287 286 285 284 284 284 283 282 282 282 281 280 281 282 282 282 281 281 280 280 279

GFSMW_925_thetae_042.txt.gz
Theta_e
323 324 325 324 330 333 330 329 327 324 321 320 318 318 316 317 313 313 311 312 313 310 309 308 306 306 305 304 303 303 303 303 302 302 301 301 300 299 300 299 298 298 299
324 328 328 327 333 333 332 329 327 326 324 323 320 319 318 315 314 313 313 313 311 309 307 307 306 305 304 303 304 303 303 303 302 301 301 299 299 300 299 298 297 296 297
329 330 330 330 329 334 331 330 328 326 326 322 324 322 317 316 316 314 314 313 310 308 307 306 304 304 304 304 303 303 303 303 302 301 302 299 298 298 298 297 296 296 295
330 330 331 331 333 333 331 330 329 327 327 325 321 319 317 316 315 314 314 311 309 309 307 305 305 304 304 303 303 303 302 302 302 301 300 299 299 297 297 296 296 295 295
330 330 332 333 331 330 330 331 329 326 324 320 318 317 318 316 315 314 314 312 310 309 307 305 305 304 304 303 302 302 301 301 301 301 300 299 298 298 297 295 295 295 294
330 331 333 333 331 331 331 329 326 325 320 319 318 317 318 315 314 313 312 310 308 305 304 304 304 303 300 299 298 298 298 298 299 300 300 299 298 297 297 295 295 294 294
331 332 332 332 330 328 328 327 324 320 319 318 318 318 316 314 310 310 309 307 305 304 303 302 300 299 298 297 297 297 298 298 298 299 299 298 296 296 296 295 294 293 293
331 329 329 327 327 326 324 323 321 319 319 318 318 316 313 310 308 308 307 305 303 302 300 299 298 297 296 296 296 296 297 297 299 298 298 297 296 295 295 294 293 291 292
329 327 326 324 324 323 322 320 319 319 318 317 315 311 309 307 307 305 304 303 301 300 298 297 297 296 296 296 296 297 297 297 297 296 296 295 294 294 293 293 292 292 291
327 325 322 322 321 321 321 320 320 318 317 314 311 309 308 306 304 304 302 301 300 298 297 296 296 296 296 296 296 296 296 295 295 295 294 294 293 293 292 292 292 291 291
327 324 322 321 321 321 322 321 320 317 314 311 310 307 306 304 303 302 300 299 298 297 296 296 295 296 296 295 294 294 294 293 293 293 292 292 292 291 291 290 289 289 288
326 324 322 322 322 321 321 320 319 315 312 310 307 305 304 303 302 301 300 298 297 297 296 295 295 295 295 294 293 293 293 293 292 292 291 290 290 289 288 287 287 286 285
326 324 323 322 322 321 320 319 316 312 310 306 305 304 304 302 301 300 298 298 297 296 295 295 295 295 294 293 293 292 292 292 291 290 289 289 288 287 286 285 284 284 284
324 324 323 323 322 321 319 316 312 310 306 305 305 303 302 301 300 299 298 297 296 295 295 295 295 294 293 293 293 292 291 289 289 288 288 287 287 286 285 284 283 283 282
323 323 324 322 321 319 317 313 311 307 306 305 303 302 300 300 299 298 297 297 296 295 295 295 295 294 293 293 291 290 288 288 288 287 287 287 286 285 284 283 282 282 282
321 322 322 322 320 318 314 312 308 307 305 304 302 300 299 298 298 297 297 296 295 295 295 294 294 293 293 291 290 289 288 287 286 287 286 286 285 284 284 283 282 281 281
318 321 320 320 318 316 313 310 308 306 303 301 300 299 298 298 297 296 295 294 294 294 294 294 294 293 292 291 290 289 287 286 286 286 286 285 285 284 283 282 281 280 280
317 318 319 318 317 314 311 309 306 302 300 300 299 297 297 296 296 295 294 294 294 294 293 293 293 292 292 291 290 288 286 285 286 286 285 285 284 283 282 281 279 279 280
317 317 317 316 315 312 308 305 302 301 299 298 297 296 295 295 294 294 294 294 294 293 293 292 292 292 292 289 289 287 286 285 285 285 285 284 284 283 282 280 277 278 278
315 315 316 314 311 306 303 302 300 299 298 295 295 295 294 294 293 293 293 293 293 293 292 292 291 291 291 289 287 286 285 284 284 284 284 284 282 281 280 278 277 277 278
315 314 311 308 304 302 300 300 298 297 296 295 294 294 294 293 293 293 292 292 292 292 292 291 290 290 289 289 288 287 285 284 283 283 282 283 282 281 280 278 277 277 278
309 307 303 300 298 298 297 296 296 295 294 294 294 293 293 292 292 292 292 292 292 292 291 291 290 289 288 287 287 287 285 284 282 281 282 282 282 280 279 278 278 278 278
304 302 299 298 296 295 294 294 294 294 294 293 292 292 292 292 292 292 292 292 291 290 290 290 289 289 289 288 288 287 285 284 282 282 281 281 281 280 280 280 279 279 279
300 298 297 297 296 294 293 294 293 292 292 292 292 292 292 292 292 292 292 292 292 290 290 289 289 288 288 287 287 286 285 284 282 282 282 282 281 281 281 281 281 280 279
296 296 295 294 294 294 294 293 292 292 292 291 291 292 291 291 292 292 292 291 290 289 289 289 289 288 288 287 286 285 286 285 284 283 282 281 281 283 282 281 281 280 280
295 294 294 294 294 294 293 292 292 291 291 291 291 291 291 291 291 290 290 289 289 289 289 288 288 287 287 286 285 284 284 283 282 281 281 281 281 283 282 281 281 281 280

GFSMW_925_thetae_048.txt.gz
Theta_e
326 325 324 324 323 324 326 326 329 328 327 324 322 319 318 318 317 317 316 314 312 311 309 307 306 305 304 303 303 303 302 302 302 301 301 300 300 299 299 298 298 297 296
323 324 324 323 326 326 327 327 329 327 326 325 324 321 320 318 317 314 312 311 311 309 308 307 305 305 304 303 303 303 302 302 302 302 300 297 299 298 299 299 298 298 296
323 322 325 327 327 326 327 328 328 328 326 325 321 320 318 316 313 312 312 312 310 309 308 307 307 305 304 304 303 302 301 300 299 298 299 297 296 295 299 298 298 296 297
322 323 327 328 327 326 326 327 327 327 324 321 320 319 316 313 313 312 312 312 309 309 307 306 304 304 304 303 302 300 298 297 297 297 297 297 299 295 296 297 297 297 295
321 325 328 329 328 327 326 327 327 325 323 321 322 318 317 317 314 313 313 312 310 309 307 305 305 304 303 301 299 297 296 296 296 296 297 298 299 298 295 294 294 295 296
321 322 329 329 328 327 327 327 327 325 325 322 323 321 318 315 314 313 313 311 309 308 307 306 304 303 301 299 297 296 295 295 295 296 297 298 298 297 297 296 295 293 294
323 323 328 329 328 327 327 328 326 326 326 324 322 322 316 316 315 314 313 310 308 305 303 302 301 299 297 296 295 295 295 296 297 296 297 297 297 297 297 295 295 292 292
324 325 328 330 329 328 328 327 327 327 325 326 324 322 317 316 315 314 313 309 304 303 301 302 299 297 296 295 295 295 296 296 295 295 295 295 295 294 295 294 293 292 290
325 327 327 328 329 328 328 328 327 326 326 326 322 319 315 314 313 311 306 305 303 302 299 297 297 296 296 295 295 296 295 294 293 294 294 293 293 293 293 292 292 292 289
325 326 326 326 327 328 328 328 329 328 324 320 317 314 311 310 308 306 304 303 301 299 300 300 297 296 295 295 295 295 293 292 293 292 292 292 292 290 289 288 288 287 286
323 324 323 325 328 328 327 326 323 322 320 317 314 311 309 306 304 303 302 301 301 302 300 297 296 295 295 295 295 294 292 291 293 292 291 290 289 289 288 287 287 286 284
321 322 322 322 323 324 320 319 319 319 318 316 311 307 305 304 304 303 301 301 301 300 298 297 296 295 295 295 294 294 292 292 292 291 289 288 288 287 287 286 285 284 283
320 319 320 321 321 320 321 320 318 318 317 311 308 306 305 305 306 303 301 301 300 297 296 296 295 295 295 295 294 293 292 293 292 290 288 288 287 287 286 285 284 283 283
321 319 318 320 320 320 319 317 316 314 309 307 307 306 306 305 302 301 301 299 297 296 296 296 294 294 295 294 293 293 292 292 291 289 288 288 286 286 285 285 283 283 283
320 319 317 315 317 319 319 315 312 309 308 308 306 306 304 302 301 300 298 299 297 296 296 294 294 295 294 294 293 293 292 291 289 288 288 286 286 286 285 284 283 283 282
317 317 317 317 317 317 314 311 309 308 308 307 305 304 301 299 299 300 298 297 296 295 294 294 294 294 294 293 293 292 291 290 289 288 286 286 286 285 285 284 283 282 281
315 318 317 317 316 315 313 308 307 306 305 303 301 299 299 299 298 296 295 295 295 294 294 294 294 294 293 293 293 292 291 290 288 287 286 285 285 284 284 283 282 282 281
312 312 313 313 313 312 308 306 305 303 299 298 297 297 296 295 295 295 296 294 294 294 294 293 294 293 292 292 293 292 291 289 287 286 286 285 285 284 283 282 282 281 281
304 302 303 303 304 304 303 301 298 297 296 295 295 295 295 295 296 296 294 294 293 293 293 292 293 292 292 292 292 291 290 289 288 287 285 284 284 284 283 282 281 281 280
298 298 298 298 298 297 297 296 295 295 295 294 295 295 297 298 297 294 293 293 292 292 292 292 292 291 291 291 291 290 289 288 288 286 285 284 283 283 282 282 281 280 278
296 296 295 295 296 296 295 295 294 295 296 297 298 299 297 294 293 293 293 292 292 292 292 292 291 291 291 291 290 289 288 288 287 286 285 283 283 282 282 282 281 280 279
295 295 295 295 295 296 296 295 296 297 298 298 295 294 293 293 293 292 291 292 292 292 292 291 291 291 290 290 289 289 288 288 287 286 285 284 282 281 282 282 281 280 280
295 294 294 295 295 295 296 295 294 294 294 293 293 292 292 291 291 291 291 291 291 291 291 291 290 290 290 289 289 289 288 288 287 287 286 285 283 282 281 282 281 281 281
296 295 294 294 293 293 293 293 293 293 292 292 291 291 291 291 291 291 291 291 291 291 290 289 289 289 289 288 288 288 288 287 287 286 286 285 283 282 282 282 281 281 281
294 294 293 294 294 294 293 293 292 292 292 291 291 291 290 290 290 289 290 291 290 290 290 289 288 288 288 288 287 288 288 287 287 286 285 284 283 282 282 281 281 282 281
294 294 294 294 293 292 292 291 291 291 291 291 291 291 291 290 290 289 289 290 290 290 290 289 289 289 288 287 287 287 287 287 286 285 283 282 283 282 282 281 280 281 282

GFSMW_925_thetae_051.txt.gz
Theta_e
331 329 328 328 327 325 325 327 325 323 325 327 326 325 323 321 319 319 320 319 317 313 309 308 306 305 305 304 303 302 302 302 301 301 300 299 299 299 298 299 299 298 298
329 329 327 325 326 324 325 326 326 327 327 327 325 322 320 318 317 317 315 314 313 310 308 307 307 306 305 303 303 303 302 302 300 299 298 296 298 298 298 298 298 298 296
328 327 323 323 323 324 325 326 327 327 327 326 324 320 318 317 315 314 313 313 311 310 309 307 306 305 304 303 303 302 300 299 298 297 297 295 295 295 298 298 298 297 296
325 324 323 322 323 324 324 325 326 327 326 325 323 321 319 317 317 316 313 311 311 309 307 306 305 304 304 303 301 299 297 296 296 296 297 297 297 295 294 297 297 297 296
323 323 323 322 324 324 324 324 324 325 325 325 323 320 319 319 318 315 312 312 310 308 307 306 305 304 304 300 298 297 296 295 295 295 296 296 297 297 294 292 294 295 294
321 321 323 324 325 325 324 324 324 325 326 324 322 320 320 318 315 313 311 312 310 307 306 304 304 302 300 299 297 296 295 295 295 296 297 297 297 297 296 293 295 295 293
318 320 323 326 326 325 324 324 323 323 324 323 321 320 321 317 316 313 312 311 308 306 304 302 301 300 297 296 295 295 295 295 296 296 295 295 295 296 296 296 294 293 292
319 322 326 327 327 326 325 325 324 324 323 323 322 322 321 319 316 313 312 312 308 304 301 302 302 296 297 300 297 294 295 295 294 293 294 294 294 293 294 294 293 292 289
319 323 326 327 327 326 326 326 325 325 325 324 324 323 322 320 315 314 313 310 305 302 303 299 298 301 302 296 295 295 294 293 292 293 293 292 292 292 292 292 292 291 286
320 322 326 328 327 327 327 326 327 327 326 326 325 324 322 318 315 312 310 305 302 303 302 301 301 298 296 295 295 294 294 293 291 292 291 291 291 291 290 289 288 288 288
323 324 324 327 327 327 327 327 327 327 326 325 323 322 317 314 311 309 305 303 302 302 302 300 299 296 295 295 295 294 294 293 292 291 291 291 290 289 288 288 287 286 285
323 324 324 324 326 326 327 327 328 326 325 323 321 315 312 309 305 304 302 302 305 302 299 299 296 295 295 294 294 294 294 293 292 292 292 290 288 288 287 287 286 285 284
321 322 321 322 323 323 323 322 322 321 320 317 311 308 306 304 303 302 303 306 301 300 298 295 296 295 294 294 294 294 294 293 292 292 291 289 288 287 288 286 285 284 283
320 318 320 320 323 322 320 319 316 316 314 310 307 305 304 304 303 306 303 301 300 297 296 296 295 294 294 294 294 294 293 293 292 292 289 288 289 288 286 285 285 284 283
319 318 316 317 319 319 318 315 314 312 310 306 306 305 305 306 306 300 300 298 297 297 296 295 294 294 294 294 294 294 293 293 292 290 289 288 288 286 286 285 285 283 283
317 317 316 315 316 317 314 311 310 308 308 307 306 306 305 302 300 298 299 299 296 295 295 295 294 294 294 294 293 293 293 292 291 290 288 287 286 286 285 285 284 283 282
315 316 315 314 315 314 312 309 308 308 307 306 304 303 300 298 297 295 295 295 297 298 296 294 294 294 294 293 293 292 292 291 291 289 288 287 286 286 285 284 283 282 281
307 306 309 309 310 309 308 306 306 304 302 299 298 298 296 295 296 297 299 299 298 296 294 293 293 293 293 293 292 292 292 291 290 289 288 287 287 285 284 284 282 282 281
298 298 300 301 302 302 301 300 298 297 296 295 295 295 296 298 299 298 298 296 294 293 293 292 292 291 291 292 292 292 292 291 290 289 287 287 286 285 284 283 282 281 281
296 296 296 296 297 296 296 295 294 294 294 295 296 298 299 299 298 296 293 293 292 292 292 292 292 291 291 291 291 291 291 290 289 288 288 287 285 284 283 282 281 281 281
295 295 295 294 294 295 295 295 295 296 297 297 298 299 298 295 293 293 292 292 292 291 291 291 292 291 291 291 291 291 290 289 289 288 287 287 286 284 283 282 281 281 280
295 295 295 294 295 296 297 297 297 298 298 296 295 295 293 293 292 292 291 291 291 291 291 291 291 291 291 291 290 290 290 289 288 288 287 287 286 285 283 282 281 282 281
294 294 294 294 295 295 295 294 294 294 293 293 292 292 291 291 291 291 291 291 291 290 290 291 291 291 290 290 289 289 289 289 288 288 288 287 286 285 283 282 282 281 281
294 294 294 293 293 293 293 293 293 292 292 291 291 291 290 290 290 290 290 289 289 290 291 290 290 290 290 289 288 288 288 288 288 288 288 287 286 285 283 282 282 282 281
293 293 293 293 292 291 290 290 290 291 290 290 290 290 290 290 289 289 289 289 290 289 289 289 289 288 288 289 289 288 288 287 287 287 287 286 285 283 283 282 282 282 281
293 292 291 290 289 290 290 290 290 290 290 290 289 289 288 287 287 287 288 288 288 288 288 288 288 289 289 289 289 289 288 287 287 286 285 283 283 282 282 282 282 282 281

GFSMW_925_thetae_054.txt.gz
Theta_e
327 327 326 326 325 328 328 326 328 325 321 322 323 325 326 326 325 323 322 321 319 316 314 311 307 306 305 304 302 302 302 301 300 300 299 299 299 298 298 298 298 297 298
329 328 327 327 326 327 327 326 327 327 324 322 323 325 326 324 321 320 319 318 317 315 311 309 307 305 305 303 303 303 302 301 298 297 297 295 296 298 298 297 298 297 296
330 329 327 326 326 326 327 326 327 328 325 323 324 324 323 320 317 317 317 317 314 311 309 307 306 305 304 303 303 302 301 299 297 296 295 292 293 294 296 297 297 297 297
329 328 327 325 325 325 326 326 325 326 323 323 324 324 323 318 317 317 316 315 312 310 308 306 305 304 304 303 302 299 297 296 295 295 296 296 296 294 294 297 297 297 295
326 328 327 325 324 323 325 326 325 325 324 324 325 324 321 319 318 317 315 313 311 309 308 306 305 304 303 301 298 296 295 294 294 294 295 295 296 296 294 294 294 295 294
321 324 326 324 323 323 324 324 324 324 324 324 324 323 321 318 318 316 313 311 311 307 306 305 304 303 301 299 297 295 294 294 295 295 296 296 296 296 295 291 292 294 293
318 320 320 321 321 323 323 324 323 323 324 324 323 322 320 319 319 315 313 311 311 308 306 305 303 300 299 299 298 297 295 294 295 295 294 294 295 295 295 295 294 292 292
317 319 320 321 322 323 323 324 323 323 322 322 323 322 320 320 317 315 313 311 311 309 304 301 300 299 299 301 300 295 294 294 294 292 292 293 293 293 293 294 293 291 291
314 317 318 322 323 324 323 323 323 323 322 322 324 322 321 320 318 316 314 312 310 305 301 301 301 301 302 299 297 294 294 294 293 292 292 292 292 291 292 292 292 291 290
315 316 319 323 324 325 324 324 324 324 323 323 323 323 322 320 320 317 312 310 307 303 300 303 304 303 299 297 296 294 294 294 293 292 292 291 291 291 291 290 289 289 289
317 317 320 325 325 325 325 325 324 324 324 324 324 324 323 322 320 315 311 309 305 301 304 306 303 299 296 297 295 294 294 293 292 292 291 291 291 290 289 288 288 287 286
318 319 320 324 325 326 326 325 324 324 324 325 324 323 323 320 314 311 310 306 302 304 307 302 299 298 297 295 294 294 294 293 292 292 292 292 291 289 288 287 287 286 285
319 320 320 321 324 325 325 324 324 324 324 323 321 317 314 311 307 306 304 303 304 305 300 299 298 295 296 294 294 294 294 293 293 292 292 292 289 288 287 288 288 286 284
320 319 319 319 322 323 323 324 323 323 321 317 313 311 307 305 304 303 303 303 303 301 299 296 296 297 294 295 294 294 294 293 293 292 292 291 289 288 288 288 286 285 284
318 318 317 317 319 320 319 318 317 314 313 311 308 305 305 304 303 302 302 301 301 298 297 297 295 295 295 294 294 294 293 293 293 292 291 290 289 287 287 286 285 285 284
314 314 316 315 316 316 313 313 313 311 309 308 306 305 304 303 303 303 300 298 296 295 295 296 295 296 294 294 294 293 293 293 292 292 291 290 288 287 286 286 286 285 284
309 311 311 311 313 312 311 309 308 307 307 306 305 304 303 300 298 298 296 295 296 298 298 296 296 293 294 293 293 293 292 292 292 292 291 290 288 288 287 287 285 284 283
301 301 303 303 304 306 306 306 305 304 302 300 299 298 297 296 296 298 299 299 299 298 296 294 293 293 292 292 292 292 292 292 292 291 291 289 288 287 286 285 284 283 282
296 295 296 297 299 299 299 300 298 297 297 296 295 296 298 299 299 299 298 299 296 294 293 293 292 292 291 291 291 291 291 291 291 291 290 289 287 287 287 284 284 283 282
295 294 294 295 295 295 296 296 295 295 295 296 297 298 298 299 299 298 295 293 293 292 292 292 291 291 291 291 291 291 291 291 291 291 290 289 288 287 286 284 283 282 282
294 294 295 294 295 295 296 296 296 297 297 298 299 299 298 296 294 293 292 292 291 291 291 291 291 291 291 291 291 291 290 290 290 290 289 288 288 287 286 284 283 282 282
294 294 294 294 295 296 296 297 297 297 296 295 294 293 293 292 291 291 290 290 290 290 290 290 290 290 290 290 290 290 290 290 289 289 289 288 288 287 286 286 284 283 281
293 293 293 293 294 295 294 293 293 292 292 291 291 290 290 290 290 289 289 289 289 289 288 288 288 289 289 289 289 289 289 289 289 289 289 288 288 287 287 285 285 283 281
293 293 293 292 291 291 291 290 291 291 290 290 290 290 290 289 289 289 289 288 288 288 287 287 287 287 287 288 289 289 289 288 288 288 287 288 288 287 287 286 284 283 282
293 293 291 289 289 289 289 289 289 290 289 288 287 286 285 284 284 283 284 284 284 285 286 286 286 286 286 286 287 287 287 287 288 287 286 286 285 284 284 283 283 283 282
291 289 289 288 287 287 286 286 286 286 285 284 282 281 280 280 281 282 282 281 281 282 282 283 283 283 284 284 286 286 287 287 287 286 285 285 283 282 283 283 282 282 282

GFSMW_925_thetae_057.txt.gz
Theta_e
328 326 326 325 326 326 326 327 328 328 328 323 321 321 322 323 326 327 325 324 321 320 316 313 310 307 306 305 303 302 302 302 301 302 301 300 299 299 298 298 298 297 297
329 327 326 325 325 326 326 326 326 327 327 323 320 320 321 323 326 326 324 322 319 316 315 313 309 307 305 304 302 302 303 302 299 300 299 300 299 299 299 298 298 298 297
331 330 327 326 326 326 325 326 326 326 325 322 319 320 322 323 323 321 320 318 316 315 313 312 309 306 304 304 303 303 302 302 299 296 297 298 298 297 297 298 298 297 297
329 331 330 328 327 326 325 325 326 326 326 325 321 321 322 322 320 318 319 317 315 314 312 309 306 304 304 303 303 302 300 297 298 297 297 297 297 297 297 297 297 297 297
329 330 331 330 328 326 325 325 325 326 326 326 323 321 321 322 320 319 318 315 313 311 309 306 305 304 304 303 303 300 297 295 296 296 296 297 297 297 297 297 297 296 295
329 329 330 330 328 326 325 325 325 325 324 324 322 321 321 320 319 317 315 314 312 310 308 306 305 304 303 302 299 297 297 295 295 294 295 296 296 296 296 297 296 295 294
328 327 329 329 328 325 325 325 325 325 324 322 321 322 322 320 319 318 318 314 310 309 308 307 304 303 302 298 299 298 297 295 294 294 296 295 295 295 295 295 295 294 293
328 326 327 327 327 325 325 325 325 325 324 322 321 324 324 321 318 319 318 315 312 310 307 305 304 302 299 300 302 299 295 294 294 293 292 294 294 294 294 294 294 295 292
325 324 324 325 325 324 325 325 325 324 324 322 322 323 323 320 319 321 319 314 310 308 307 305 302 298 300 304 301 296 294 294 294 293 292 294 294 293 293 293 293 293 293
317 319 321 322 323 324 324 324 324 324 324 323 321 321 322 320 320 320 316 311 307 308 306 302 299 300 305 301 296 296 295 294 294 293 293 293 293 292 292 292 292 292 291
320 318 319 320 323 324 324 324 324 324 324 323 322 321 320 319 320 320 316 312 310 310 301 299 301 304 301 296 298 295 294 294 294 293 293 293 292 292 291 291 290 289 289
320 321 320 322 324 325 325 325 324 325 324 323 322 321 320 320 319 317 315 311 308 304 301 302 304 300 298 297 296 297 294 294 294 294 293 293 292 292 291 290 289 288 289
324 323 323 324 325 325 325 325 324 324 323 321 320 320 318 317 312 309 308 306 303 301 302 304 299 298 296 297 296 294 294 294 294 294 293 293 292 292 291 290 289 289 289
318 324 324 324 323 324 324 323 322 322 321 319 318 314 310 308 308 308 307 306 302 302 303 299 298 298 297 296 295 295 294 294 294 293 293 293 292 291 290 289 288 289 287
317 319 321 323 323 322 321 318 316 317 316 314 311 308 308 307 304 302 302 302 303 301 300 298 297 297 295 294 295 294 294 294 294 293 293 292 292 291 289 288 288 287 286
316 316 316 318 319 317 315 312 311 310 310 309 307 305 303 302 302 301 301 300 300 298 296 296 296 295 295 296 296 294 294 294 293 293 292 292 292 290 289 288 287 287 287
311 312 311 311 312 311 309 309 308 307 306 305 303 301 301 301 300 299 298 295 294 295 296 298 298 296 297 294 293 293 293 293 293 292 292 291 291 291 288 287 287 286 286
306 305 306 305 305 305 304 303 302 302 300 299 298 299 298 297 297 297 298 297 297 298 298 297 296 294 293 292 292 291 291 292 292 291 291 291 290 289 288 287 287 286 285
299 299 299 300 300 300 300 300 299 299 297 296 297 298 299 299 298 298 298 298 298 296 294 293 292 292 292 292 291 291 291 291 291 291 291 290 290 289 289 286 286 286 285
297 297 297 297 298 298 298 298 297 297 298 298 299 298 299 299 299 297 294 293 293 292 292 291 291 291 290 290 290 291 290 290 290 291 290 290 291 290 289 287 286 286 285
296 296 297 297 296 297 298 298 298 298 298 299 298 298 297 295 293 292 292 291 290 290 290 290 289 289 289 289 289 289 290 290 290 290 290 289 290 290 288 287 286 286 285
296 296 296 296 296 297 298 298 296 295 294 294 293 291 290 290 290 289 289 289 289 289 289 289 289 289 289 289 289 289 289 289 288 289 289 289 289 289 288 287 287 286 285
295 295 295 294 294 294 294 293 291 291 291 290 289 289 289 289 289 288 288 288 288 287 287 287 287 287 286 286 286 286 286 286 287 287 288 288 288 288 288 288 287 286 284
294 294 293 292 291 290 289 289 290 290 290 288 288 287 286 285 285 284 284 284 284 284 284 284 284 284 284 284 284 284 284 285 286 286 286 287 287 287 287 287 286 286 285
292 292 291 290 289 287 286 287 287 287 287 286 284 283 282 282 282 282 282 281 282 282 282 282 282 282 282 282 281 281 282 283 283 285 285 286 286 285 285 285 285 285 285
291 291 289 287 285 284 283 283 283 283 283 282 281 280 280 280 280 280 280 279 279 279 280 280 279 279 279 278 279 279 281 282 283 284 285 286 286 286 286 285 285 284 284

GFSMW_925_thetae_060.txt.gz
Theta_e
329 330 328 328 326 324 325 326 326 327 329 328 324 321 322 323 324 326 328 326 325 322 321 318 313 311 311 311 310 309 308 307 306 307 307 305 303 303 302 301 301 300 299
331 330 329 328 328 326 325 326 328 329 329 327 323 321 321 323 323 326 325 325 323 321 319 316 312 310 312 310 309 308 308 308 306 306 305 309 306 303 302 302 300 301 300
330 331 330 329 328 328 327 327 328 329 328 328 324 322 322 324 324 325 325 323 321 320 318 314 311 310 311 310 309 309 308 309 306 303 303 308 308 304 302 300 300 300 299
329 331 331 330 330 329 328 327 328 329 329 328 326 323 321 321 323 325 325 324 320 318 316 312 310 310 310 310 309 308 308 306 305 301 299 301 301 303 303 300 299 300 299
330 330 331 331 330 330 329 329 327 328 329 328 327 325 323 321 323 326 324 322 318 314 311 310 309 308 309 309 308 307 305 301 298 298 300 300 300 299 300 300 299 298 298
331 330 328 331 331 331 330 330 329 329 329 329 328 328 327 325 325 323 323 322 319 316 313 309 308 308 309 309 307 305 301 299 299 297 297 298 298 299 298 299 298 298 297
332 332 330 330 332 332 332 331 330 329 329 330 329 329 328 327 324 323 322 321 318 314 311 308 307 309 309 307 305 299 300 301 299 296 297 297 297 297 297 297 297 297 296
330 332 332 330 331 332 332 331 331 331 329 329 329 328 327 326 323 322 322 321 317 313 311 309 309 309 306 303 300 300 301 299 295 296 296 296 296 296 296 296 296 298 296
326 330 331 330 331 332 332 332 331 331 330 329 329 328 325 324 322 321 320 318 316 314 312 310 309 305 302 302 300 302 300 294 294 294 295 296 296 296 296 295 295 295 297
323 325 327 329 330 331 331 332 331 331 331 330 328 325 324 323 322 320 320 316 317 315 310 307 304 302 301 300 303 301 295 295 294 294 296 297 296 296 295 295 294 294 294
325 324 324 324 326 329 329 330 330 329 329 329 328 324 324 324 322 321 317 318 316 311 307 305 303 302 300 303 300 296 296 296 295 296 296 296 296 296 295 294 294 293 293
326 325 325 324 325 327 328 328 328 328 328 328 327 324 323 321 321 318 316 315 310 306 302 302 302 300 302 301 298 297 298 297 297 297 296 296 296 295 295 294 294 293 292
325 327 327 327 327 327 328 328 328 328 328 327 324 322 321 319 316 313 310 308 305 303 303 302 301 302 298 299 298 299 297 298 297 296 296 296 296 295 295 294 293 292 292
318 326 328 328 328 329 329 327 326 325 321 320 319 317 314 313 312 310 308 307 305 303 301 301 302 300 300 299 298 297 297 297 296 296 296 296 295 295 294 294 293 292 291
320 322 327 329 329 329 328 323 318 317 317 314 311 309 308 307 306 305 304 303 302 301 301 301 299 298 297 297 297 297 297 297 297 296 296 295 295 294 293 293 292 291 291
322 322 324 326 325 324 322 320 318 316 313 311 307 305 304 303 302 302 302 302 300 299 299 298 298 298 297 297 296 296 297 296 296 296 295 295 294 293 292 292 291 290 290
319 320 321 321 320 318 317 316 314 313 311 308 306 305 305 304 303 301 298 297 297 297 298 297 297 297 298 297 297 295 293 295 295 295 295 294 294 293 292 292 291 289 288
316 316 316 315 314 313 312 311 310 308 306 305 304 302 301 299 299 299 298 298 297 297 297 298 297 297 297 295 293 292 292 293 293 293 293 293 293 293 293 292 291 291 290
311 310 310 310 310 309 308 307 305 303 302 302 301 301 301 300 299 299 298 298 297 298 296 296 295 295 295 293 292 291 291 292 292 293 293 292 292 292 292 292 291 291 290
307 307 307 307 307 307 306 305 304 303 303 302 301 301 301 300 299 298 296 297 296 295 294 293 293 292 292 292 290 289 290 291 291 291 291 292 292 292 291 291 290 290 290
305 305 306 305 305 305 304 304 303 302 301 300 299 298 297 297 296 295 294 293 293 292 293 292 292 292 292 291 290 288 288 289 289 290 290 291 291 291 291 290 289 290 289
303 303 304 303 303 303 303 303 301 299 298 297 294 294 293 292 292 293 293 292 292 292 292 290 289 289 288 287 286 285 285 285 286 286 287 288 289 289 289 290 288 288 288
303 303 302 302 301 300 300 298 296 296 295 294 293 292 291 291 290 291 290 289 288 287 287 287 287 286 286 285 284 284 282 282 283 284 284 285 286 286 287 287 287 287 287
301 300 299 297 296 295 295 294 293 293 292 292 291 290 287 288 286 286 285 286 286 285 285 285 285 284 283 283 282 280 281 281 281 283 284 285 283 284 285 286 287 288 287
299 298 297 296 293 292 290 290 291 291 290 288 287 286 285 285 285 284 283 283 283 281 282 283 282 281 281 280 277 278 279 279 279 281 283 284 285 286 286 287 287 287 287
297 296 294 291 289 287 286 286 287 287 286 285 284 283 284 283 283 283 283 281 279 279 280 279 278 278 277 276 276 277 277 278 279 282 285 285 285 286 286 287 288 287 286

GFSMW_925_thetae_063.txt.gz
Theta_e
329 328 327 325 324 324 323 323 322 322 325 325 323 321 321 322 322 324 325 328 328 328 327 325 322 318 317 316 315 315 312 311 311 311 311 310 308 307 306 305 304 303 303
330 328 328 326 324 324 324 324 323 323 326 326 325 321 319 320 321 323 326 328 328 327 325 325 322 318 317 317 315 314 313 312 311 311 310 313 310 307 306 305 305 304 303
331 330 328 328 326 325 325 326 326 325 326 325 325 322 320 320 322 323 325 327 327 326 325 324 321 318 316 315 314 314 313 312 311 309 308 311 310 308 307 306 304 303 303
329 331 331 330 330 328 326 326 327 327 327 327 326 324 321 320 321 323 324 326 325 324 324 323 320 316 314 315 314 313 313 312 312 308 303 302 303 307 308 305 303 302 302
328 329 331 331 330 330 329 328 327 327 328 328 327 327 324 322 322 323 324 326 325 324 323 321 317 314 313 313 313 312 312 311 310 304 301 303 303 305 303 305 304 302 301
328 328 328 330 330 330 330 330 329 328 328 329 329 329 327 326 322 322 327 327 325 323 321 318 315 313 313 311 311 312 311 307 302 301 301 300 302 301 301 303 302 301 301
330 329 328 330 330 330 330 331 331 329 329 329 330 330 329 329 327 326 327 325 325 322 320 316 314 312 311 310 311 310 308 301 301 302 301 299 300 298 299 299 300 300 300
328 330 330 328 329 330 331 332 332 331 330 331 331 331 331 331 330 328 325 324 324 323 321 318 313 310 309 310 310 307 302 301 302 301 296 299 297 297 299 299 299 300 298
325 328 330 330 328 330 332 333 332 332 331 331 332 332 332 332 331 329 326 324 323 322 320 314 310 309 309 309 306 303 301 301 302 297 297 295 297 298 299 298 298 297 298
325 327 329 330 331 331 332 333 334 333 332 332 332 332 331 330 329 327 325 324 322 320 317 313 312 310 308 306 303 300 302 300 296 295 295 297 298 299 298 298 297 297 296
326 327 327 328 330 331 333 334 334 334 333 333 332 331 329 327 325 324 322 321 321 318 313 312 309 306 305 303 301 301 300 298 297 298 298 299 299 298 298 297 297 296 295
324 326 327 327 327 330 331 333 333 334 333 333 333 330 327 325 324 323 322 320 318 314 311 310 307 305 303 301 301 299 299 298 298 298 299 299 298 298 298 297 296 296 295
324 325 327 328 328 329 330 331 331 331 330 330 330 327 325 323 322 321 319 316 313 311 307 306 303 302 300 301 301 300 300 299 299 299 299 299 298 298 297 297 296 296 295
322 325 326 328 329 330 330 330 331 330 328 325 321 321 319 318 316 314 311 309 307 305 303 302 302 301 301 300 300 300 299 299 298 299 299 298 298 297 297 297 296 296 295
322 322 327 328 330 331 329 325 320 319 318 315 313 311 310 309 307 306 305 303 302 302 302 301 301 300 300 300 299 298 297 298 298 298 298 298 298 297 296 296 295 295 295
324 324 326 330 331 330 325 319 316 314 312 310 308 306 305 304 303 303 303 302 301 300 300 300 300 299 299 299 298 297 296 297 298 299 298 297 297 297 296 295 294 294 293
324 325 327 328 327 325 322 319 316 313 311 309 308 307 307 306 305 304 302 301 300 300 300 299 299 298 298 298 298 297 296 296 296 296 296 296 296 295 295 295 294 294 293
323 324 324 322 322 321 319 317 316 313 312 310 309 308 306 304 303 302 302 300 298 298 298 298 298 299 299 297 295 294 293 294 294 294 294 294 294 294 294 294 294 294 293
320 319 319 318 317 315 314 312 311 310 308 307 306 305 304 304 302 301 299 300 299 299 300 299 299 298 297 294 293 292 292 292 292 292 292 293 293 293 293 292 293 293 293
314 315 315 314 314 312 311 310 309 308 307 306 305 304 304 303 302 301 300 300 300 298 297 296 295 294 293 293 292 291 290 291 290 290 291 291 291 291 291 291 291 292 292
312 312 313 312 311 310 310 309 308 307 305 304 304 302 300 300 300 299 298 296 295 294 295 294 294 293 293 292 288 286 286 286 285 286 286 287 287 287 287 287 287 289 290
310 311 310 310 309 309 308 307 306 304 303 302 299 298 297 295 296 295 295 294 294 294 293 291 290 290 289 288 286 284 283 282 283 283 283 284 284 283 283 284 285 286 287
309 309 309 308 308 308 307 305 303 301 299 298 297 295 294 293 293 293 292 291 290 290 289 288 288 288 287 286 285 283 280 280 281 281 281 281 282 283 285 286 286 286 286
308 308 307 307 305 303 302 300 299 298 297 296 294 292 292 290 289 289 288 288 288 287 286 287 287 286 285 284 282 279 279 280 279 280 280 281 283 285 285 286 286 286 287
307 306 304 302 301 299 298 297 296 296 294 292 290 289 288 288 288 287 286 285 283 282 283 285 283 282 282 280 277 277 278 278 277 278 280 283 284 284 285 286 287 287 288
304 303 301 299 297 295 294 294 293 292 290 289 288 287 287 286 286 286 285 282 282 280 279 279 278 278 278 276 275 276 277 276 278 279 281 281 281 282 282 283 284 288 288

GFSMW_925_thetae_066.txt.gz
Theta_e
329 329 327 323 321 322 321 321 321 323 323 322 323 323 324 322 321 320 323 326 327 326 326 324 322 321 318 317 315 315 315 313 311 311 311 311 310 309 307 306 305 304 304
329 327 326 324 322 324 324 324 324 325 324 324 324 322 323 323 322 322 322 327 326 327 327 326 325 322 319 318 316 315 315 313 312 311 313 310 310 308 307 306 306 305 304
329 329 327 326 326 325 325 324 324 323 325 325 323 322 321 322 322 322 324 327 327 326 327 326 326 323 320 319 317 316 315 313 313 311 310 310 310 308 308 307 306 306 304
329 328 329 327 326 325 325 325 324 323 324 326 326 325 322 321 323 323 324 326 328 327 326 325 324 324 320 318 317 315 315 314 313 310 308 306 305 306 307 306 306 305 304
329 329 328 328 326 327 326 326 326 325 325 326 326 325 323 321 320 323 323 327 328 327 325 324 324 323 318 317 316 316 314 313 313 310 305 304 304 304 305 304 304 304 303
328 330 330 329 329 328 328 327 328 327 327 328 327 327 325 324 322 323 324 327 326 324 324 324 323 322 320 317 315 314 314 313 313 307 304 304 304 303 304 301 302 303 302
328 328 330 331 331 331 330 330 328 328 327 328 329 326 328 326 325 324 325 328 326 325 324 324 322 320 318 315 314 313 312 311 308 304 302 303 302 300 300 299 300 300 300
330 328 327 331 331 331 332 332 331 330 329 329 331 331 328 331 328 327 328 328 326 324 319 323 321 318 316 314 313 311 312 310 304 301 303 302 300 300 299 298 300 298 299
327 330 329 328 331 331 332 333 332 331 330 330 329 330 330 330 330 331 329 327 325 324 324 323 320 317 315 312 310 311 308 305 301 303 301 299 298 296 297 298 300 299 296
326 326 329 330 329 331 332 332 332 333 332 331 331 331 332 333 332 332 330 327 326 325 324 322 319 315 311 309 309 306 305 302 302 301 299 297 296 299 298 299 299 299 298
326 327 328 330 330 330 331 333 334 333 333 332 332 332 334 333 332 330 328 327 325 322 321 318 315 312 310 309 307 306 304 302 301 300 298 299 300 299 299 299 299 298 297
325 327 328 327 329 332 332 335 335 335 334 334 333 333 333 331 329 327 325 324 322 321 319 315 312 310 309 307 306 303 302 301 300 301 300 300 299 299 300 299 298 298 297
323 326 327 328 328 328 331 334 335 335 335 334 332 332 328 326 325 324 323 322 321 318 315 312 309 307 305 303 302 302 301 300 301 300 299 300 300 300 299 298 298 298 297
323 323 326 328 329 329 330 332 331 330 328 326 325 322 321 322 321 318 316 315 313 311 308 307 306 304 303 303 301 300 300 300 299 299 299 299 300 299 299 298 298 298 297
322 322 326 329 330 331 327 324 322 321 319 315 314 312 313 314 312 311 309 308 306 305 304 304 303 302 302 301 300 300 299 299 298 298 299 299 299 298 298 298 297 297 297
324 323 324 329 333 327 321 318 315 313 314 313 310 310 309 308 306 304 304 303 303 302 302 302 301 301 300 300 299 299 298 298 297 297 298 299 298 297 298 297 297 297 296
325 325 327 332 327 322 319 315 312 313 312 309 307 306 305 304 303 302 302 302 301 301 301 300 300 299 299 299 298 297 296 296 297 296 295 295 295 295 295 295 295 295 295
325 326 328 327 324 320 318 315 313 311 310 309 308 307 306 305 303 303 303 301 300 300 299 299 299 299 299 299 297 296 293 293 293 293 293 293 293 293 293 292 291 291 292
324 324 324 323 322 320 318 316 314 313 312 310 309 307 305 304 304 302 300 299 299 299 299 299 299 300 296 294 293 292 292 292 291 291 291 290 289 288 288 287 287 288 289
321 321 320 319 318 316 315 313 312 310 309 307 306 305 305 303 302 301 301 300 300 300 300 298 295 294 293 292 292 290 288 287 286 286 285 284 285 285 285 284 285 286 286
318 317 317 316 314 313 312 311 310 309 308 306 305 304 303 302 302 301 301 300 297 296 295 294 295 293 291 289 288 287 285 283 283 283 283 283 283 283 281 280 282 282 283
315 315 315 314 312 311 311 310 309 307 306 304 303 302 301 300 298 296 295 294 295 295 294 291 290 290 289 288 286 284 283 282 280 281 281 281 281 280 281 283 284 284 285
314 314 313 311 311 311 310 308 306 305 303 301 299 297 296 296 296 295 294 292 291 290 289 289 289 288 287 286 284 284 281 279 280 279 279 279 280 282 283 284 285 285 285
313 312 311 310 310 309 308 305 303 301 300 298 296 295 293 292 291 289 289 289 288 287 287 287 287 286 285 283 282 279 277 278 278 277 277 279 281 282 281 282 282 283 283
311 310 310 309 308 306 303 302 300 299 298 295 293 290 289 289 288 287 286 286 284 283 285 284 283 282 282 279 277 276 277 277 277 277 278 280 280 280 279 279 280 280 281
310 309 308 305 303 301 299 298 298 296 293 291 290 289 288 287 287 286 283 283 282 282 281 279 279 278 278 277 276 276 276 277 277 278 279 279 279 278 278 278 278 278 278

GFSMW_925_thetae_069.txt.gz
Theta_e
326 324 321 320 319 319 318 318 318 317 319 319 316 315 316 321 321 320 323 322 322 322 324 323 324 322 320 318 317 316 315 314 311 310 310 309 310 309 307 306 306 305 304
327 325 323 322 320 318 316 317 315 316 320 317 317 322 321 320 322 321 323 323 323 322 323 323 324 322 321 319 317 316 315 315 312 311 311 308 310 309 308 307 306 305 304
328 326 322 321 318 315 316 316 318 319 322 322 323 322 323 322 321 321 320 321 325 325 324 325 324 324 322 322 318 316 315 314 313 311 311 308 307 307 308 308 307 306 305
328 326 322 320 320 319 318 319 319 322 324 322 321 322 322 323 322 320 322 322 323 325 325 326 325 326 325 323 319 317 316 315 313 312 311 308 306 304 305 307 307 306 305
325 325 323 322 321 322 323 322 323 324 324 325 322 322 322 321 322 322 321 322 326 326 326 326 326 325 325 322 320 318 317 315 314 312 308 306 306 305 304 303 304 304 304
326 325 324 324 324 324 324 324 323 323 322 322 324 325 322 322 321 322 322 322 325 327 327 326 325 324 324 323 320 317 317 316 314 313 310 307 305 305 304 301 300 300 300
326 326 325 324 324 324 324 323 323 323 322 322 324 324 325 323 321 320 322 323 326 327 327 326 325 324 324 323 319 318 316 315 314 313 311 307 305 303 302 301 300 299 300
325 326 325 326 324 324 324 324 324 325 324 323 324 325 324 325 322 321 321 323 325 326 326 325 324 324 323 320 319 315 314 313 312 311 308 305 304 303 303 300 299 299 298
324 325 326 326 327 325 325 326 325 325 326 326 327 327 325 326 327 324 324 323 325 325 326 325 324 323 320 319 316 314 313 311 311 308 304 303 303 303 303 299 298 299 296
322 323 324 328 328 328 328 328 328 327 326 327 327 329 328 327 328 328 325 327 326 326 325 323 321 321 320 317 315 313 311 310 308 305 303 303 303 303 303 301 300 298 298
320 321 322 325 329 329 329 329 329 329 329 328 329 328 330 330 329 329 329 327 327 326 324 324 323 320 317 314 313 310 309 308 305 302 302 303 302 301 300 300 298 298 299
320 322 322 324 326 329 329 330 330 330 330 330 330 330 329 331 329 329 324 323 326 325 323 321 318 315 314 313 310 308 306 303 302 302 301 301 300 300 300 299 299 299 299
320 321 322 323 324 328 329 331 331 331 331 331 331 330 330 330 328 323 325 325 323 321 320 319 317 314 311 309 307 306 304 303 302 301 301 300 300 299 300 300 299 299 298
318 321 321 322 326 329 325 327 327 332 327 327 322 322 322 324 322 321 321 321 320 319 317 314 312 309 307 306 304 303 302 301 301 300 299 299 299 299 300 299 298 298 298
317 318 321 323 325 322 318 317 318 321 321 317 317 316 317 316 316 315 315 314 314 312 311 308 306 305 304 303 303 302 301 300 299 299 299 299 298 298 298 299 298 298 298
320 320 326 328 324 320 317 314 313 316 318 316 313 313 312 311 310 310 309 308 307 306 305 305 304 303 302 301 301 300 300 299 298 298 297 297 297 295 295 294 294 293 292
321 324 329 326 321 318 316 314 312 311 311 311 310 310 309 307 306 306 305 304 304 304 303 302 302 301 300 300 300 299 298 297 295 296 294 293 293 293 292 292 292 291 291
321 327 324 321 318 316 315 313 313 311 309 307 307 306 305 305 304 303 302 302 302 302 301 301 300 300 299 299 297 296 295 293 293 292 291 291 290 289 287 286 285 285 284
321 321 322 319 317 315 314 313 312 310 309 308 307 305 304 303 303 302 301 300 301 300 300 299 299 299 299 299 298 294 292 291 291 290 288 285 284 283 282 282 281 281 281
321 320 320 318 317 315 314 312 311 310 309 308 307 305 304 303 302 301 300 300 300 300 299 299 298 296 293 292 291 290 289 287 285 284 283 281 281 280 281 281 281 282 283
319 319 318 317 316 315 314 311 310 308 307 306 305 304 303 302 301 300 300 300 300 299 295 293 293 292 292 289 288 286 285 284 282 280 280 279 279 280 281 282 283 283 284
316 316 314 313 313 313 311 309 307 307 306 305 304 303 302 302 301 301 300 298 296 295 294 293 289 289 287 286 286 285 284 280 279 279 278 278 278 280 281 281 281 281 281
313 314 312 311 312 311 310 307 306 305 304 304 303 302 301 300 297 295 295 294 294 293 290 290 288 286 284 284 284 283 281 278 278 277 277 278 280 281 280 279 279 279 279
310 312 310 309 309 309 307 306 305 304 303 301 298 296 296 295 293 291 291 290 289 288 288 288 286 284 283 282 282 281 277 277 277 277 277 279 280 279 278 277 277 277 277
310 309 309 308 307 306 305 304 302 301 298 296 294 292 290 289 288 288 288 288 286 286 286 285 285 284 282 280 279 277 277 277 277 277 278 278 278 277 277 276 276 275 275
308 308 307 302 300 301 300 300 300 297 294 290 289 288 288 287 286 286 284 282 283 282 281 281 280 279 278 278 277 277 277 277 278 278 278 277 276 275 275 275 274 274 274

GFSMW_925_thetae_072.txt.gz
Theta_e
325 322 320 320 320 319 320 320 319 318 318 317 319 321 321 322 321 323 323 324 323 323 323 323 321 321 319 319 318 315 315 314 312 310 308 307 307 306 306 306 305 304 304
325 321 320 318 319 319 319 319 319 319 319 317 316 319 320 321 321 320 321 321 321 321 323 323 322 321 321 319 318 317 316 314 314 309 309 309 309 308 307 306 304 304 304
326 323 321 318 318 319 318 318 319 318 318 318 317 318 318 318 321 321 320 321 321 321 322 323 323 323 322 320 318 318 316 315 314 311 310 309 310 307 308 307 306 306 305
326 324 322 320 319 319 318 316 317 317 318 320 316 317 317 320 320 321 320 321 322 322 323 322 322 322 323 322 322 320 318 315 314 311 311 309 307 306 307 306 307 307 306
326 325 322 321 319 317 316 316 315 316 317 319 318 319 321 322 321 320 320 321 320 321 323 324 323 323 324 324 323 322 319 316 315 314 308 306 307 308 305 306 306 306 305
326 324 322 320 316 315 315 315 315 316 319 321 321 321 321 321 322 322 321 320 320 321 321 324 325 325 326 325 325 323 320 318 316 315 313 311 308 306 306 304 304 302 302
327 325 321 319 317 316 315 316 318 318 320 322 322 321 321 320 320 321 322 321 320 322 323 324 325 326 325 325 324 323 320 318 316 315 314 311 310 309 307 303 301 301 302
326 325 323 321 320 319 319 320 319 320 321 322 323 323 323 320 320 320 320 321 321 321 322 325 326 326 324 324 324 323 319 317 317 315 314 312 310 309 305 304 302 300 299
325 324 323 322 322 321 321 322 322 322 322 322 322 322 322 323 323 322 320 320 321 322 323 323 325 325 325 324 323 321 318 317 315 314 312 311 308 305 304 304 304 300 299
325 325 324 323 323 323 322 323 323 322 322 322 321 321 321 323 323 323 322 320 320 322 323 324 324 325 323 323 322 319 317 314 313 311 310 308 306 303 304 303 301 299 298
320 322 324 325 324 324 323 323 323 323 323 323 323 322 322 322 324 325 323 323 323 324 324 322 323 324 322 321 319 317 314 312 310 309 307 304 303 303 302 301 300 300 298
317 319 322 324 325 325 325 324 324 323 323 324 325 325 326 326 325 325 325 324 324 318 321 324 323 322 321 319 317 314 312 309 308 306 303 302 301 300 300 300 299 299 299
317 318 319 320 323 326 326 326 326 326 327 328 328 328 328 327 326 327 327 327 323 319 320 322 322 320 317 315 313 312 309 307 305 303 302 301 300 300 299 299 300 299 298
319 318 318 321 325 326 327 328 328 328 329 329 326 326 328 327 328 327 325 323 320 318 320 318 317 317 315 312 309 307 306 304 303 301 301 300 299 299 299 299 299 298 298
318 319 318 324 321 322 323 327 328 329 330 323 320 321 322 324 322 321 322 322 319 318 317 317 313 310 309 307 306 305 303 302 300 300 299 299 298 298 297 297 295 294 293
314 317 322 324 320 318 317 318 319 320 321 317 315 318 319 316 317 318 318 318 316 315 312 309 308 306 305 304 304 303 300 300 299 298 297 296 294 293 293 292 291 290 289
321 324 325 324 319 317 316 316 316 316 316 316 314 314 316 315 313 313 312 310 309 307 306 305 305 303 303 302 301 300 299 298 297 296 294 292 291 291 290 290 289 288 284
322 325 324 319 316 314 316 314 314 314 313 311 310 310 309 308 307 307 307 305 305 304 303 303 302 301 301 300 299 299 297 295 293 292 291 290 289 286 284 284 282 281 280
322 322 321 316 314 312 312 313 312 311 310 308 307 306 306 304 304 303 303 303 303 303 302 301 300 299 299 298 297 296 294 292 290 289 286 285 283 281 280 280 280 282 282
321 319 318 316 314 312 312 311 309 309 309 308 306 305 304 303 302 302 303 302 302 301 299 299 299 298 298 297 296 293 291 289 286 284 282 280 279 279 279 281 282 282 282
319 319 317 316 314 313 312 310 309 309 308 307 305 304 303 304 304 302 301 300 299 299 298 298 295 293 292 289 289 288 287 285 284 281 279 278 278 279 281 281 280 280 280
316 317 315 314 314 313 311 309 307 306 306 304 304 304 303 302 301 300 299 299 299 297 294 291 288 287 286 285 285 285 284 283 280 278 278 277 279 280 280 279 279 278 277
313 313 311 310 311 311 310 306 305 305 305 304 303 302 302 301 300 299 299 297 294 292 290 288 285 283 283 283 283 283 282 279 277 277 277 278 279 279 278 277 277 276 275
310 310 309 308 307 308 307 306 305 305 304 303 302 301 300 298 297 297 295 294 292 290 288 286 284 282 282 282 281 280 278 277 277 277 278 278 278 277 276 276 275 274 274
309 309 308 305 304 305 304 304 304 304 301 297 294 293 292 292 290 289 288 288 287 288 288 286 285 283 281 280 278 277 277 277 278 278 278 277 276 275 275 275 274 273 273
307 303 301 298 295 298 298 298 299 301 295 290 289 288 288 287 285 284 282 282 282 283 284 284 282 280 279 278 277 277 277 278 278 277 276 275 274 274 273 273 272 272 271

GFSMW_925_thetae_075.txt.gz
Theta_e
323 323 322 321 320 320 320 321 320 320 319 320 322 322 323 323 320 320 321 321 319 316 316 318 318 318 319 318 317 316 315 312 310 308 307 306 306 305 304 305 306 306 306
325 320 319 319 320 319 320 320 319 320 319 319 320 321 322 323 322 323 323 321 322 320 319 321 320 320 320 318 318 317 315 313 312 310 309 307 308 306 305 305 305 305 306
324 322 319 318 319 319 320 320 319 319 319 318 318 319 320 322 322 323 323 323 322 323 323 323 322 321 321 320 319 318 316 315 313 312 310 310 311 307 308 308 305 304 305
325 322 320 317 317 318 319 319 319 318 318 317 317 318 319 320 321 321 321 321 322 322 322 322 321 322 322 321 320 319 317 316 314 311 311 311 310 308 308 306 306 305 304
325 323 320 319 317 318 319 319 319 318 318 317 317 316 318 318 319 319 320 320 320 320 321 321 321 322 322 322 322 320 318 317 315 314 310 309 309 308 307 308 306 306 308
324 323 321 320 319 318 318 318 317 318 317 317 317 317 317 317 317 318 318 320 320 320 320 322 322 322 322 322 322 322 321 320 318 315 315 313 309 307 307 306 306 306 307
325 324 321 320 319 317 316 317 316 316 316 316 317 319 316 317 316 317 320 320 320 320 320 320 321 322 323 323 323 323 323 321 319 318 315 313 312 312 308 308 305 303 303
325 324 322 320 319 316 315 315 315 315 315 316 317 318 317 316 319 321 321 321 321 320 320 320 320 321 322 323 324 324 324 322 320 318 316 315 313 313 310 309 305 302 300
326 325 323 320 318 315 314 315 314 314 314 316 317 319 318 318 319 320 320 320 320 320 320 320 320 322 323 324 324 324 323 321 319 318 316 315 314 312 310 307 305 304 302
325 325 324 322 319 317 315 314 315 316 316 317 319 320 321 321 321 320 320 319 319 319 319 320 322 323 323 324 324 323 322 320 318 316 315 313 313 310 306 304 303 303 301
323 324 324 324 322 320 318 317 317 317 318 319 320 320 321 321 321 321 322 323 322 320 320 321 323 323 321 321 323 322 320 318 316 315 313 311 310 306 303 302 302 301 299
323 323 323 323 322 322 321 320 320 320 321 321 321 321 322 321 321 321 321 322 322 322 323 323 323 321 322 320 321 320 318 315 313 312 309 307 304 302 301 301 300 300 299
319 320 322 323 323 323 322 322 322 321 322 322 322 322 323 322 322 322 323 323 323 323 323 321 320 321 322 321 320 317 316 313 312 310 307 305 302 302 300 300 299 299 299
317 318 319 320 322 323 323 323 322 322 322 322 323 323 324 325 325 325 325 324 324 324 323 322 318 317 319 319 317 313 311 310 308 306 304 302 301 300 300 299 299 298 297
315 317 318 319 320 321 323 324 324 323 324 324 324 324 325 324 325 325 325 324 324 321 321 318 316 317 315 313 312 310 308 306 304 302 301 300 299 299 298 298 297 295 293
313 316 318 322 321 321 321 322 322 325 325 325 322 321 323 322 324 325 323 322 320 318 316 314 315 312 310 310 309 307 305 303 301 300 299 297 297 295 293 293 292 291 288
313 316 320 323 320 320 319 319 318 320 322 319 315 316 317 318 318 318 317 315 313 313 312 310 309 306 306 306 305 304 302 300 299 298 296 293 291 290 290 289 289 287 283
312 313 319 320 318 318 316 314 316 319 316 314 314 314 313 312 310 311 310 309 308 308 307 306 306 305 303 302 301 300 299 298 296 293 291 290 288 287 286 285 282 281 281
314 317 320 319 317 316 314 314 313 313 313 311 310 310 311 309 308 306 306 306 306 305 304 303 302 302 300 300 299 299 296 293 290 289 287 286 284 282 280 280 280 281 281
318 316 315 314 314 313 315 314 312 312 310 310 309 309 309 308 306 306 304 303 303 302 301 300 300 300 298 297 297 296 293 290 288 286 284 281 280 279 279 281 281 280 280
318 316 314 313 312 312 313 312 311 310 310 309 308 307 306 306 305 304 303 302 300 299 299 297 296 296 296 294 294 292 290 288 286 283 280 279 278 279 280 281 279 279 278
316 315 313 311 311 311 311 310 310 309 308 306 305 304 304 303 302 302 301 300 299 297 294 292 289 288 288 288 287 287 286 285 283 280 278 278 278 280 280 278 278 277 275
314 313 312 310 310 310 311 306 306 306 305 305 303 302 301 301 301 300 298 297 297 294 289 287 285 284 284 284 284 284 283 281 279 278 277 278 279 279 278 277 276 275 274
311 310 310 308 306 308 307 306 305 305 304 301 300 300 300 299 298 298 297 295 293 290 287 285 283 282 281 281 280 280 279 277 277 277 278 278 278 277 276 275 275 273 273
308 309 307 304 303 304 304 303 303 303 300 298 297 296 296 295 292 291 290 290 289 291 289 287 285 283 281 280 278 278 278 278 278 278 278 277 276 275 275 274 273 273 272
304 300 298 298 297 299 299 300 301 302 299 292 290 288 287 285 285 284 282 283 285 286 286 285 285 282 281 278 278 278 277 278 277 277 276 275 274 273 273 273 272 271 271

GFSMW_925_thetae_078.txt.gz
Theta_e
323 322 322 320 319 321 321 321 320 319 319 320 321 321 320 321 320 317 314 320 316 315 315 314 314 315 314 316 315 313 312 311 310 308 307 306 306 306 306 305 305 305 306
325 324 322 321 320 320 321 321 320 319 320 320 321 322 322 322 319 318 319 318 316 315 315 315 315 315 316 317 316 316 314 313 311 309 307 306 308 307 306 305 305 305 305
327 324 322 320 320 319 320 321 320 320 319 319 320 321 322 322 321 321 321 320 318 317 316 315 317 318 317 318 317 317 316 315 312 311 311 308 309 308 308 306 305 305 304
325 323 321 319 319 319 318 320 320 319 319 319 319 321 320 321 322 321 320 321 321 321 320 318 319 321 319 319 319 318 318 316 314 311 310 311 311 309 310 308 309 309 306
324 323 320 319 318 318 318 319 320 319 319 318 318 319 320 321 321 322 321 322 322 322 322 323 322 322 321 321 321 320 318 317 315 314 311 310 310 310 309 311 309 306 307
324 323 320 318 317 317 318 319 319 319 319 318 317 318 320 319 321 321 321 321 321 321 321 322 322 322 322 322 322 321 320 319 316 315 315 314 311 308 307 307 308 307 308
323 322 319 317 316 316 318 318 318 318 318 318 317 317 318 319 319 320 320 319 319 319 320 320 320 321 321 321 322 322 321 320 318 317 316 316 314 314 312 310 308 307 308
323 323 321 319 317 316 317 317 316 316 317 318 318 317 317 317 317 318 317 317 317 317 318 319 319 319 319 320 321 321 322 321 321 320 318 317 316 314 312 311 309 303 302
323 323 321 320 318 317 316 317 316 316 316 316 317 317 317 317 317 317 317 317 316 319 320 320 320 320 320 320 321 321 321 321 322 318 321 317 316 314 312 312 310 307 304
322 322 322 320 319 317 316 316 316 316 316 315 315 316 316 317 318 317 316 316 319 321 321 320 319 319 320 320 322 322 320 321 322 321 321 316 314 314 313 310 307 306 304
321 323 322 321 319 317 315 315 316 315 314 314 314 315 316 317 317 317 315 314 317 319 320 320 319 319 321 322 321 321 321 321 319 318 316 313 314 313 309 307 304 302 302
320 321 322 322 319 317 315 314 315 315 314 314 314 315 315 315 315 317 317 318 318 320 321 321 321 322 322 322 322 321 321 320 319 317 313 311 310 308 306 305 302 302 301
319 319 319 320 321 319 318 316 315 315 315 316 316 317 318 318 319 319 320 320 320 320 321 321 321 321 322 321 321 320 318 318 317 314 311 308 307 305 303 302 301 301 299
316 317 318 319 320 321 320 319 318 317 316 317 318 319 319 319 320 320 320 320 320 320 321 322 322 322 321 319 319 318 317 314 311 309 308 306 306 305 302 300 300 299 298
314 314 316 316 318 319 321 320 320 319 319 320 320 320 320 321 321 322 321 321 321 321 322 322 321 321 320 319 317 315 312 309 307 304 303 302 301 300 300 299 298 297 295
312 313 314 315 314 317 319 321 321 320 320 320 321 321 321 321 322 323 323 323 322 322 322 321 320 319 316 316 314 310 307 305 304 300 299 299 299 298 297 296 294 292 290
311 313 315 317 318 319 319 319 319 321 321 320 321 320 318 319 322 322 322 321 321 320 318 316 314 313 313 309 307 306 304 302 301 299 297 295 293 293 292 291 289 288 285
311 310 312 315 318 320 319 317 317 318 319 318 317 317 318 319 319 318 318 316 313 312 311 310 308 307 305 303 302 303 302 300 298 296 294 293 290 289 288 287 284 282 281
312 310 312 316 318 317 317 317 317 316 316 313 313 315 316 316 314 311 310 309 307 306 304 304 304 304 300 300 301 300 298 295 292 290 289 288 286 284 283 281 280 281 281
312 313 316 316 316 314 315 314 314 314 312 312 312 313 312 311 308 307 305 303 303 301 301 300 300 299 298 298 298 298 296 291 288 285 283 283 281 279 279 280 281 280 280
314 314 315 315 314 314 314 313 312 311 311 311 309 308 308 307 306 304 302 301 300 299 298 297 296 296 296 295 295 293 292 289 285 283 281 279 278 279 280 280 279 279 278
314 313 313 313 313 313 314 312 310 309 309 308 307 306 305 303 302 301 299 299 298 295 293 292 290 289 289 289 288 288 287 285 284 281 279 278 279 280 280 279 278 277 276
314 312 311 310 310 311 312 309 307 307 306 304 302 302 301 300 300 299 297 295 295 292 289 288 285 284 285 285 285 284 284 283 281 279 278 278 278 279 278 277 277 276 274
311 310 310 309 307 308 309 307 306 306 304 301 300 300 299 298 298 297 297 296 294 292 289 286 284 282 281 281 281 281 280 280 279 278 278 278 278 277 277 276 275 274 273
306 305 305 304 303 303 303 304 305 305 301 299 298 297 296 295 292 290 290 291 290 292 288 285 283 282 281 280 280 280 279 279 278 278 278 277 276 276 275 274 274 273 272
300 299 298 296 294 295 296 298 300 300 296 291 289 287 287 285 284 283 283 285 286 288 288 287 286 283 282 279 279 278 278 278 277 277 276 276 275 274 274 273 273 272 271

GFSMW_925_thetae_081.txt.gz
Theta_e
327 325 322 321 320 321 321 320 319 318 319 319 321 322 322 321 322 320 317 316 315 314 312 313 317 316 314 314 315 309 308 307 306 307 307 306 305 305 306 306 306 305 307
327 325 323 322 320 321 321 321 320 319 319 319 321 321 321 322 321 317 319 317 315 315 314 315 314 315 314 315 314 311 311 312 308 311 311 315 311 308 307 306 305 305 305
329 326 324 322 320 321 321 321 320 320 319 320 320 320 320 321 319 318 316 317 318 316 315 315 315 314 314 315 315 314 314 315 312 310 315 316 319 313 310 308 306 305 305
329 327 324 322 321 320 321 321 320 320 319 319 320 319 319 320 319 318 315 314 315 318 315 315 315 314 315 316 316 316 316 315 316 310 310 312 313 318 319 310 310 308 307
330 329 325 322 320 319 320 321 320 320 319 319 320 320 321 320 319 319 317 317 318 317 315 315 315 315 317 318 318 318 317 317 316 315 313 311 312 312 315 318 312 308 309
328 328 325 323 319 319 318 319 319 321 321 320 320 320 321 321 320 319 319 320 321 320 320 320 319 318 319 320 321 320 319 318 317 316 314 315 315 312 312 312 313 314 313
327 328 326 321 319 318 317 318 318 320 320 319 319 319 320 320 320 321 321 320 321 321 321 321 321 322 322 322 322 322 321 320 318 318 316 315 314 314 314 312 314 311 312
326 327 326 323 320 318 317 317 319 320 320 320 318 317 318 319 319 319 320 320 320 321 320 321 321 320 320 320 321 321 321 320 320 319 317 316 318 317 313 313 311 306 307
325 326 325 324 322 319 318 318 319 320 319 319 319 318 317 318 318 319 319 321 320 319 319 318 318 319 319 319 319 320 320 320 320 319 319 319 320 317 317 312 311 311 308
324 325 325 324 323 321 319 318 319 319 319 319 319 318 318 317 317 318 318 318 318 318 317 317 317 318 320 320 319 320 320 320 320 319 319 319 317 317 316 316 312 310 310
324 325 325 324 323 321 319 318 318 318 318 318 318 318 318 318 317 317 318 317 317 317 317 316 316 318 320 320 319 320 320 321 320 320 319 319 317 315 313 312 312 307 307
323 325 325 324 322 321 319 318 318 318 317 316 316 317 317 318 317 316 316 317 317 317 316 316 316 319 319 319 319 320 320 320 319 319 320 319 316 311 311 311 308 305 303
322 325 325 324 323 322 320 319 318 318 317 316 315 315 316 317 317 316 317 317 317 317 316 316 317 318 319 320 321 321 320 320 320 319 317 316 313 309 308 306 303 303 302
319 323 325 325 323 322 320 319 318 317 317 316 316 316 315 315 315 316 317 318 319 319 319 318 319 320 320 320 320 320 320 319 317 316 313 311 309 308 306 303 302 301 299
316 320 323 324 324 323 321 319 318 317 317 317 316 316 316 316 316 317 318 319 320 320 320 320 320 320 320 320 321 320 319 316 312 310 308 306 305 305 304 302 300 299 298
315 317 318 319 322 322 322 320 319 317 316 316 317 317 317 317 318 319 319 319 320 320 320 320 319 320 320 321 320 318 316 311 308 305 302 301 301 300 299 299 298 297 294
316 315 317 318 319 319 320 321 320 319 318 317 318 318 318 318 319 319 319 319 320 321 321 321 320 319 318 315 314 312 310 305 303 301 298 297 296 297 295 294 292 291 291
317 315 314 316 318 318 318 319 319 320 320 320 320 320 319 319 318 318 319 320 320 317 315 314 312 310 307 305 304 304 302 300 298 297 296 296 292 291 291 289 287 285 283
315 316 314 314 318 319 318 318 318 319 319 318 317 317 317 317 317 316 315 313 310 308 307 305 304 304 301 300 301 302 299 296 293 291 291 290 288 289 288 284 282 282 281
312 311 312 316 318 317 318 317 317 316 314 314 315 317 317 316 313 311 308 305 304 302 301 300 299 299 297 298 299 299 296 291 288 286 287 286 285 282 281 281 281 282 281
316 315 316 316 317 317 317 316 315 313 313 313 313 312 311 310 308 305 303 302 300 298 296 295 294 294 294 295 296 296 294 291 286 284 281 280 279 280 280 280 281 280 279
314 315 315 315 314 315 315 314 311 309 309 307 306 305 305 303 302 302 300 298 297 294 291 290 288 288 289 290 289 289 288 286 284 281 279 279 280 281 280 279 278 278 277
312 311 312 312 313 312 311 308 306 306 305 304 302 302 302 301 300 300 296 294 293 290 288 286 284 283 283 283 284 283 282 282 282 281 279 278 280 279 278 277 277 276 276
311 308 308 307 305 307 306 305 304 305 304 300 298 298 298 296 296 295 294 292 291 289 287 285 283 281 280 281 282 283 283 282 280 279 278 279 279 278 277 277 276 276 275
307 306 305 303 302 302 302 302 301 300 297 295 293 291 291 290 289 289 289 290 290 291 288 284 283 282 282 281 282 282 281 280 279 279 279 278 278 277 277 276 275 275 274
298 297 295 293 293 294 294 296 298 299 294 290 289 287 286 286 285 284 284 286 287 287 287 286 286 283 281 280 279 279 279 278 277 278 278 277 276 276 276 276 275 274 273

GFSMW_925_thetae_084.txt.gz
Theta_e
329 329 325 324 323 323 322 320 320 320 321 322 322 321 320 319 319 317 313 309 310 312 314 315 314 313 313 314 315 314 313 311 311 310 311 311 311 311 311 311 312 314 314
331 330 326 325 324 324 323 320 320 319 320 321 322 321 321 318 316 315 314 313 314 312 312 315 314 313 316 317 316 317 315 315 312 314 316 319 315 312 311 311 311 311 311
333 332 329 326 326 324 323 321 319 319 319 321 322 321 320 320 319 317 317 316 316 315 314 314 317 317 319 319 319 318 317 317 315 314 318 323 324 320 316 313 311 311 311
331 332 330 327 326 324 323 323 321 320 320 320 321 321 319 319 320 320 318 317 318 318 316 317 318 319 319 319 320 319 319 319 319 316 316 318 320 322 323 317 314 312 308
331 333 331 328 327 324 322 323 322 321 320 320 320 321 320 319 321 319 317 317 319 320 319 319 319 319 319 320 320 320 320 319 320 320 320 318 318 318 320 323 319 315 314
330 332 330 328 327 324 321 323 322 322 320 320 320 320 320 320 320 318 316 316 318 319 321 320 320 320 319 320 321 321 321 321 321 321 321 320 320 320 320 321 321 321 319
329 331 332 330 327 324 322 322 322 322 321 320 320 321 321 320 320 319 317 316 317 318 321 321 320 320 321 321 322 323 323 323 322 322 322 322 321 321 320 317 316 316 317
328 331 332 331 327 325 322 321 321 321 322 321 321 322 322 321 320 320 318 318 319 319 321 323 323 324 323 323 324 324 324 324 323 323 323 323 322 320 318 317 315 313 312
327 330 331 330 327 326 323 321 321 322 322 322 322 322 322 322 322 320 319 319 320 320 322 323 324 324 324 324 324 324 324 324 324 324 324 323 322 322 320 318 316 313 312
326 329 330 330 328 326 324 321 322 323 324 324 323 323 322 322 322 322 321 321 321 322 322 322 323 323 323 322 323 323 323 324 324 323 323 322 321 320 319 316 314 313 313
326 328 329 329 329 327 325 322 323 324 324 323 324 323 323 322 321 322 322 322 322 322 322 322 322 321 321 321 322 323 323 324 323 323 321 321 320 319 319 317 315 313 311
326 328 328 329 328 328 326 325 323 323 323 323 323 323 323 323 322 322 322 322 322 322 321 321 321 320 320 320 321 322 323 323 321 320 320 319 318 316 316 315 314 312 310
325 328 329 329 329 328 327 325 324 323 323 323 323 323 323 323 323 322 322 322 321 321 321 321 321 320 320 320 321 321 322 321 320 319 319 319 316 314 313 311 310 309 305
323 327 329 329 328 327 327 326 325 323 323 322 322 322 322 323 322 322 322 321 320 320 320 320 320 319 319 319 319 321 321 320 319 318 318 317 316 314 311 309 306 303 303
321 323 328 329 329 328 327 326 326 324 323 322 321 321 321 321 321 321 321 320 319 320 321 321 321 321 321 321 322 322 320 319 317 317 316 314 313 310 308 306 304 301 301
321 321 322 327 329 328 327 326 326 325 324 323 322 321 321 321 320 320 320 320 320 320 321 322 322 323 323 322 321 320 319 318 316 313 309 307 305 303 301 301 301 300 299
320 320 320 322 327 327 326 326 325 325 324 323 323 322 322 321 321 321 321 321 322 321 322 322 323 323 321 320 318 317 315 312 310 307 302 299 297 298 299 298 296 294 294
317 317 318 320 321 324 326 326 325 324 324 323 323 322 322 322 322 321 321 322 321 319 319 318 317 315 313 312 311 310 308 304 300 298 297 297 294 294 295 293 293 292 290
318 318 317 317 319 321 323 325 325 325 324 323 323 322 322 322 322 321 318 316 317 314 312 309 308 307 305 304 305 305 301 296 293 293 293 293 292 292 291 288 286 284 283
321 319 318 315 317 321 321 323 324 324 324 324 324 322 321 318 317 316 315 311 309 306 304 301 300 299 298 299 300 300 296 292 289 289 289 288 288 288 285 283 284 284 285
319 318 318 318 319 321 322 323 323 323 322 319 318 316 315 314 314 310 307 305 302 299 296 294 292 293 293 293 295 295 293 290 287 284 283 282 284 281 280 282 284 284 282
316 316 318 317 318 320 321 320 317 313 310 308 308 308 308 306 305 304 300 298 295 292 289 289 287 287 288 289 291 291 290 287 285 282 282 280 281 280 280 281 280 279 279
312 313 313 312 314 316 315 310 306 305 305 304 301 301 301 300 299 298 294 292 292 289 287 286 284 283 283 284 285 285 284 284 284 283 282 281 281 280 279 278 278 278 279
310 308 307 305 305 305 305 304 302 302 300 297 296 295 294 293 293 293 292 291 290 288 287 285 283 282 281 282 284 285 285 284 282 280 281 281 281 280 280 279 279 279 278
305 303 302 301 300 300 301 301 300 300 295 293 291 290 289 288 287 288 289 289 289 288 286 283 283 283 283 282 283 283 283 282 281 282 281 282 281 281 280 280 279 278 278
297 296 295 294 294 294 295 297 297 295 293 291 289 289 288 287 286 285 284 285 285 286 285 284 284 282 281 280 280 280 279 278 280 282 282 281 280 280 279 279 278 277 277

GFSMW_925_thetae_087.txt.gz
Theta_e
330 330 330 328 328 327 325 324 321 321 322 322 321 319 319 318 317 315 315 316 316 314 314 312 312 312 312 312 313 315 314 314 314 313 314 314 314 315 316 317 317 317 317
330 331 330 328 328 327 326 323 323 321 322 322 321 319 319 317 315 315 315 314 314 314 314 313 315 314 314 314 315 316 315 314 314 315 316 319 315 315 315 314 314 315 317
331 332 332 329 327 327 325 323 323 322 323 322 321 319 318 318 318 317 315 314 312 313 316 318 316 316 316 319 319 319 317 318 316 318 321 324 324 321 317 315 315 315 315
330 332 333 330 328 328 325 325 323 322 322 322 322 319 318 318 318 316 313 316 315 313 313 316 317 317 318 320 320 321 321 320 320 319 318 320 322 323 324 319 317 316 315
329 332 333 331 330 329 325 324 323 322 322 322 322 321 318 317 317 316 316 316 317 314 311 316 319 321 321 321 322 322 322 322 321 321 321 320 320 321 321 322 321 318 317
328 331 332 331 331 329 326 324 324 322 322 321 321 321 320 318 318 317 318 318 318 316 317 317 319 321 321 321 322 322 322 322 322 322 322 321 321 320 321 323 322 322 319
327 330 334 333 331 329 326 324 323 323 321 321 321 321 320 319 320 318 318 317 317 317 319 319 321 321 322 321 322 322 323 323 323 323 322 322 322 322 322 322 323 323 322
327 330 333 333 331 330 326 323 323 323 323 322 322 321 321 319 320 321 318 316 317 318 319 321 321 321 321 321 322 323 324 324 324 325 324 324 323 323 323 323 323 321 319
326 329 331 333 331 330 327 325 323 323 323 323 322 322 322 322 320 320 319 317 316 316 317 321 321 322 322 323 323 324 325 325 325 325 325 325 325 324 323 323 321 321 320
324 328 330 333 332 330 328 326 324 324 323 323 323 323 323 323 323 321 320 320 317 317 318 320 322 323 324 325 324 325 325 324 325 325 326 325 325 324 323 323 322 319 317
325 327 330 331 332 330 329 327 325 324 325 323 323 323 324 324 324 324 322 322 319 319 320 321 322 324 325 324 323 324 324 324 324 324 324 324 324 324 323 322 321 318 315
326 327 330 331 332 330 330 328 325 325 326 326 325 324 324 324 324 325 324 323 323 321 322 322 323 324 324 323 323 324 324 324 324 323 323 323 324 323 321 320 318 316 315
327 328 330 331 332 331 330 328 326 325 325 326 327 327 325 324 324 325 325 325 324 323 323 323 324 324 323 323 323 323 323 323 323 323 323 323 322 320 318 318 316 314 313
324 327 330 330 331 331 331 329 328 327 326 326 326 326 327 327 326 326 325 325 325 324 324 324 324 324 323 322 322 321 322 322 323 323 323 321 321 319 316 316 314 312 309
322 323 328 330 330 330 331 330 329 328 327 326 326 326 327 326 326 326 326 325 324 325 324 324 324 323 323 322 322 321 321 321 322 322 321 319 318 317 315 314 311 308 305
322 322 323 327 330 329 329 330 330 329 328 327 326 325 326 325 326 326 326 325 325 324 324 323 323 323 323 322 322 321 323 323 323 322 319 314 311 310 308 306 304 304 302
322 322 322 322 325 329 329 329 329 329 328 327 326 326 325 325 325 325 324 324 324 323 323 323 322 323 323 324 324 323 322 320 318 313 307 303 300 301 301 300 299 299 298
322 322 321 321 321 323 328 328 329 328 329 328 327 326 326 325 324 324 323 323 323 323 323 323 322 321 320 321 322 320 314 309 304 301 299 298 296 295 296 295 295 293 293
323 323 322 321 319 320 322 327 328 328 328 328 327 327 326 325 325 325 324 324 324 321 319 317 315 314 310 307 308 308 304 300 295 294 294 294 293 292 292 292 291 289 287
323 323 322 321 320 319 321 324 327 327 327 327 326 326 326 325 325 325 318 313 314 312 309 304 301 298 297 299 301 302 298 293 290 290 291 291 291 290 287 285 284 285 285
321 321 322 321 321 321 322 322 324 327 327 326 326 325 325 325 319 313 311 307 303 299 295 293 291 292 293 293 296 296 294 291 288 287 286 286 285 282 282 284 285 285 284
320 319 318 317 318 321 322 323 322 317 315 313 312 311 311 311 307 305 299 297 295 291 288 288 286 287 287 289 290 291 291 288 286 283 282 282 281 280 281 281 280 279 281
316 314 312 309 308 312 313 309 307 307 306 305 301 300 300 298 297 295 293 291 290 289 287 285 284 283 283 284 285 285 285 284 284 284 283 282 281 281 281 279 279 280 281
311 308 305 303 303 303 303 303 301 299 297 295 293 293 292 291 291 291 291 290 289 287 286 285 283 283 283 283 285 286 286 285 284 282 282 282 282 282 281 281 281 281 280
301 301 299 297 296 299 298 297 296 296 293 292 291 289 288 287 286 286 287 286 287 286 284 283 284 284 283 284 285 285 284 283 283 283 283 283 283 283 282 282 281 280 279
295 294 293 293 292 292 292 295 294 293 291 290 289 288 287 286 285 284 284 284 285 285 285 284 283 281 281 281 280 280 280 281 283 284 283 283 282 281 280 280 279 278 278

GFSMW_925_thetae_093.txt.gz
Theta_e
323 327 329 328 328 327 325 324 323 322 323 322 321 321 321 322 323 324 325 327 327 326 323 322 321 320 322 320 318 317 316 317 317 317 317 318 318 319 318 318 317 317 317
324 328 327 328 327 325 324 323 323 322 322 322 320 319 319 318 319 319 319 322 321 323 322 321 323 321 320 318 316 316 316 316 316 316 315 313 316 318 318 318 318 318 317
325 329 327 327 325 324 323 323 322 323 322 321 319 317 317 315 315 316 316 316 318 321 323 323 322 321 321 318 316 316 316 315 316 316 315 315 315 313 316 318 317 318 318
328 329 328 327 325 324 324 323 322 323 322 320 318 317 316 316 315 315 315 315 317 320 320 321 320 320 318 317 316 316 316 315 315 315 317 319 321 316 317 315 315 317 318
329 330 328 328 325 324 323 323 322 323 321 320 318 316 315 315 315 315 314 315 316 317 317 317 316 314 313 314 314 315 315 315 314 314 315 317 319 320 319 317 315 315 315
329 330 328 328 325 323 323 323 323 323 321 319 317 316 315 314 314 314 315 314 314 314 315 314 314 314 313 314 313 313 315 315 314 313 315 317 318 319 319 317 317 317 317
328 331 329 328 326 324 322 323 323 324 321 319 317 316 316 315 315 314 315 314 314 315 314 314 313 313 313 315 315 313 316 318 319 319 319 319 320 320 320 320 318 318 319
328 331 330 328 327 324 323 323 322 324 322 320 318 316 317 316 315 314 316 314 314 314 315 316 316 316 314 315 316 315 318 320 320 319 320 322 322 322 322 322 320 316 318
328 331 330 329 328 325 323 323 322 322 323 322 319 317 317 317 316 315 314 315 315 314 315 315 318 318 317 316 316 318 320 321 318 319 321 321 321 321 321 321 321 321 317
325 331 330 329 329 326 324 323 322 322 322 323 322 319 317 317 317 315 315 315 315 315 316 314 313 316 318 319 319 320 320 321 321 322 322 321 321 322 322 323 322 322 321
320 324 331 330 330 327 324 323 323 322 322 322 322 322 319 318 317 317 315 316 316 316 316 315 314 314 314 316 319 320 321 322 322 322 321 322 321 322 322 322 322 322 322
320 321 331 330 330 328 324 324 323 323 322 322 322 322 322 320 318 317 317 316 317 316 316 315 315 315 314 317 320 321 321 321 322 322 322 322 322 322 322 322 322 322 322
323 322 331 330 330 328 325 324 323 322 322 322 322 322 323 322 320 319 319 317 317 316 315 316 316 317 318 318 318 319 320 321 321 322 322 322 322 322 323 322 322 323 322
322 323 331 330 330 329 327 325 324 323 322 323 322 322 322 323 322 319 319 320 319 317 316 316 315 316 316 318 319 321 320 320 320 321 321 322 322 322 323 323 323 323 321
320 323 324 330 330 329 328 327 325 324 323 323 323 322 321 321 322 322 321 320 320 320 319 318 316 316 316 316 319 321 321 321 321 322 322 323 323 323 323 323 322 321 319
320 321 321 325 330 329 329 328 326 325 325 325 323 323 322 322 323 324 324 323 322 321 320 320 319 318 317 317 317 318 320 321 323 323 322 320 319 318 317 318 318 314 310
322 322 322 321 320 322 329 329 327 326 325 325 325 324 323 323 323 324 324 324 325 325 323 322 321 320 319 320 320 320 322 323 323 321 319 313 308 306 307 305 304 302 301
322 322 321 321 320 321 321 321 329 327 326 325 325 326 326 325 324 324 323 323 324 324 325 324 323 323 322 322 323 323 322 319 316 313 309 305 300 300 300 297 295 293 293
321 320 319 318 317 317 319 321 322 328 327 326 326 326 326 327 326 326 325 324 325 324 324 324 323 323 319 317 321 322 315 308 301 298 297 297 294 293 294 294 290 287 285
315 314 312 310 309 309 314 316 314 317 325 327 327 326 326 326 326 326 326 326 326 321 317 316 314 313 312 308 311 314 308 298 292 290 290 290 289 288 289 288 286 284 283
308 308 306 304 303 304 310 308 307 307 306 308 325 327 327 327 326 326 322 317 312 307 303 300 296 297 299 298 301 304 300 291 286 285 285 285 286 286 285 285 283 283 283
303 302 302 300 299 299 302 301 300 301 302 305 302 303 309 314 318 317 308 306 305 299 293 292 289 289 290 291 293 293 293 288 285 283 282 281 281 282 282 282 282 282 282
298 298 297 297 297 297 297 296 295 295 296 297 296 294 296 298 298 299 297 295 293 290 288 287 285 285 285 285 286 285 286 285 283 283 283 283 282 282 282 281 280 280 280
295 295 296 295 295 294 294 293 293 293 291 289 289 289 289 288 289 290 291 290 289 288 287 286 284 284 284 284 284 284 284 283 283 283 282 282 282 281 281 280 279 279 278
292 291 291 290 290 291 292 291 291 294 288 287 286 286 285 285 285 285 285 285 286 286 286 285 285 285 284 284 284 284 283 283 283 282 282 282 281 280 279 278 277 276 275
288 288 288 288 287 288 289 290 290 289 290 286 285 284 284 283 283 283 283 283 283 285 284 284 284 284 284 284 284 284 284 283 282 281 280 279 279 278 277 276 275 274 273

GFSMW_925_thetae_096.txt.gz
Theta_e
317 327 328 327 326 326 326 325 324 324 323 323 324 322 323 325 328 328 328 327 327 327 324 322 314 311 317 317 315 314 317 318 318 317 317 318 318 317 317 316 314 314 313
323 326 326 325 325 324 324 323 323 323 323 322 321 321 321 321 323 325 327 328 327 325 324 321 315 314 319 318 317 317 317 317 317 317 317 314 316 317 317 317 317 317 315
325 327 326 324 323 323 322 323 323 322 322 321 321 320 319 319 319 321 322 324 327 327 323 322 316 318 319 318 318 317 317 317 317 317 316 314 315 314 316 317 318 317 317
324 327 327 324 323 322 322 323 323 322 320 321 320 319 317 316 316 317 318 321 324 325 323 320 317 319 319 317 317 316 316 316 315 316 315 315 315 314 314 315 317 318 318
323 327 327 325 323 322 322 323 322 322 321 321 320 318 317 317 316 315 316 318 319 320 320 319 319 319 318 317 316 316 315 315 315 315 316 319 319 318 316 314 314 315 317
323 327 327 325 323 322 322 321 322 320 320 320 319 318 317 316 315 315 316 317 316 316 316 317 318 319 319 317 316 316 316 315 315 315 316 318 319 318 318 316 315 314 315
322 327 327 324 323 321 321 321 322 319 320 320 319 317 316 316 315 315 315 316 317 318 319 319 319 319 318 317 316 315 315 315 315 314 314 314 317 319 319 319 317 317 318
327 328 327 324 323 322 321 322 322 320 320 319 318 316 315 315 315 315 315 315 316 317 318 317 317 318 317 316 315 314 312 313 314 316 315 314 315 318 319 319 318 315 316
327 329 327 325 324 322 322 322 322 321 320 319 318 316 315 315 315 315 315 315 314 315 315 315 314 314 314 314 314 314 315 314 313 315 318 319 319 320 320 321 321 319 315
330 329 328 326 324 323 322 321 322 322 320 320 318 316 316 315 315 314 315 314 314 314 314 314 314 314 314 314 316 316 316 317 315 319 320 318 317 319 321 321 321 321 320
327 330 329 327 326 323 322 321 321 322 321 321 319 317 316 316 316 315 314 315 314 314 315 314 315 314 316 316 315 315 316 316 317 319 320 320 319 320 321 321 320 320 320
320 329 329 328 325 323 322 321 321 321 322 322 321 319 317 317 316 316 314 314 315 314 314 315 315 316 317 317 317 317 317 319 318 319 320 320 320 319 320 320 321 321 321
318 320 329 329 326 324 323 322 321 321 321 322 322 321 319 317 317 317 316 314 315 315 315 314 315 314 314 315 317 318 318 319 319 320 320 320 320 320 320 320 321 321 321
319 325 329 329 327 325 323 323 322 321 321 321 322 322 322 320 318 317 317 316 315 315 315 316 315 315 314 313 314 316 318 319 320 320 320 320 320 320 320 321 321 321 321
319 325 328 329 328 326 324 323 322 322 321 321 321 320 321 322 321 319 317 317 316 316 315 315 315 315 315 315 316 316 316 317 318 319 319 320 320 320 320 321 320 320 319
323 322 324 328 329 327 325 324 323 322 321 321 320 320 320 321 322 321 319 318 318 318 316 315 315 314 314 314 315 316 318 319 320 320 320 320 320 320 320 320 320 318 317
322 321 320 319 319 321 327 326 324 323 322 321 321 321 321 320 321 322 321 319 319 319 319 318 316 315 315 315 315 315 315 317 318 320 320 319 314 312 311 310 310 308 307
317 314 313 312 310 312 317 319 326 325 323 323 322 322 322 321 320 321 321 322 321 320 320 319 319 319 318 318 317 316 315 315 316 318 318 316 311 305 303 302 300 296 295
311 309 307 307 306 308 310 311 312 321 325 324 324 323 322 322 321 321 322 322 322 322 322 322 321 320 320 320 319 318 317 312 310 309 306 303 299 295 295 296 290 287 284
307 306 304 303 302 303 305 305 305 306 307 308 311 320 324 323 323 322 322 322 322 322 322 322 323 322 321 319 321 321 316 306 300 295 293 293 292 290 289 288 285 284 283
302 303 302 301 299 299 302 301 300 301 301 301 304 310 320 323 324 324 323 322 321 317 311 308 305 306 304 301 302 305 310 302 290 287 286 287 288 289 288 286 285 283 283
299 299 299 297 296 296 298 297 296 295 295 295 296 297 299 304 310 317 312 309 309 301 294 291 290 291 292 292 291 291 290 287 284 283 283 283 283 283 284 283 283 283 283
295 295 295 294 293 293 293 293 292 292 293 293 290 291 292 292 293 295 296 295 294 291 289 287 286 285 285 285 286 285 283 283 283 283 283 283 282 282 282 281 281 281 280
291 291 292 291 291 291 291 290 290 289 289 288 288 287 287 287 288 288 289 290 290 289 288 286 285 284 284 284 284 284 284 284 283 282 282 281 280 280 279 279 278 277 277
289 289 289 289 289 289 289 290 289 288 287 286 286 286 285 285 285 284 285 285 286 286 286 285 284 284 284 284 284 283 283 283 282 281 281 280 279 278 277 276 275 275 274
286 286 286 287 287 287 288 288 288 287 285 284 284 284 284 284 284 284 284 284 285 285 285 285 285 284 284 284 283 282 282 282 281 280 279 278 277 276 275 274 274 273 272

GFSMW_925_thetae_099.txt.gz
Theta_e
312 316 322 326 326 327 327 327 326 325 325 325 325 325 325 326 328 327 328 327 327 327 326 324 324 318 315 316 316 316 316 318 318 317 316 316 316 316 316 316 315 315 314
319 324 326 325 325 325 325 325 325 324 325 324 323 323 323 324 325 327 327 327 327 326 325 323 323 314 314 315 314 315 316 316 317 317 316 315 315 316 316 316 315 314 314
316 325 326 325 325 324 324 323 323 325 323 323 323 322 321 321 322 323 325 327 326 325 325 321 321 314 315 316 313 316 317 316 317 317 317 314 317 315 316 316 316 315 315
315 324 326 325 324 324 323 323 322 324 322 321 321 320 318 318 319 321 321 324 327 327 326 322 319 312 317 316 314 315 317 317 316 317 317 316 316 316 313 316 316 316 316
312 324 326 325 324 323 322 322 322 322 321 320 320 320 319 318 319 319 320 321 322 323 324 323 317 313 318 317 316 316 317 317 316 316 316 317 315 315 314 313 313 316 317
311 322 325 325 323 321 321 322 321 321 320 319 320 320 319 317 317 317 317 318 320 322 323 320 318 315 317 317 316 316 317 317 316 316 316 317 318 318 318 315 313 314 315
313 321 326 324 323 321 321 321 321 320 318 319 320 319 318 318 317 316 316 317 317 319 320 319 317 316 317 317 317 318 317 317 314 314 316 316 316 318 319 318 316 315 315
318 321 326 324 323 321 321 321 321 320 318 319 319 318 318 317 316 316 316 316 316 316 317 318 317 316 316 317 317 316 315 314 313 315 315 315 316 318 317 318 317 314 315
321 322 326 324 323 322 321 321 320 320 319 319 318 318 318 316 316 315 316 316 317 316 316 316 316 316 316 316 316 316 315 315 315 315 314 314 314 314 316 317 318 317 315
320 325 326 324 323 322 321 321 321 320 319 318 317 316 316 316 316 315 315 316 317 318 318 317 318 318 317 316 316 316 315 314 313 314 313 315 316 317 318 319 319 319 318
319 328 327 324 323 322 321 321 321 320 319 318 317 316 315 315 316 315 315 315 316 316 317 317 317 316 315 316 315 316 315 314 315 315 316 316 318 319 318 317 318 319 319
318 318 327 325 324 322 321 321 321 320 319 318 317 316 316 315 315 315 315 315 315 315 315 315 315 316 316 315 315 315 315 316 315 315 316 317 316 319 319 319 319 319 320
320 319 327 327 324 323 322 321 321 321 320 319 318 316 316 316 315 315 315 315 314 314 314 314 315 315 315 315 315 315 315 315 315 316 316 317 318 318 319 319 319 319 319
322 321 324 327 325 323 322 321 321 321 321 319 319 318 316 316 316 316 315 314 315 314 314 315 314 314 315 314 315 316 316 316 316 316 316 316 318 319 319 319 319 319 319
321 320 325 327 325 323 323 322 321 320 321 321 320 319 318 317 317 316 316 315 315 315 314 314 314 315 314 315 316 316 317 317 318 318 318 318 318 319 319 319 319 319 319
319 316 316 316 323 324 323 322 321 321 320 320 321 320 321 320 318 317 317 317 316 315 315 314 314 314 314 314 314 314 314 315 316 316 317 319 319 319 319 320 320 319 317
315 312 311 311 312 313 316 323 322 321 321 321 321 320 320 321 321 320 318 317 317 316 315 315 314 314 314 314 314 314 314 314 315 316 316 316 317 317 316 314 312 310 311
311 309 308 307 306 308 309 312 322 322 322 321 321 320 319 320 320 321 321 319 318 318 317 316 315 315 314 314 314 314 314 315 315 315 316 317 317 314 309 306 303 299 297
308 306 305 303 303 305 305 306 307 316 321 316 320 321 321 320 320 320 321 321 319 319 318 319 318 316 315 316 315 315 314 313 312 312 314 313 312 306 302 301 295 287 284
302 302 300 299 298 299 302 303 303 304 304 304 304 309 315 321 321 320 320 320 320 321 320 319 319 318 318 318 318 317 316 311 307 304 303 301 299 292 290 290 285 284 283
298 298 297 296 295 296 298 297 297 297 297 298 300 303 306 310 315 321 321 320 321 321 319 316 312 313 313 315 317 317 314 308 297 292 289 288 288 287 287 287 286 284 283
294 295 295 294 293 293 294 293 292 292 292 292 293 294 297 301 303 309 308 312 310 305 300 295 292 294 295 295 296 297 298 291 288 285 285 284 285 286 286 285 284 284 283
292 292 292 292 291 292 291 291 289 289 289 288 288 289 290 291 294 295 295 294 294 291 290 289 288 288 286 286 291 290 286 285 284 283 283 284 284 284 282 282 281 281 280
290 290 290 290 290 290 290 289 288 288 287 286 286 286 286 287 288 290 290 289 288 287 286 286 285 285 285 284 284 285 286 286 284 282 281 280 279 279 280 280 279 278 277
288 288 288 288 288 288 287 287 287 286 285 285 285 285 285 285 285 285 286 287 288 291 286 285 285 284 284 284 284 283 283 282 280 280 279 279 278 276 276 275 275 275 274
286 285 286 286 286 286 285 285 285 285 284 284 284 284 284 285 285 285 284 284 285 285 285 285 284 284 284 283 283 282 282 281 280 279 278 277 276 275 274 273 273 272 272

GFSMW_925_thetae_102.txt.gz
Theta_e
310 313 318 315 321 326 327 328 328 330 329 326 326 328 328 329 330 331 328 328 327 327 326 325 321 319 319 320 319 317 317 317 317 316 316 316 317 317 317 317 317 317 316
311 312 323 323 323 325 326 325 326 328 326 324 324 325 325 324 326 326 328 328 327 327 326 324 321 322 319 319 318 317 316 317 317 317 316 316 315 316 317 317 317 316 315
310 311 322 323 324 325 324 325 325 326 324 323 323 321 321 322 324 325 327 327 327 326 326 323 320 320 319 318 317 316 317 317 317 317 317 316 317 315 316 316 316 316 315
315 310 317 322 323 324 324 323 324 324 323 324 321 321 320 320 320 322 324 326 326 325 325 323 320 319 315 313 315 316 317 317 316 317 318 318 317 316 314 315 315 315 315
316 313 313 322 324 324 322 323 324 322 323 322 322 321 319 319 318 319 321 323 324 324 324 325 322 320 314 315 314 315 316 317 317 317 315 315 317 316 313 314 313 315 316
316 316 315 322 324 323 322 322 322 321 320 322 320 319 318 318 318 318 318 320 320 321 324 322 321 320 314 316 314 315 316 316 317 317 317 315 316 316 316 313 312 314 317
316 316 317 322 323 322 322 321 321 320 319 319 318 319 319 319 318 317 317 318 319 320 322 323 319 317 316 316 314 315 316 316 317 317 316 315 314 316 316 317 315 314 314
316 317 317 320 323 323 322 322 321 320 319 319 318 319 319 318 317 317 316 317 318 319 320 322 319 316 316 315 313 314 316 317 316 317 315 313 314 316 314 315 318 315 314
316 317 318 321 323 323 322 322 321 321 319 319 316 318 318 318 317 317 317 317 317 317 319 320 318 316 316 314 314 312 315 316 315 315 313 312 314 315 316 317 316 317 317
316 317 318 323 324 323 322 321 321 320 319 318 316 318 318 318 317 317 316 317 317 317 317 318 316 316 316 314 313 315 314 316 314 313 312 312 315 315 315 315 315 315 316
316 316 319 324 323 322 321 321 320 320 319 318 315 316 317 317 317 316 316 316 317 316 316 317 316 316 316 315 316 316 315 314 315 313 314 314 315 315 314 316 318 318 319
317 317 320 322 323 322 321 320 320 320 319 317 315 315 317 316 316 316 315 316 317 317 316 317 316 316 316 316 316 316 315 314 315 315 314 314 315 314 314 317 319 318 317
318 319 318 324 323 322 321 320 320 320 319 318 316 314 315 315 315 315 315 315 316 317 317 317 317 316 316 316 315 315 315 315 315 315 315 315 315 316 317 317 318 318 318
319 317 317 325 323 322 320 320 320 320 320 318 316 315 315 315 315 315 315 315 315 315 315 315 317 317 317 316 315 315 315 315 315 315 315 315 316 315 316 317 317 317 318
318 314 314 314 322 322 322 321 321 320 319 319 318 316 315 316 315 315 315 315 315 314 314 314 314 315 315 316 315 315 315 315 315 314 314 315 315 314 315 316 318 318 318
314 312 310 311 311 312 321 321 321 321 320 319 319 318 317 316 316 316 315 314 314 314 314 313 314 314 314 315 315 315 315 315 315 315 315 314 314 315 317 318 318 318 317
311 309 307 306 306 307 307 317 321 321 321 321 320 319 319 318 317 316 316 316 315 314 314 314 314 314 314 314 314 314 314 314 315 315 316 316 317 317 317 317 316 314 314
306 305 303 301 301 303 304 308 319 322 321 320 321 320 320 320 320 318 317 317 316 316 315 315 315 314 314 314 314 314 314 314 314 314 315 315 314 314 314 312 307 302 301
302 300 298 297 297 299 301 303 304 307 308 309 311 314 318 319 320 320 320 319 318 317 317 316 315 315 314 315 315 314 314 313 313 313 314 314 314 315 312 307 298 289 285
298 298 296 295 294 296 297 297 297 297 298 299 299 301 306 310 317 319 319 320 320 318 318 317 317 316 316 316 316 316 314 311 311 309 309 309 310 309 304 301 293 284 282
295 295 294 293 293 293 294 293 293 292 293 293 293 295 298 299 303 312 318 319 320 319 316 312 306 307 307 311 313 313 314 310 304 300 296 295 295 291 289 289 286 283 282
293 293 293 292 291 291 291 290 290 290 290 290 290 291 292 293 296 300 303 308 312 307 297 295 292 292 293 294 298 301 301 294 288 286 286 286 285 285 286 285 282 281 281
290 291 291 291 290 289 288 289 288 288 288 288 287 288 289 289 290 291 292 293 293 291 288 287 286 285 286 286 287 290 293 293 290 286 283 282 281 280 280 280 281 281 280
288 288 289 288 288 287 286 286 286 286 286 286 286 286 286 286 287 287 288 288 288 288 287 286 285 285 285 285 285 284 283 282 281 280 279 279 279 279 280 280 278 277 277
286 287 287 287 287 286 285 285 286 285 285 285 285 285 285 285 284 284 285 285 286 286 286 285 285 284 284 283 282 281 280 280 279 279 280 279 278 276 276 275 275 275 274
285 285 285 285 285 285 283 283 284 283 283 283 283 284 284 283 283 282 282 283 284 284 284 284 284 283 283 282 281 280 280 280 280 278 276 275 275 274 273 273 272 272 271

GFSMW_925_thetae_105.txt.gz
Theta_e
315 314 314 315 318 316 324 327 328 329 329 329 330 328 329 328 329 327 326 327 326 326 326 326 327 325 323 321 318 318 319 317 318 318 318 318 318 319 319 319 319 319 319
315 317 316 318 322 322 325 327 327 327 328 328 328 328 327 326 326 326 326 327 326 327 326 326 326 325 323 320 319 318 318 317 317 319 318 318 317 318 318 318 318 319 318
316 320 318 316 320 324 325 326 327 326 328 328 327 325 325 324 325 324 326 327 328 327 327 326 322 320 319 317 318 318 319 317 317 318 320 319 320 318 318 318 318 318 318
320 319 319 318 318 322 325 325 325 325 327 326 325 324 324 324 323 324 327 327 327 327 326 324 321 319 317 317 318 318 318 318 317 317 317 318 317 320 319 317 317 317 317
319 319 319 318 319 321 324 325 324 323 325 325 324 323 323 322 321 322 323 324 325 326 324 324 321 319 319 319 319 319 319 318 318 317 316 317 317 318 318 319 317 317 316
318 318 318 318 319 323 324 324 322 323 322 323 322 321 321 321 320 319 319 321 324 325 323 322 321 320 317 317 317 317 318 318 318 318 317 317 317 316 316 318 318 317 316
318 319 319 319 319 321 325 323 322 322 321 322 321 320 321 320 319 318 319 319 321 321 323 320 320 320 319 317 317 316 317 318 318 317 317 316 316 316 315 319 318 318 317
318 318 318 318 318 322 324 323 322 321 320 320 319 320 320 320 320 319 318 319 320 319 321 322 321 319 317 315 314 314 315 317 317 317 317 315 313 313 315 318 317 321 319
318 318 318 318 318 321 324 322 321 321 320 319 318 318 319 320 320 318 317 317 318 318 320 322 321 319 316 315 314 314 315 316 317 317 316 315 313 311 311 314 316 317 321
317 318 319 319 319 320 324 322 321 321 320 319 321 319 318 319 319 318 316 318 318 317 317 320 321 319 317 316 314 314 315 316 316 316 316 315 314 312 312 315 315 315 317
318 318 319 318 318 319 324 322 321 321 320 319 319 317 317 318 318 317 317 318 318 317 317 319 319 317 317 315 314 313 313 315 314 315 316 315 314 313 315 314 314 315 315
318 317 316 316 319 321 323 322 321 321 319 319 318 316 316 317 317 317 317 317 317 316 316 317 317 317 316 315 314 312 312 314 314 314 314 314 314 314 313 314 315 314 315
317 317 314 313 317 323 322 321 320 320 319 318 316 314 315 316 317 317 317 317 317 317 315 317 316 316 316 315 314 314 312 313 314 313 314 314 313 314 314 315 315 315 316
317 314 312 310 312 323 321 320 320 320 319 318 316 314 314 316 316 316 316 316 316 316 316 317 316 316 316 316 315 315 314 313 313 314 314 314 314 313 314 315 315 315 316
314 312 309 307 307 311 318 320 320 320 319 318 317 315 314 315 316 316 316 316 315 316 317 316 316 316 316 316 316 315 315 315 315 315 314 315 314 314 314 315 315 316 316
309 308 305 304 303 304 308 320 321 320 319 318 317 316 315 315 315 316 316 316 315 315 316 315 316 317 316 316 316 315 315 315 315 315 315 315 315 315 315 315 315 315 316
305 304 302 301 300 300 303 310 318 321 320 319 319 317 316 316 316 316 316 315 315 315 315 315 314 314 315 315 317 316 316 315 315 315 315 315 314 314 314 315 316 316 316
302 300 299 297 296 298 299 302 316 321 321 321 320 319 318 317 316 316 316 316 315 315 315 314 314 314 314 314 314 315 315 316 316 316 316 315 315 315 315 313 310 307 305
298 297 296 295 294 295 296 297 299 301 302 302 303 305 314 318 319 317 317 317 317 316 315 315 314 314 314 314 314 314 314 314 314 314 314 315 315 314 314 312 304 296 289
295 296 294 293 292 293 294 294 294 294 294 295 295 297 301 303 308 312 318 318 318 317 316 315 314 314 313 313 314 314 313 312 311 310 310 311 311 311 311 307 301 289 282
293 293 293 291 290 291 291 291 291 291 291 291 292 293 295 296 299 302 307 314 318 316 310 303 300 301 303 306 309 312 309 309 305 301 299 299 299 294 290 291 287 283 281
290 291 291 290 289 289 290 289 289 289 289 289 289 289 291 292 293 295 297 301 302 297 293 292 290 291 293 298 301 303 305 303 299 290 287 286 288 288 288 284 280 280 280
289 289 290 289 288 287 287 288 287 287 287 287 287 287 287 288 289 290 290 291 292 290 288 287 286 285 286 287 288 291 292 290 287 285 283 282 281 280 279 279 281 281 280
287 287 288 288 287 286 285 285 286 287 287 286 286 285 285 285 286 286 286 287 288 288 287 286 285 285 284 282 282 281 280 280 280 278 279 279 279 279 280 280 279 278 277
285 285 286 286 285 285 284 284 285 286 286 286 285 284 284 284 284 284 285 285 285 285 285 285 284 283 282 281 281 281 280 279 279 279 279 278 277 276 275 275 275 274 274
284 284 284 284 284 283 283 283 282 283 285 285 284 284 284 283 283 283 282 282 283 283 283 282 282 282 281 281 281 280 280 280 282 280 278 278 277 276 275 275 274 273 273

GFSMW_925_thetae_108.txt.gz
Theta_e
319 317 318 321 322 322 322 321 325 330 332 335 333 331 330 331 332 331 331 331 330 330 329 328 328 326 324 322 320 320 320 320 320 321 323 322 321 321 320 319 319 320 319
315 318 321 323 323 324 325 325 327 330 332 332 331 331 330 330 330 330 331 329 329 328 327 327 326 326 321 321 320 321 320 319 319 321 320 321 320 321 320 319 319 320 320
318 321 323 323 323 324 325 326 327 330 331 331 329 331 330 330 329 329 328 327 328 326 327 326 326 325 323 320 319 320 319 318 320 320 321 321 322 321 320 320 318 319 319
322 323 323 323 323 324 325 326 327 329 330 331 329 331 330 329 329 328 328 327 326 326 326 326 324 326 323 320 319 319 319 319 320 320 321 320 320 322 322 320 318 318 318
323 323 323 323 322 323 327 327 327 328 328 330 329 330 331 331 330 329 328 325 326 325 328 326 325 324 322 322 319 319 319 318 319 320 319 321 320 320 320 321 318 318 318
322 322 322 322 322 323 325 328 328 327 326 328 329 330 332 331 328 326 325 324 325 325 326 325 324 322 320 319 318 319 318 318 319 319 318 320 321 320 320 320 318 317 317
321 321 321 322 322 322 323 327 328 326 325 326 327 330 331 329 328 327 325 323 324 325 324 323 321 320 319 318 318 319 319 319 318 318 319 319 320 319 318 318 318 318 317
320 320 320 321 321 321 323 325 327 325 324 324 325 327 328 329 327 325 323 321 323 324 324 322 321 321 319 318 318 319 319 319 318 318 319 319 319 318 316 316 320 322 320
320 321 321 321 321 321 322 324 326 325 324 323 323 323 325 327 326 324 323 322 323 323 324 323 322 320 318 318 317 318 318 319 318 318 318 318 319 318 316 315 319 318 320
322 321 320 320 318 318 320 323 326 324 323 322 321 320 326 326 325 324 321 321 321 322 322 322 321 319 318 317 316 316 317 318 319 319 318 318 318 317 315 316 316 318 318
321 320 319 317 314 317 315 324 324 323 323 321 320 322 325 325 324 323 320 320 322 321 321 323 321 319 318 317 316 315 315 316 317 317 317 317 316 315 313 314 314 316 317
320 318 317 314 312 310 307 323 323 323 322 321 321 322 323 324 322 321 320 320 321 321 321 320 319 319 318 316 315 314 315 315 316 316 316 316 315 315 315 315 315 316 316
320 317 316 313 310 306 306 321 323 323 322 321 321 321 320 322 320 321 320 320 321 321 320 320 318 317 317 316 315 314 314 315 315 315 315 314 315 315 314 314 316 317 316
316 313 313 312 306 304 303 307 323 322 320 320 320 319 319 320 320 320 320 320 320 319 319 318 319 318 317 316 315 314 313 313 314 314 314 314 315 315 314 314 314 314 314
312 309 308 307 304 302 301 302 321 320 319 319 318 318 318 318 320 320 319 319 319 319 319 319 319 318 317 316 315 314 313 313 313 314 313 313 314 314 314 314 314 314 315
307 306 303 302 301 299 299 300 317 320 319 319 318 317 317 317 318 320 319 319 318 319 319 318 318 317 317 317 316 315 314 313 313 313 314 313 313 314 314 314 313 315 315
303 303 299 299 297 297 297 299 304 320 319 319 318 318 318 317 317 318 318 319 319 319 319 318 319 318 317 316 316 315 315 315 314 314 314 314 314 314 314 315 314 314 315
299 299 297 296 294 294 296 296 306 317 316 315 317 318 318 319 319 318 318 318 318 318 318 318 318 317 317 317 316 316 315 315 315 315 314 314 314 314 314 314 314 312 310
296 295 295 293 292 292 293 293 295 298 300 300 301 302 308 314 317 317 318 319 318 319 319 318 317 316 315 315 315 315 315 317 317 316 316 315 315 315 314 314 308 297 292
293 293 293 292 291 291 292 292 292 292 293 294 294 296 298 302 304 310 315 317 318 318 316 315 314 314 314 314 314 314 313 313 315 317 315 316 316 316 316 311 303 289 284
291 291 292 291 290 290 291 291 291 291 291 291 291 291 293 295 297 300 306 309 314 312 306 302 300 302 302 306 311 313 312 311 309 303 301 303 307 308 301 300 293 286 282
289 290 290 290 289 289 290 290 289 290 291 290 289 289 290 290 292 295 296 297 297 294 291 291 290 290 291 296 302 305 307 306 303 293 291 290 293 292 292 291 287 284 284
288 288 288 288 288 288 288 289 289 289 288 288 287 287 288 288 288 289 290 290 291 289 288 287 285 284 285 285 288 290 291 291 288 285 283 281 281 280 279 278 279 281 280
286 286 287 287 286 286 286 287 288 289 288 288 287 286 285 285 286 286 286 287 288 287 286 285 284 282 282 282 282 282 281 280 280 279 279 279 279 279 280 281 280 279 278
286 285 285 285 284 284 285 286 287 289 289 288 287 286 285 284 284 284 284 284 285 285 284 284 283 282 282 282 281 282 281 280 281 281 281 281 281 281 280 279 278 278 278
285 284 284 283 283 283 282 283 285 287 289 287 286 286 285 284 284 283 283 282 282 282 282 282 282 282 281 281 281 281 281 282 283 283 283 283 282 281 280 279 278 277 277

GFSMW_925_thetae_111.txt.gz
Theta_e
323 322 322 321 321 322 322 322 323 326 334 336 338 340 336 335 335 336 335 334 333 333 331 331 332 330 328 326 326 325 324 323 324 325 324 324 323 323 321 321 321 321 321
322 323 320 320 323 324 324 325 325 325 328 333 335 339 334 333 333 334 335 334 333 331 330 331 331 329 327 325 325 323 321 321 323 324 323 323 322 322 321 321 320 319 320
319 319 319 323 324 324 325 326 326 327 328 332 336 335 333 332 332 332 334 334 332 331 331 331 329 328 327 325 323 321 321 321 322 322 322 323 324 322 321 320 320 321 320
317 319 322 323 324 325 325 328 327 327 329 332 334 333 333 332 331 332 333 333 332 331 330 329 328 327 325 323 321 321 321 320 321 320 320 320 321 323 323 321 320 321 320
322 322 323 323 322 322 324 327 329 329 329 331 334 332 332 332 333 333 332 331 331 329 329 328 327 326 324 323 322 321 320 319 319 320 321 320 321 321 322 322 321 320 319
322 322 322 321 321 322 323 325 328 329 329 330 332 333 331 334 333 333 333 330 330 330 328 327 326 325 325 323 322 321 320 318 318 319 320 321 321 321 322 322 321 320 320
321 321 321 321 320 321 323 323 324 328 329 330 330 332 331 334 334 334 333 331 329 329 327 326 325 324 323 323 321 320 319 319 319 320 320 321 321 321 320 320 320 320 318
321 321 321 322 321 321 322 322 324 325 329 329 327 330 330 332 334 332 330 329 327 328 326 325 324 324 323 322 321 320 319 319 319 320 319 320 321 320 320 320 320 320 319
320 321 321 321 321 320 319 320 321 324 326 328 327 328 329 331 332 332 331 328 326 326 326 324 323 322 322 321 320 319 319 319 319 319 320 319 319 320 320 318 318 320 322
320 321 321 319 318 317 316 318 320 324 325 327 326 327 327 330 331 330 329 327 325 325 325 323 323 322 321 320 319 319 319 319 319 319 319 319 319 319 319 316 320 319 319
321 320 319 317 316 315 314 315 316 324 326 326 325 325 325 328 330 329 327 325 324 324 324 324 322 321 320 319 318 318 319 319 319 319 318 318 319 318 318 318 317 316 318
320 319 319 317 316 313 311 310 309 321 326 325 324 323 323 327 328 327 324 324 324 324 323 324 322 320 320 318 317 317 317 318 319 319 319 318 318 317 318 318 318 316 316
318 317 316 315 314 312 309 306 305 308 323 323 322 322 322 326 326 325 322 322 324 323 322 322 322 319 319 318 317 317 316 317 317 318 318 318 317 316 315 314 315 315 316
314 313 312 311 311 309 306 303 302 306 323 322 322 323 324 325 323 322 322 321 323 322 321 320 320 318 319 318 317 316 315 315 316 317 317 316 316 316 316 315 315 314 315
310 310 308 307 307 305 302 300 301 304 320 322 322 321 322 322 322 321 321 321 322 322 320 319 319 319 318 317 316 316 315 315 315 315 316 316 315 315 315 314 314 314 315
306 305 304 303 303 301 298 297 298 299 306 320 319 319 320 321 322 321 320 320 321 321 321 319 319 319 319 318 317 316 315 314 314 314 314 315 314 314 313 312 315 314 314
303 301 300 299 298 297 295 296 296 297 310 319 318 318 318 320 320 320 320 320 320 320 321 321 321 320 320 317 317 316 316 314 313 313 314 314 313 314 313 314 314 314 314
300 297 296 295 295 294 294 294 294 296 311 313 316 318 318 318 319 319 320 320 320 320 320 320 320 320 320 318 317 316 316 316 315 314 314 314 314 313 313 314 313 312 311
296 294 294 292 292 291 292 293 292 292 296 298 300 303 313 318 319 319 319 319 320 320 319 319 319 319 318 318 317 316 316 316 315 315 314 314 314 313 314 314 311 302 298
294 293 292 291 290 289 291 292 291 290 291 292 293 295 299 305 310 313 317 318 320 318 315 314 313 315 314 315 316 316 315 315 314 313 312 314 314 314 314 314 310 296 290
291 291 291 290 289 289 290 290 290 289 290 291 292 292 293 294 297 301 307 310 313 311 306 304 300 301 301 304 310 313 312 313 310 305 303 303 306 312 311 306 297 290 285
290 290 290 289 288 288 289 290 289 289 289 289 291 290 291 291 292 294 294 295 295 295 292 291 289 289 291 295 300 306 307 306 303 292 291 291 295 296 296 295 290 288 288
288 288 287 288 287 288 288 289 290 289 289 288 287 287 288 288 288 290 290 290 290 289 287 286 284 283 284 285 288 291 293 292 289 285 282 283 286 285 282 280 281 284 283
288 286 286 286 285 286 287 288 290 290 289 288 287 286 285 285 285 285 286 287 287 286 285 284 283 283 282 282 282 282 282 283 283 282 282 281 280 280 281 281 281 280 280
287 286 286 285 284 284 284 286 287 289 288 287 287 286 285 284 284 283 284 283 284 284 284 284 283 283 282 283 282 282 282 281 281 282 283 282 282 281 281 281 281 280 280
288 286 285 285 284 284 284 284 286 287 287 287 286 285 285 284 284 283 282 282 283 283 283 283 283 282 283 283 283 283 284 284 285 285 285 284 283 283 282 281 281 280 280

GFSMW_925_thetae_114.txt.gz
Theta_e
324 324 323 323 324 324 323 323 326 336 341 344 344 344 344 340 338 338 338 336 335 335 335 334 335 333 332 331 330 329 328 328 327 326 326 325 325 325 324 323 323 322 323
324 324 324 323 322 323 324 324 324 324 333 340 340 342 342 341 338 337 337 336 335 336 333 334 332 331 330 328 326 327 325 325 326 325 324 324 324 324 323 323 322 323 322
323 324 324 324 323 324 325 325 325 326 327 326 336 337 340 338 335 335 334 337 336 334 333 332 331 330 329 328 327 325 324 323 324 325 323 323 323 322 322 322 322 322 321
320 320 322 325 324 324 325 326 327 328 328 328 331 338 336 335 334 333 333 335 335 333 331 330 331 329 327 328 326 325 324 323 323 323 322 321 322 322 322 321 321 321 319
318 320 324 324 324 324 324 326 327 329 329 329 331 337 336 335 333 332 332 332 333 332 331 331 331 329 327 326 326 324 323 322 322 322 321 320 321 321 321 320 321 321 320
323 323 323 322 322 322 323 324 324 325 328 329 330 336 335 334 332 332 332 331 333 332 331 330 328 326 326 326 326 324 322 321 322 322 320 320 321 321 321 319 320 321 320
323 321 322 322 322 322 323 323 323 323 325 329 329 334 336 333 333 333 334 332 331 331 331 330 328 326 326 325 324 323 322 321 320 321 320 320 321 321 320 319 319 320 320
323 322 322 323 322 321 320 320 319 320 323 323 329 331 332 333 332 333 335 332 330 330 330 329 328 326 325 324 323 322 321 320 320 319 320 321 321 320 321 320 319 319 319
322 322 322 321 319 318 318 317 317 318 321 322 324 331 330 331 331 333 334 331 330 329 328 328 326 326 324 323 323 322 321 320 319 319 320 320 320 320 320 316 318 319 318
322 321 320 319 317 317 316 314 313 315 317 317 322 329 328 327 329 332 332 330 329 328 328 326 325 324 322 323 322 321 320 320 319 319 320 320 320 320 319 319 320 319 318
322 321 320 318 317 316 314 313 311 310 310 312 320 328 327 327 329 331 332 330 328 326 327 325 324 323 321 321 321 320 320 319 319 319 320 319 320 320 317 318 319 318 319
319 317 316 314 314 314 312 310 308 307 306 309 322 327 326 326 328 330 330 329 326 325 325 324 323 322 322 321 321 320 320 319 319 319 319 319 319 319 318 319 318 317 317
314 313 312 312 310 310 309 307 305 304 303 306 317 325 325 325 327 329 328 326 325 324 324 325 323 321 320 320 320 319 319 319 319 319 319 319 319 318 318 318 318 317 317
311 310 309 308 306 306 305 303 302 301 300 303 315 323 323 323 325 327 325 324 324 323 323 323 323 321 319 320 319 318 317 318 318 319 319 319 318 317 317 317 316 317 315
308 307 306 304 302 302 300 299 298 298 298 300 309 322 322 323 324 324 323 322 323 322 321 321 320 319 319 318 318 317 317 316 317 317 318 318 318 318 317 316 316 316 315
305 303 301 299 298 297 296 296 296 296 297 301 309 322 322 324 323 322 322 321 323 322 321 320 320 319 318 318 317 317 316 316 315 316 317 317 317 317 317 316 316 315 315
301 299 298 296 295 294 293 295 295 295 295 302 316 321 322 322 322 321 321 322 321 321 320 319 319 319 318 317 316 316 315 315 315 315 315 316 315 315 316 315 315 315 314
298 296 295 293 292 292 292 292 293 293 293 294 299 312 320 321 322 321 321 321 321 321 321 320 319 319 319 318 316 315 316 315 314 314 314 315 314 314 314 314 313 313 313
295 294 293 291 290 290 290 291 291 291 292 291 292 295 305 320 320 320 320 320 320 320 321 321 320 319 318 317 316 315 316 316 315 314 314 314 314 314 313 313 311 306 303
292 292 291 290 289 289 289 290 290 289 290 290 290 292 295 304 314 318 319 319 318 313 312 311 309 307 310 315 316 315 315 315 314 314 313 314 314 314 314 313 311 302 293
290 290 291 289 288 288 289 290 289 289 288 289 290 291 293 293 298 304 309 313 310 305 300 300 297 301 302 305 311 314 313 312 307 304 304 305 309 312 311 311 306 300 290
289 288 288 288 287 287 288 289 289 288 288 287 288 289 292 291 291 293 294 296 296 293 289 289 287 289 291 296 301 307 309 306 304 293 291 291 297 299 299 298 294 290 290
288 287 287 286 286 285 286 287 288 288 288 286 286 286 287 290 291 289 290 289 289 288 286 285 284 283 283 285 288 291 293 293 291 286 284 285 287 286 284 283 284 286 284
288 287 286 286 285 285 285 286 288 288 287 286 285 285 285 285 286 287 289 286 286 286 285 284 283 283 282 282 283 283 283 283 283 283 282 282 282 282 282 282 282 282 282
288 286 286 285 285 284 284 285 286 287 287 286 286 285 283 283 283 284 284 284 284 284 284 284 284 284 283 283 283 283 283 283 282 282 282 282 282 282 281 280 280 280 280
287 286 285 285 284 283 283 284 285 285 286 286 285 285 284 283 282 282 282 283 283 283 283 284 284 284 284 285 284 285 285 285 284 284 284 283 282 282 281 281 280 279 279

GFSMW_925_thetae_117.txt.gz
Theta_e
318 319 319 321 321 320 321 327 343 342 343 344 344 344 343 341 340 340 340 340 338 337 337 339 336 336 335 333 332 332 331 330 329 328 327 327 326 326 324 326 325 324 323
318 319 319 320 323 323 324 328 342 344 343 343 342 342 344 343 342 340 339 338 339 337 335 336 335 335 335 332 331 330 329 329 328 326 325 324 324 325 325 324 324 323 323
318 320 320 319 323 324 325 325 326 338 344 342 342 342 341 342 340 339 338 337 337 336 334 334 333 333 333 331 329 328 327 326 326 326 324 323 324 323 324 323 323 323 323
319 319 321 319 322 324 325 326 327 327 328 331 340 341 341 339 340 338 337 336 336 336 334 333 332 333 332 330 328 326 326 324 323 325 324 322 322 323 323 322 323 322 322
316 318 321 321 323 324 325 326 326 327 327 327 328 335 337 337 338 337 336 335 334 335 336 334 332 332 331 329 327 326 325 324 323 323 323 321 322 322 321 322 321 321 321
318 320 319 319 320 319 319 319 320 321 322 323 326 331 336 336 335 334 333 333 333 333 335 332 331 330 329 328 327 325 325 325 323 323 323 322 321 321 321 321 321 321 320
318 318 320 318 317 317 316 316 316 316 317 319 321 322 331 335 334 333 332 331 330 330 333 332 331 330 329 327 326 325 325 324 323 323 322 321 321 321 321 320 320 320 320
319 320 318 316 316 316 315 314 314 313 313 315 317 319 321 332 334 333 332 331 331 331 331 332 331 330 329 326 325 324 325 323 322 322 322 321 321 321 320 319 320 319 319
319 318 317 315 315 315 314 313 312 311 310 310 310 313 316 321 333 333 332 332 332 331 331 331 331 329 327 326 324 324 324 323 321 321 321 321 320 321 320 319 318 318 319
318 316 315 314 314 314 312 310 309 308 307 307 307 308 312 318 330 332 331 329 332 331 330 330 330 328 327 325 323 323 323 322 321 320 320 320 320 321 320 319 317 317 318
314 313 311 310 309 309 309 307 306 305 304 304 304 305 311 319 326 330 328 328 331 329 329 329 328 328 325 325 323 322 322 321 320 319 320 320 320 320 320 319 318 317 318
310 309 308 307 305 305 305 303 302 302 301 301 301 303 311 323 326 327 326 329 331 329 328 327 326 325 324 323 323 322 321 320 319 319 319 320 320 320 320 318 317 317 318
308 306 304 303 302 302 301 300 299 298 298 298 299 301 309 324 327 327 327 329 328 327 327 326 325 324 323 322 321 321 320 319 319 319 319 319 319 319 319 319 318 318 318
305 303 301 299 299 299 297 297 296 297 297 297 297 300 305 320 325 325 326 328 327 326 325 324 323 322 322 321 321 321 320 320 319 319 319 319 319 319 318 318 317 318 317
302 301 299 298 297 296 295 294 295 295 295 296 297 299 304 317 324 324 325 326 325 325 324 324 324 322 320 320 320 319 319 319 319 319 319 319 319 319 319 318 317 317 317
300 299 297 296 294 293 293 293 293 293 294 295 296 298 307 318 322 322 324 324 324 323 323 323 323 321 320 319 319 319 318 318 318 318 318 319 319 318 318 318 318 318 316
298 296 295 293 292 292 291 292 292 292 292 293 294 295 298 322 322 323 323 323 322 322 321 321 320 319 317 317 318 318 317 317 316 316 316 317 318 318 317 317 316 316 316
295 294 293 291 290 290 290 291 291 290 290 291 292 293 294 304 322 322 322 322 322 321 320 320 319 318 317 316 316 315 315 316 315 315 315 316 316 316 316 314 312 313 313
293 292 292 290 289 289 289 290 290 289 289 289 289 291 293 296 318 321 321 321 321 321 319 318 318 318 317 316 315 314 315 315 314 314 314 314 315 315 315 314 311 308 306
290 290 291 289 288 288 288 289 289 288 288 287 288 289 292 293 298 317 320 320 316 312 313 311 312 310 314 315 315 315 316 314 313 311 312 313 314 314 314 313 311 304 297
289 288 288 287 286 286 287 288 288 288 287 286 286 288 291 292 292 299 309 313 306 302 297 299 297 300 304 311 315 314 315 313 307 306 306 308 312 312 312 312 309 305 295
288 287 287 286 286 286 286 287 288 287 286 285 285 285 288 291 292 290 292 293 295 293 290 290 289 290 293 300 308 312 313 308 306 295 294 294 302 305 303 302 298 293 291
287 286 286 285 285 284 285 286 287 286 286 285 284 283 285 287 290 290 288 288 288 287 286 285 284 283 285 286 289 296 298 295 293 287 284 284 287 289 287 286 287 289 288
286 285 285 284 284 284 284 285 286 286 286 286 284 283 283 284 285 286 287 287 286 285 285 284 283 283 283 283 284 284 284 285 284 283 283 283 283 283 283 284 284 284 283
286 285 284 284 283 284 284 285 285 286 286 286 285 283 282 282 283 284 285 285 285 285 285 284 284 284 283 283 284 284 283 283 283 283 283 282 282 281 281 280 280 280 280
284 283 283 283 282 283 284 284 285 285 285 285 285 285 284 282 282 283 283 284 284 285 285 285 285 285 285 285 284 284 284 284 283 283 282 281 281 280 280 279 279 279 279

GFSMW_925_thetae_120.txt.gz
Theta_e
316 316 318 319 320 320 319 328 336 339 341 341 341 340 342 342 342 342 341 341 340 340 341 341 339 337 336 335 334 333 332 331 330 328 327 327 327 326 326 326 325 326 326
314 315 316 316 318 319 319 325 336 339 341 342 341 341 339 340 341 342 342 340 340 340 340 340 340 338 336 335 334 332 331 330 330 328 326 325 325 325 326 325 325 326 326
314 316 316 315 318 322 329 332 338 340 341 341 342 342 341 340 339 340 340 340 340 339 339 337 336 335 335 334 334 332 330 328 328 328 326 324 326 324 325 325 325 325 325
315 316 316 316 320 322 327 337 341 342 342 342 341 340 339 339 341 340 339 339 339 339 338 336 335 335 335 334 333 331 329 328 326 327 326 323 322 323 323 323 323 324 323
315 320 319 318 317 318 319 319 320 320 323 324 330 339 340 339 339 340 339 339 338 338 337 337 335 333 332 333 333 330 328 328 325 324 325 323 322 322 321 323 323 322 322
321 319 317 316 314 315 315 316 316 314 315 316 319 320 326 331 335 337 336 336 336 337 336 336 335 333 332 332 331 330 327 326 325 324 324 324 323 322 321 321 322 322 321
319 317 316 314 313 312 312 312 313 311 311 311 311 312 314 317 324 333 336 335 334 334 334 334 334 333 332 331 331 329 326 325 324 323 323 324 323 323 322 322 322 322 320
317 315 314 313 312 311 309 309 309 308 309 309 309 309 310 312 314 322 332 333 334 334 334 331 333 332 332 331 330 329 327 324 324 323 323 323 322 322 321 321 321 321 319
314 313 312 311 309 308 307 306 306 306 306 306 307 308 308 310 311 316 327 331 333 332 331 330 330 331 332 330 329 328 326 324 323 323 323 322 321 321 321 320 321 321 321
310 309 307 307 306 305 304 303 302 302 302 303 303 303 304 306 311 313 319 329 332 331 330 331 330 329 330 330 329 326 325 323 323 323 322 321 321 321 321 320 320 320 319
307 305 304 304 303 302 301 300 300 299 299 300 300 300 302 302 306 312 318 323 330 331 331 331 331 329 329 329 327 325 324 322 322 322 321 320 321 320 320 320 319 319 318
304 303 301 300 299 298 298 297 297 297 297 297 298 298 299 300 303 311 321 323 328 329 328 330 330 329 327 328 326 324 322 322 322 321 320 320 320 320 320 319 318 318 317
303 301 299 298 297 296 295 295 295 295 295 296 297 297 298 299 302 310 323 326 328 327 329 329 328 328 325 326 325 324 322 322 321 320 320 320 319 320 319 318 318 317 317
300 299 297 296 295 294 294 293 294 294 294 294 295 296 297 298 300 307 318 326 326 327 328 328 328 326 324 324 323 323 322 322 321 320 319 319 320 319 319 319 318 317 317
299 297 296 294 294 293 292 292 292 292 292 293 294 295 295 297 299 306 316 324 325 326 327 326 325 324 323 322 322 322 321 320 320 319 319 319 319 319 319 318 318 317 316
297 296 294 293 292 291 291 291 291 291 291 291 292 293 294 295 298 306 316 323 324 325 325 325 325 322 321 321 321 321 320 320 320 319 319 319 319 319 319 319 318 318 317
295 294 293 292 290 290 290 290 290 290 290 290 290 291 292 293 296 302 317 323 323 323 324 322 323 321 321 320 320 320 319 319 318 319 318 318 319 319 319 318 317 317 317
293 293 292 290 289 289 289 289 290 289 289 288 288 289 290 291 294 298 308 322 322 321 322 321 321 322 320 319 318 318 318 318 317 317 317 317 317 317 317 316 315 313 313
291 290 290 288 288 287 287 288 288 288 287 287 287 287 288 290 292 295 300 322 321 320 320 320 320 319 317 317 317 316 316 316 315 315 315 315 316 316 315 313 310 307 307
289 288 288 287 286 286 286 287 287 287 287 286 285 285 286 288 291 293 299 320 320 316 318 316 316 317 317 316 315 315 314 314 313 312 314 314 314 315 315 314 310 305 299
288 287 286 285 285 285 286 286 287 286 286 285 284 284 285 286 289 293 294 299 305 303 300 303 304 307 312 315 315 314 314 313 309 308 308 311 313 313 313 313 311 308 301
287 286 285 285 285 284 285 286 286 286 286 284 283 283 284 285 287 290 292 291 292 293 291 291 291 295 300 309 313 314 315 311 309 300 299 300 305 307 307 306 305 302 297
285 285 284 284 284 284 285 285 285 286 286 284 283 283 284 285 285 286 290 287 288 288 289 288 285 284 287 291 298 307 307 303 301 293 288 289 293 295 295 292 292 293 293
284 283 283 283 283 283 284 284 284 285 285 285 284 283 283 284 284 285 286 286 286 286 286 285 284 285 284 284 285 287 289 287 287 285 286 287 286 285 283 284 286 287 287
283 282 281 281 281 282 283 284 284 284 285 285 284 283 283 282 284 284 285 285 285 285 285 285 285 285 284 284 284 284 284 284 283 283 283 283 283 282 281 281 281 281 282
281 281 280 280 281 281 282 283 284 284 284 285 284 283 282 282 282 283 283 283 284 284 284 285 285 285 285 284 284 284 284 284 284 283 281 281 280 280 280 280 279 280 280

GFSMW_925_thetae_123.txt.gz
Theta_e
313 315 318 316 317 319 334 338 338 340 341 341 340 339 339 339 339 340 340 340 337 338 337 337 339 340 338 337 336 334 333 332 331 330 329 329 328 327 327 327 326 325 325
312 313 314 317 317 315 317 331 337 338 340 340 340 339 339 339 339 340 340 340 340 340 338 337 338 339 338 337 336 335 331 330 331 329 327 326 326 326 326 326 325 325 325
313 314 314 314 315 315 314 317 327 334 338 340 340 339 339 339 340 340 340 340 341 340 340 339 339 340 337 336 335 334 332 329 329 329 327 324 324 323 325 324 324 325 325
311 313 317 318 318 322 328 332 333 336 338 340 339 339 337 337 339 339 341 341 340 340 340 340 340 339 339 337 335 334 333 331 328 328 329 325 323 323 323 324 324 325 325
312 317 316 315 314 314 316 320 325 327 333 339 339 337 335 336 335 338 338 339 340 340 339 339 339 338 337 335 334 333 332 331 328 327 326 326 323 322 321 323 323 324 324
316 315 314 313 311 311 311 311 311 311 314 318 319 320 327 323 329 332 335 338 337 337 338 339 338 336 336 335 334 332 333 331 329 327 326 325 324 322 321 320 323 323 323
315 313 311 310 308 308 308 308 308 307 308 310 311 312 313 314 317 320 329 333 335 335 336 337 337 336 335 335 333 331 332 330 328 327 325 325 324 323 322 321 322 322 321
312 310 309 308 307 305 304 304 304 304 305 306 307 308 309 310 311 314 317 326 332 333 335 335 335 335 334 334 332 330 330 330 328 326 325 324 322 323 323 322 321 321 320
308 307 306 305 303 302 301 301 301 301 301 302 304 306 307 307 308 310 312 315 325 330 332 333 334 334 334 330 331 329 329 329 328 325 324 323 322 323 323 322 322 322 321
304 304 303 301 300 299 299 299 298 298 298 299 300 300 301 303 304 306 309 313 317 324 329 331 331 332 330 329 329 329 329 327 326 325 324 322 322 323 322 321 321 321 321
301 301 300 299 298 297 296 296 296 296 297 297 297 298 298 299 301 303 306 310 315 319 326 329 330 330 328 328 328 328 327 326 325 324 322 321 322 322 321 321 320 320 320
300 298 298 297 296 295 294 294 294 294 295 295 296 297 298 299 299 301 304 307 312 319 322 328 329 329 328 327 327 326 326 325 323 323 320 321 322 321 321 320 320 319 319
300 298 296 295 294 294 293 293 293 293 293 293 293 295 296 296 297 298 302 307 313 320 324 328 329 329 328 327 327 326 324 324 323 322 319 321 321 320 320 320 320 319 319
298 297 296 294 293 292 292 292 292 292 291 291 292 293 293 294 295 296 299 305 311 320 324 326 328 328 327 326 325 325 324 323 323 320 321 320 320 320 320 319 319 318 318
297 296 295 293 292 292 291 291 291 291 290 290 290 291 292 293 293 295 298 303 308 318 325 326 327 327 326 325 324 325 323 322 321 320 321 320 321 320 320 319 318 318 317
296 295 293 292 291 290 290 290 290 290 290 290 290 290 290 291 292 294 296 299 308 318 323 325 326 325 324 324 325 324 322 321 321 320 320 320 320 319 319 319 319 318 317
294 294 292 290 289 288 288 288 289 289 289 289 288 288 288 289 291 292 295 298 304 316 323 325 325 324 323 324 324 322 321 320 320 319 319 319 319 319 319 319 319 318 317
291 291 289 288 287 286 286 287 288 287 287 287 287 287 287 288 289 291 293 295 299 311 323 323 324 322 321 323 323 321 320 319 319 319 319 319 319 319 319 318 316 315 316
289 288 287 286 286 285 286 287 287 287 286 286 285 285 285 286 288 290 291 293 297 308 322 322 322 321 320 322 320 319 319 318 318 318 318 318 318 317 317 316 312 309 309
288 286 285 285 285 284 285 286 286 286 286 285 283 283 284 285 287 288 290 291 297 310 320 319 319 319 320 320 319 317 316 315 314 314 315 315 316 316 316 315 310 305 304
286 286 285 285 285 284 285 285 285 285 286 284 283 282 284 285 286 287 289 290 295 296 304 310 306 311 316 317 316 316 316 314 311 311 311 313 314 314 313 313 311 310 304
284 283 283 284 284 284 284 284 285 285 285 285 283 282 283 284 285 286 287 288 292 292 292 293 295 298 303 313 314 315 315 314 311 306 304 307 311 308 307 308 307 306 302
282 282 281 281 282 283 283 284 284 284 284 283 283 282 282 284 284 285 286 287 287 287 287 289 289 288 291 293 304 310 311 309 305 299 295 296 299 300 298 296 295 296 295
281 281 280 280 281 282 283 283 283 284 284 283 282 282 282 283 283 283 284 285 286 286 286 286 286 286 287 285 286 290 291 290 294 290 289 290 290 291 288 287 289 289 289
281 280 280 280 280 281 282 283 283 283 284 284 283 282 282 282 282 283 282 283 284 284 285 285 286 286 285 285 285 285 286 285 284 285 285 284 284 283 283 283 284 284 285
280 279 279 279 279 281 281 282 282 283 283 283 282 281 281 281 281 282 282 281 281 282 282 283 283 283 283 283 283 283 283 283 284 283 281 281 280 280 280 280 280 280 280

GFSMW_925_thetae_126.txt.gz
Theta_e
310 313 314 314 319 331 335 337 339 340 338 335 335 335 334 334 333 331 331 330 331 331 333 334 336 336 336 336 336 335 333 331 332 330 329 329 328 329 328 326 326 326 326
307 312 313 312 313 321 333 336 337 339 340 338 336 335 335 335 335 335 335 336 333 334 333 334 336 338 338 337 336 335 332 331 331 329 328 327 326 327 326 326 327 327 326
307 312 312 311 312 312 320 332 335 337 339 339 339 338 337 337 337 337 338 338 338 339 337 337 337 337 338 338 336 336 334 330 330 331 328 324 324 323 323 326 325 325 325
308 311 313 315 316 316 312 313 329 334 337 339 339 338 337 336 337 337 337 339 340 340 339 338 338 337 337 338 336 335 334 332 329 329 330 325 323 320 321 322 323 322 322
308 315 314 312 312 317 320 323 328 334 336 338 339 337 337 337 336 337 337 335 336 338 338 339 340 338 338 338 338 335 333 332 331 329 328 326 323 323 322 322 323 323 324
314 312 311 310 308 309 309 311 317 317 326 334 334 335 334 334 334 333 331 329 326 335 336 339 339 339 339 338 337 336 334 333 332 330 329 328 326 322 321 319 320 322 323
309 307 306 305 304 304 306 305 306 306 308 311 312 314 314 317 323 330 329 325 328 334 336 336 337 337 338 337 335 335 334 333 331 330 328 327 326 325 323 321 320 322 322
305 303 303 302 302 302 301 302 302 302 303 304 305 306 307 308 310 313 317 326 329 331 333 334 334 335 335 336 334 333 333 332 330 329 328 327 326 325 324 323 321 321 320
304 303 301 300 299 298 298 298 299 299 299 301 302 303 304 306 306 308 310 311 313 320 327 330 332 334 333 334 333 332 332 331 329 328 328 327 326 325 324 323 322 322 322
303 301 300 298 297 296 296 295 296 296 296 297 298 300 301 303 304 306 306 307 309 312 315 324 329 331 332 334 332 330 330 328 327 326 327 326 325 324 323 321 322 322 322
301 299 298 297 296 295 295 294 294 294 293 294 295 296 298 299 302 303 304 305 306 309 312 316 321 326 328 328 330 330 327 326 326 325 327 326 325 324 322 320 322 321 321
298 298 296 295 294 294 293 293 293 292 292 293 293 294 295 295 296 297 299 301 303 305 308 314 318 322 326 327 326 326 325 325 325 325 325 324 324 323 320 321 321 320 320
297 296 295 294 293 292 292 292 292 291 291 291 291 292 292 293 293 294 296 298 300 303 307 312 318 321 324 327 327 325 325 326 325 325 324 324 323 320 320 321 320 320 320
296 295 294 293 292 291 291 291 291 291 290 290 290 291 291 291 291 292 294 295 298 301 305 312 320 322 324 326 327 326 325 324 325 325 324 324 323 320 320 320 320 320 319
295 294 292 292 290 290 289 290 290 290 289 289 289 289 290 290 290 291 292 293 296 300 304 309 319 323 325 327 327 326 325 323 323 323 323 322 321 319 320 320 320 319 319
294 292 291 290 289 288 288 288 289 288 288 288 288 288 288 288 289 290 291 292 295 298 301 308 319 325 326 327 326 326 324 323 322 321 322 322 320 320 320 320 320 320 318
291 290 289 288 287 287 287 288 288 287 287 287 286 286 286 286 287 289 290 292 293 295 299 306 318 324 325 325 324 325 323 322 321 321 320 319 319 320 320 320 319 319 319
289 288 287 286 286 286 286 286 287 287 286 285 285 284 284 285 286 288 289 290 292 293 296 303 315 322 324 324 324 324 322 321 321 321 320 319 320 320 319 319 318 317 317
287 286 285 285 285 285 285 286 286 286 286 285 284 283 284 285 286 287 287 289 290 292 296 302 314 322 323 323 323 324 320 319 320 320 320 318 319 320 319 318 315 312 312
285 284 284 284 284 284 285 285 285 285 285 284 283 283 283 284 285 286 287 288 289 291 293 300 310 321 321 322 323 321 317 318 318 318 318 318 319 319 318 317 315 308 307
283 282 282 283 283 283 284 284 284 284 284 283 282 282 283 283 284 285 286 287 288 289 291 295 296 298 310 318 320 318 317 317 315 315 314 316 317 317 317 316 314 314 308
281 281 280 281 282 282 283 283 283 284 284 283 282 281 282 283 282 283 284 286 287 288 288 289 290 291 295 302 309 317 319 317 314 310 310 312 314 313 311 310 310 308 304
280 280 279 280 281 281 282 283 283 283 284 283 282 282 282 282 282 282 283 284 285 286 286 287 287 287 288 289 299 310 313 312 308 303 302 301 303 303 300 299 300 301 298
280 279 279 279 280 280 281 282 282 283 283 282 281 281 281 281 281 281 281 281 282 283 283 284 285 286 286 288 287 289 292 295 295 292 292 294 294 295 290 290 291 292 293
279 279 279 279 279 280 281 281 281 282 282 282 281 280 280 280 280 281 280 280 280 281 282 282 283 284 284 285 287 287 286 287 285 286 287 286 285 284 284 284 285 285 286
279 279 278 278 278 279 280 280 281 281 281 281 280 279 279 279 279 279 279 280 279 278 279 280 281 282 282 282 283 284 286 284 285 283 282 281 281 281 280 280 280 281 281

GFSMW_925_thetae_129.txt.gz
Theta_e
306 305 305 307 311 317 334 339 336 333 333 334 334 334 333 333 333 333 333 334 334 335 337 334 334 334 335 335 335 334 332 331 332 330 329 329 330 329 329 330 328 327 327
306 307 306 306 310 314 330 338 339 336 333 332 333 333 333 333 333 333 334 333 333 333 333 333 334 334 334 334 334 334 332 331 331 330 329 332 329 327 326 328 328 328 329
306 306 306 306 308 313 319 335 338 339 337 334 334 334 335 334 334 333 333 333 333 333 333 333 332 333 334 335 334 334 333 331 331 332 332 332 332 327 326 328 327 326 326
305 306 306 306 311 313 315 328 336 339 339 338 337 336 336 335 335 334 334 334 334 334 334 334 334 333 335 335 335 335 334 333 331 330 331 328 327 329 329 324 324 324 325
307 305 305 306 316 318 317 325 333 336 339 340 339 337 338 338 338 336 334 335 338 336 335 335 334 334 335 335 335 335 334 334 333 331 330 328 324 323 326 329 326 325 325
310 312 312 311 311 311 314 317 318 318 329 334 337 338 337 336 335 337 335 334 335 334 333 328 324 325 333 335 335 335 334 334 333 331 330 329 327 325 326 326 327 325 325
304 305 305 306 306 306 308 309 311 309 313 320 323 326 327 330 330 332 332 332 329 327 329 327 325 324 330 334 334 334 333 333 332 331 330 330 329 328 326 325 326 325 325
303 302 301 301 301 302 302 303 304 304 304 305 306 309 313 317 319 320 322 324 327 329 326 325 324 326 332 332 334 335 333 332 332 332 331 330 329 327 327 325 325 325 324
302 301 300 299 299 298 298 298 299 300 300 300 302 303 304 305 306 307 310 312 315 318 324 329 330 332 334 334 333 331 333 333 331 331 331 330 328 327 327 325 324 324 326
299 300 298 297 297 296 296 296 296 296 296 297 298 299 300 301 302 303 304 306 308 309 310 313 320 326 328 329 331 330 330 329 332 331 330 328 328 326 326 326 324 323 324
297 296 297 296 295 295 295 294 294 294 295 295 295 297 296 297 299 299 300 303 304 305 307 309 311 314 320 326 329 329 329 328 328 329 328 327 327 326 325 325 324 323 322
295 295 294 293 293 293 293 293 293 293 293 293 294 294 294 295 297 298 299 300 301 302 303 305 308 312 316 320 325 328 328 328 327 326 326 325 325 325 324 324 323 321 321
294 293 292 292 291 291 291 292 292 292 291 292 292 293 293 293 294 294 295 296 297 299 302 304 307 310 314 318 321 324 327 327 326 325 325 323 324 324 323 323 322 321 321
293 292 291 290 290 289 290 291 290 289 290 290 291 291 291 291 292 293 293 294 295 297 299 302 305 309 311 318 320 322 325 325 325 326 324 324 323 324 323 322 321 320 320
292 291 290 289 288 288 288 289 289 289 289 289 289 289 289 289 290 291 292 292 293 295 298 300 303 306 310 316 321 322 324 325 325 325 324 324 324 324 324 322 320 320 320
291 290 289 288 287 287 287 288 288 288 288 287 288 288 288 288 289 290 290 291 292 293 295 298 301 305 309 316 323 323 324 324 325 324 323 323 323 323 323 323 320 320 320
289 288 288 287 286 286 286 286 287 287 287 287 286 286 286 287 288 288 289 290 291 292 293 295 298 302 305 316 323 324 324 325 324 323 322 321 322 323 321 320 319 320 319
287 287 286 286 286 285 286 286 286 286 286 286 285 285 285 286 287 287 288 289 289 291 292 294 297 299 303 315 323 324 325 324 323 323 322 321 320 321 321 319 319 319 319
285 284 285 285 284 285 285 285 285 285 285 284 284 284 284 285 285 286 287 288 288 289 290 293 293 295 301 311 321 323 324 323 322 321 321 320 320 321 319 318 318 317 316
283 283 283 283 283 283 284 284 284 284 284 283 283 283 284 284 284 284 285 286 287 288 289 290 291 291 295 305 314 321 321 320 319 319 319 320 320 320 318 319 318 311 312
282 282 282 282 283 283 283 284 284 284 284 283 282 282 283 283 283 283 283 285 285 286 287 288 289 289 291 296 304 314 315 317 316 317 318 319 319 319 319 319 318 317 316
281 281 281 281 281 282 283 283 283 283 283 282 282 281 281 281 282 281 281 283 284 284 284 285 287 287 288 291 292 302 309 314 316 314 316 316 317 318 317 316 316 315 310
280 280 280 281 281 281 282 282 282 283 282 282 281 281 281 281 281 281 280 281 282 283 283 283 284 284 285 287 290 289 300 304 310 310 308 310 311 311 305 305 304 304 302
280 279 280 280 280 280 281 280 281 282 282 282 281 281 281 280 280 281 281 280 280 281 282 283 282 283 283 284 286 289 289 289 291 291 293 295 298 299 293 293 294 295 294
280 279 279 279 279 280 280 280 281 281 282 282 281 281 281 280 280 280 280 279 279 279 280 280 281 282 282 282 283 284 286 286 286 287 288 288 287 286 286 286 287 287 288
279 279 279 279 278 279 279 279 280 281 281 281 280 280 280 280 280 280 280 279 278 277 277 278 278 280 280 280 280 280 282 286 287 283 281 281 282 282 281 281 281 282 282